GFSNW_sfc_30mbdewp_003.txt.gz
Dewpoint
51 49 50 52 52 50 45 43 36 44 46 40 40 39 40 41 41 41 40 39 38 35 37 36 35 35 38 40 40 36 38 35 31 32 30 27 25 22 21 21 21 20 18 18
51 50 50 51 52 51 43 38 39 42 44 36 37 39 38 39 40 40 39 38 39 40 38 36 38 39 40 41 39 38 38 35 28 31 33 33 33 29 26 24 30 25 19 18
52 51 51 51 52 51 44 35 34 35 41 40 38 37 36 36 38 39 40 39 39 38 36 38 38 38 38 42 40 40 38 35 32 25 26 28 30 32 31 28 26 23 22 23
52 51 51 51 51 49 45 37 35 37 33 36 35 35 35 33 33 38 39 38 37 35 35 35 36 36 36 37 36 38 38 31 30 30 29 27 27 27 27 26 26 22 21 20
54 52 51 51 51 47 41 34 31 34 34 35 32 32 33 32 31 33 35 36 38 35 35 33 35 36 35 34 35 34 35 29 29 24 20 19 19 22 22 24 25 24 25 24
54 53 52 51 51 46 38 40 38 34 33 33 29 30 31 31 32 33 36 37 36 35 37 37 37 37 37 36 33 31 31 26 21 18 19 23 22 23 22 23 23 23 23 25
54 54 52 52 50 46 40 41 38 32 28 29 29 32 33 32 32 29 31 35 31 33 31 29 28 27 25 25 26 30 27 27 26 22 23 22 25 27 26 24 25 26 26 26
54 54 54 52 51 48 43 45 39 34 29 29 29 30 30 31 31 31 31 31 31 29 27 25 26 25 26 27 30 25 25 26 24 25 25 25 27 27 26 26 27 27 27 27
54 54 54 54 53 50 46 45 45 39 38 34 30 29 30 31 29 28 29 31 33 30 26 27 32 32 28 29 30 36 32 29 26 29 28 26 27 29 30 29 25 31 30 31
53 53 54 54 53 51 49 47 48 42 42 39 34 37 37 30 29 28 27 30 29 32 26 27 29 29 25 29 27 31 32 31 27 27 28 30 30 30 31 26 26 36 36 36
51 52 53 54 54 52 51 50 48 44 43 43 40 38 35 30 31 36 31 32 32 29 29 29 29 28 28 27 27 29 30 32 31 30 29 28 32 32 30 30 35 38 34 31
51 51 52 53 53 53 52 49 50 48 45 45 45 43 41 35 36 38 32 36 34 33 32 30 30 28 28 27 27 30 28 30 29 33 32 33 34 33 34 34 34 33 33 32
49 50 51 52 53 53 52 49 49 47 44 44 44 45 46 46 43 38 36 35 36 35 38 36 34 34 33 32 31 32 32 32 30 29 30 31 31 33 33 34 34 33 35 35
47 49 50 51 52 53 52 49 49 48 45 41 43 45 44 46 46 45 41 40 37 39 40 38 37 35 38 35 34 34 34 34 32 32 33 33 33 32 34 34 35 34 34 33
45 47 49 50 50 51 53 51 50 50 47 41 43 45 45 44 45 45 43 40 39 39 37 37 35 38 38 38 37 35 35 33 32 31 32 32 32 34 35 34 34 33 32 32
43 46 48 49 51 51 50 45 50 51 50 44 38 43 41 41 43 43 43 43 42 41 39 38 39 40 37 35 33 35 34 34 35 34 35 35 35 34 34 34 34 33 33 35
42 45 47 49 51 50 46 44 46 48 51 43 39 39 40 40 41 42 42 43 42 41 39 38 38 39 39 36 32 33 32 32 33 34 34 34 35 35 32 33 33 34 32 31
45 46 49 50 49 47 45 44 46 49 45 43 37 37 37 40 39 39 41 41 41 41 40 40 38 38 38 33 34 34 34 33 33 33 35 35 34 33 33 32 31 29 28 18
48 48 47 45 43 43 42 44 45 46 44 39 36 35 34 39 38 39 39 39 36 40 37 36 38 35 31 33 34 33 32 33 34 35 34 34 33 31 30 28 28 26 13 12
47 46 42 38 40 42 41 41 40 41 39 38 34 38 34 37 37 37 36 37 33 31 34 37 33 31 33 33 34 35 35 36 36 33 31 31 30 29 28 28 18 11 11 12
44 41 37 40 41 40 38 34 34 36 33 35 34 35 33 36 34 35 37 33 33 27 30 31 29 27 30 32 34 31 32 33 35 35 34 32 31 30 27 12 12 12 11 9
43 40 40 39 37 34 32 32 31 30 31 33 32 33 35 35 38 34 33 31 30 25 29 27 24 26 27 25 25 27 31 32 31 30 31 29 31 26 8 8 10 9 9 10
40 38 34 34 32 28 27 25 28 29 31 30 31 30 33 34 35 34 32 28 27 27 24 22 24 25 24 24 26 28 30 28 23 20 13 8 8 7 8 8 9 10 11 11
37 34 28 28 26 27 29 29 30 30 30 30 32 31 30 31 30 32 27 28 27 23 21 21 22 22 21 21 26 28 29 23 17 14 10 9 9 10 11 12 11 12 11 10
34 34 26 29 30 32 29 27 27 28 32 32 31 30 30 28 28 29 28 25 22 22 21 22 21 20 19 21 26 28 29 26 18 12 11 10 10 11 11 13 14 12 11 11
34 33 30 28 29 30 27 27 30 31 32 32 32 28 27 26 27 26 23 22 20 22 25 28 27 21 18 21 25 27 28 27 21 13 13 14 15 14 13 14 13 12 12 13
33 30 34 31 31 31 31 30 30 32 30 29 30 26 24 27 25 23 23 22 21 26 27 26 23 18 19 21 24 26 27 27 23 16 16 16 15 15 14 13 14 15 14 14

GFSNW_sfc_30mbdewp_006.txt.gz
Dewpoint
52 50 50 51 52 50 46 45 39 43 48 41 41 40 40 41 40 40 39 39 37 36 37 35 34 36 38 40 40 36 38 36 31 32 31 32 26 24 23 21 20 21 19 19
52 51 51 51 52 51 46 40 39 44 46 38 39 39 38 39 40 40 39 39 39 38 38 37 38 39 40 40 40 38 38 35 32 32 33 33 32 29 26 27 28 27 19 19
52 52 51 51 51 50 46 40 36 42 41 39 37 36 37 37 39 39 39 39 39 37 38 39 38 37 40 41 40 40 39 35 32 27 27 30 31 32 32 30 26 25 25 24
54 52 50 50 51 49 47 38 35 38 37 34 35 35 33 34 35 38 38 37 36 35 35 35 35 36 37 37 37 38 38 32 30 30 30 28 27 27 28 28 28 26 22 23
54 52 51 50 50 47 44 39 33 36 35 34 28 31 33 31 32 34 35 37 36 35 34 35 35 35 34 34 35 35 35 30 28 25 24 21 20 21 20 23 25 26 26 25
55 54 51 50 50 47 39 40 38 37 33 32 28 32 31 33 32 34 36 36 36 37 32 30 30 32 35 36 33 32 31 27 24 20 21 23 22 23 23 23 23 22 21 23
54 54 53 52 50 46 44 43 42 36 29 27 30 32 32 32 32 30 33 33 32 33 29 28 28 26 25 25 27 30 30 29 26 23 25 22 25 27 26 26 25 25 25 26
54 54 54 52 51 48 45 46 41 36 28 29 31 31 31 32 32 31 31 30 31 30 27 27 27 24 27 26 32 30 24 27 24 26 26 27 28 28 27 27 27 28 28 28
53 54 54 54 52 49 48 45 47 42 37 33 30 28 29 30 29 28 30 30 33 31 28 28 33 33 29 27 32 35 33 26 26 28 26 26 28 29 30 30 26 34 32 31
53 53 53 54 53 51 51 48 48 45 43 38 35 37 35 32 31 29 28 28 29 31 28 30 31 30 26 29 28 31 31 29 26 26 27 29 31 31 31 27 28 36 35 35
51 52 52 53 54 52 52 50 49 47 45 43 39 38 36 32 32 35 31 32 32 30 29 31 30 29 28 28 29 30 31 31 30 30 28 26 32 32 29 31 35 36 37 34
51 51 52 52 53 53 52 49 49 48 47 46 46 45 44 36 36 36 32 37 34 34 34 31 31 29 28 28 28 29 28 30 31 32 32 34 34 33 34 34 34 35 34 33
49 50 51 52 53 53 52 49 48 46 45 45 45 45 46 45 42 38 36 35 36 34 40 35 35 32 31 31 30 31 32 32 31 31 30 31 33 34 34 34 34 35 36 36
47 49 51 51 52 53 51 49 49 48 45 41 44 45 44 46 46 44 42 39 39 40 40 38 36 35 38 36 35 34 34 35 33 33 34 34 34 34 35 35 34 34 34 34
46 48 50 50 51 52 52 51 50 50 47 41 43 45 44 44 45 45 45 40 40 39 36 36 35 38 37 38 37 35 36 34 34 32 33 34 34 35 35 35 35 34 33 32
44 47 49 49 50 51 49 45 50 51 50 43 38 44 41 42 43 44 44 43 41 41 39 38 39 40 37 35 34 36 35 35 35 33 33 34 35 35 34 34 34 33 34 35
42 45 48 49 50 50 45 43 45 47 51 43 38 39 40 40 42 43 42 43 42 41 39 38 39 38 39 37 32 33 33 34 33 34 34 34 35 34 33 33 35 34 33 32
44 45 48 50 49 47 44 44 46 49 46 44 36 36 37 40 39 39 42 41 41 41 40 40 38 39 39 33 35 34 34 34 33 34 35 35 33 34 33 33 32 30 29 26
47 49 49 46 43 42 42 44 45 46 44 38 37 35 33 39 38 39 39 39 35 41 37 38 38 36 32 33 35 34 34 33 35 35 34 34 34 33 32 31 30 29 28 23
48 45 43 38 40 43 42 41 41 41 40 38 35 39 35 37 37 36 35 35 33 30 32 36 33 32 34 33 34 35 35 35 35 33 33 33 32 32 30 29 29 26 12 11
44 40 37 40 41 41 38 34 34 36 34 36 35 36 34 37 35 34 36 32 33 27 30 30 29 28 31 33 33 32 30 31 32 34 35 34 33 31 29 29 19 12 12 12
42 39 40 39 37 35 32 31 32 31 31 35 33 33 36 35 38 35 34 32 31 25 30 28 24 26 29 27 25 26 28 30 32 30 31 31 31 31 29 18 11 12 11 9
40 37 34 34 32 28 26 24 27 29 32 31 33 31 34 35 37 34 32 29 27 28 26 23 24 27 25 24 24 25 29 30 28 25 25 24 28 24 12 9 9 8 9 10
36 32 26 27 25 26 28 29 30 32 32 31 33 32 31 32 32 32 27 31 28 24 21 21 24 26 26 24 24 26 27 28 23 21 14 9 9 8 9 9 10 10 11 11
33 32 26 27 30 31 29 29 28 29 33 32 31 30 29 28 28 28 28 26 22 23 21 24 21 20 19 19 23 26 28 28 22 17 12 10 9 10 11 12 14 13 12 12
34 32 29 29 30 29 27 28 30 32 33 33 32 28 26 26 26 26 24 23 20 21 24 28 28 24 20 19 22 25 28 29 26 17 12 11 11 11 12 13 14 13 13 13
32 30 32 31 31 32 29 29 31 32 30 28 29 26 23 27 24 24 25 23 24 26 28 28 28 26 18 19 21 25 27 28 27 21 14 14 16 15 14 14 14 15 16 15

GFSNW_sfc_30mbdewp_009.txt.gz
Dewpoint
54 53 51 52 51 51 46 44 37 43 49 41 41 39 40 41 41 42 40 42 40 39 40 35 38 38 39 40 40 36 38 33 29 31 30 30 27 25 23 20 20 21 19 19
54 53 51 51 51 51 44 39 40 43 44 38 38 38 38 39 40 40 39 39 40 40 38 37 39 39 41 41 40 38 38 35 32 31 32 33 30 29 25 27 28 24 20 19
54 53 52 51 50 51 47 40 35 39 38 40 38 37 37 37 39 38 39 39 38 38 38 40 38 38 40 41 39 40 39 34 31 28 27 31 31 32 32 28 25 23 25 23
55 54 52 51 50 50 47 38 33 38 33 33 34 34 35 35 36 38 38 36 36 37 35 35 36 37 37 36 37 36 37 30 30 29 29 28 28 28 29 29 29 24 22 23
55 54 53 52 50 48 42 37 33 36 34 33 32 33 32 32 33 35 37 37 35 35 33 35 35 36 35 34 35 35 33 29 27 22 25 24 22 22 23 25 27 28 28 27
55 54 54 52 51 47 41 41 40 34 32 30 28 31 32 32 33 34 35 35 35 33 28 28 28 32 34 36 33 32 31 26 23 17 24 23 19 22 22 22 22 21 20 22
54 54 54 53 52 48 45 43 42 33 28 30 32 32 33 31 31 32 31 32 32 32 30 28 27 25 24 25 25 30 30 27 26 22 25 22 25 29 27 25 26 26 24 25
54 54 54 54 52 50 44 45 41 35 28 31 32 32 32 31 31 31 30 30 31 32 28 27 26 26 27 29 34 31 26 28 25 24 25 27 28 28 27 27 27 30 29 31
53 53 54 54 53 51 48 45 47 42 31 30 30 29 30 29 29 28 28 30 33 32 28 29 32 30 29 27 32 34 29 28 26 26 24 24 29 30 31 30 23 34 34 33
52 52 53 53 53 51 51 48 48 45 39 37 36 32 30 32 32 29 28 28 28 31 29 31 31 31 27 28 28 30 27 26 25 26 27 28 31 31 31 25 27 34 35 34
51 51 52 53 53 52 51 50 48 46 44 43 39 38 34 32 33 32 31 33 32 30 31 31 30 30 29 28 30 31 30 29 28 27 26 25 33 32 30 32 34 35 35 36
50 51 52 52 53 52 52 48 49 48 46 45 46 45 45 36 37 34 32 37 33 32 33 33 31 29 28 28 27 29 28 31 32 30 29 31 34 33 34 34 33 34 34 34
49 50 51 52 53 53 52 49 48 47 45 44 44 44 45 45 40 38 34 35 36 34 40 35 34 32 30 30 29 31 32 33 32 31 31 33 35 34 35 35 34 35 36 36
48 50 51 52 52 53 51 49 49 47 44 41 43 45 44 46 45 41 41 38 40 40 40 37 35 35 36 34 35 34 33 34 33 33 34 33 34 34 35 35 35 34 34 33
48 49 50 50 51 53 52 50 50 51 45 40 42 45 43 43 45 45 40 39 39 37 35 36 35 38 37 38 37 35 36 34 33 32 34 34 34 35 35 35 35 34 33 33
45 48 49 50 50 52 49 45 48 51 49 42 36 44 41 42 44 45 44 41 41 40 38 37 39 40 37 34 33 35 36 37 36 35 34 34 34 34 34 34 33 34 34 34
44 47 48 49 51 48 45 43 45 48 50 43 38 39 40 41 43 43 43 43 42 41 39 38 38 38 39 37 32 33 35 35 34 34 34 33 34 34 33 34 34 34 34 34
43 46 48 50 47 47 44 44 46 49 46 44 36 36 37 40 40 39 43 41 41 41 39 39 38 39 38 34 35 35 35 35 34 35 35 35 34 33 34 33 33 31 30 29
45 48 49 45 44 42 42 44 46 46 43 38 37 33 32 39 39 40 39 40 35 41 37 38 37 36 33 34 35 35 35 34 34 35 34 34 34 33 32 31 30 30 29 27
48 45 42 38 40 43 42 40 39 40 40 39 36 39 34 37 37 36 35 35 33 31 33 37 34 33 35 35 35 36 35 36 35 33 31 31 32 32 32 31 30 30 29 25
44 40 36 40 42 40 37 34 34 36 34 37 36 37 34 37 34 32 34 31 32 27 28 30 28 28 29 31 32 33 31 31 32 33 33 34 34 33 33 31 30 29 16 12
41 39 40 39 36 34 30 30 31 32 29 35 33 34 36 36 38 34 34 30 31 23 32 28 23 26 28 29 27 27 28 30 31 30 31 32 31 32 31 30 26 14 12 11
40 36 35 32 32 27 25 23 26 28 32 32 33 32 34 35 36 33 32 28 26 29 26 23 24 26 26 25 24 25 28 29 27 26 26 28 31 30 26 18 12 12 9 9
35 32 27 23 23 24 25 25 27 31 31 32 33 31 32 32 32 31 27 30 28 23 21 20 23 25 26 25 24 22 20 26 26 24 22 18 17 13 9 9 9 9 9 11
33 31 18 25 26 28 28 29 28 31 32 31 30 30 29 29 28 28 28 25 22 23 20 22 23 21 23 21 20 21 22 25 27 24 20 15 11 9 8 10 11 12 12 12
34 31 28 29 29 28 26 28 28 32 32 32 29 27 26 25 25 25 24 23 20 20 24 25 27 24 22 20 19 20 23 25 28 26 20 15 12 9 9 11 13 14 14 13
31 29 30 28 28 28 28 28 29 32 30 27 28 23 21 26 24 24 25 23 22 24 26 28 27 26 24 23 18 19 23 25 27 27 22 14 13 12 13 13 14 14 14 15

GFSNW_sfc_30mbdewp_012.txt.gz
Dewpoint
55 54 53 52 51 51 45 44 38 48 48 41 41 40 43 46 46 47 45 39 39 38 39 37 38 37 39 40 39 36 37 30 26 28 30 28 27 25 22 19 19 21 19 19
55 54 54 52 51 51 43 39 39 49 48 39 38 38 40 44 43 42 42 43 42 43 39 37 38 39 41 41 39 37 37 34 29 30 32 33 29 26 24 27 27 24 20 20
54 54 54 52 51 51 46 40 36 38 40 40 38 36 36 38 41 40 40 40 41 39 38 39 37 38 40 39 39 40 37 33 30 27 29 31 30 31 28 25 23 22 24 22
55 54 54 53 52 51 46 37 34 38 33 34 35 35 35 35 35 38 40 38 37 37 36 35 36 38 36 36 37 35 34 30 30 29 29 29 30 30 32 29 26 21 23 24
55 53 53 53 52 50 41 34 33 36 34 33 32 32 32 33 34 36 37 36 36 37 34 34 35 36 35 34 35 34 32 29 26 22 23 23 23 25 25 28 29 29 29 27
54 54 53 54 52 46 40 41 40 33 32 30 28 31 31 32 35 34 34 34 31 29 27 28 31 35 34 34 33 31 29 24 20 17 25 22 14 21 22 22 23 22 18 20
54 54 53 53 52 48 44 43 42 31 27 30 31 32 32 31 32 33 31 33 31 31 30 28 26 27 29 30 29 32 28 26 24 20 24 12 24 28 28 24 25 25 25 27
53 53 53 53 53 51 43 45 40 33 29 32 32 31 31 31 30 30 29 30 31 32 28 27 27 28 28 29 34 31 29 27 25 24 24 26 28 28 27 26 29 32 32 32
53 53 53 53 53 51 46 46 46 40 31 29 32 31 30 28 28 27 27 29 32 32 29 32 30 28 28 27 31 31 28 28 25 26 24 22 27 29 30 29 26 34 35 34
52 52 53 53 53 51 50 47 47 45 34 37 35 29 30 31 30 28 28 28 28 31 31 32 32 30 29 28 28 27 24 24 24 27 25 27 30 31 31 26 24 34 35 35
51 51 52 53 53 51 51 48 48 46 42 42 40 38 32 32 32 33 31 32 32 30 32 32 30 30 29 29 30 30 27 26 24 26 25 22 32 32 30 31 34 33 33 33
50 51 51 52 53 52 51 48 48 47 45 44 46 45 44 37 38 33 32 36 32 32 33 33 30 29 28 28 28 30 29 31 30 27 27 32 34 33 34 34 34 34 34 34
50 51 51 52 53 52 51 48 47 46 44 44 44 44 45 45 40 38 34 36 36 36 39 34 33 31 30 28 28 30 31 32 31 31 32 34 34 34 34 35 35 35 35 35
48 50 51 52 52 52 51 48 49 46 44 40 43 45 44 45 45 41 39 39 40 40 40 37 35 34 34 32 34 32 32 34 33 33 33 34 34 34 35 35 35 35 35 34
46 50 51 51 52 52 51 50 50 50 43 40 42 44 43 43 46 42 40 39 38 37 37 36 36 38 37 37 36 34 35 33 32 31 34 33 34 35 35 35 35 35 34 33
48 49 50 50 52 51 49 44 48 50 49 40 35 43 41 43 45 43 41 41 41 41 38 37 38 40 36 33 32 34 35 37 36 34 35 34 34 34 34 34 34 34 33 33
46 48 49 50 50 47 44 42 45 48 49 41 37 37 40 41 43 43 43 43 42 41 40 38 37 37 38 35 32 33 35 36 35 34 34 33 34 33 34 34 35 35 35 34
46 48 50 49 47 46 44 45 47 49 45 43 35 36 37 40 40 39 43 41 41 40 39 39 38 38 38 32 35 34 35 35 34 34 34 34 33 33 34 33 32 31 30 30
46 49 47 45 43 41 42 44 46 46 43 38 37 33 32 39 39 40 40 40 36 41 37 37 37 35 32 34 35 35 35 34 33 34 34 34 33 33 32 32 31 30 30 28
49 45 41 38 41 43 42 40 39 40 41 40 36 38 34 37 38 36 35 35 34 32 35 38 35 33 36 36 36 36 35 35 35 34 32 31 30 31 32 32 31 30 30 28
44 39 36 40 42 39 36 34 33 35 34 37 37 36 34 37 33 33 34 31 31 27 29 31 28 27 29 30 32 33 34 35 34 32 31 32 33 32 33 33 32 30 29 21
41 38 40 39 36 34 30 29 31 32 27 34 34 35 35 36 37 32 33 29 30 23 32 28 24 26 28 29 27 28 29 30 30 31 30 31 32 32 32 32 30 29 23 13
40 37 35 32 32 27 24 24 25 27 31 33 33 32 34 35 36 33 32 28 26 31 27 23 24 25 26 26 25 25 27 28 28 27 28 30 31 31 31 30 28 22 13 11
36 32 28 27 24 26 25 23 24 29 32 33 34 32 32 33 32 31 28 29 28 24 22 20 23 24 25 27 25 24 21 25 26 24 24 23 27 29 27 22 15 12 10 9
32 31 24 25 23 27 26 27 29 30 33 31 30 29 29 30 28 29 28 25 22 22 20 22 24 21 25 24 23 21 20 21 24 25 23 21 16 12 10 10 9 9 9 11
32 29 25 27 27 27 26 26 28 31 30 28 28 27 25 25 25 24 23 21 19 20 24 24 24 22 21 21 21 19 20 21 22 25 25 22 17 13 11 9 11 12 12 13
30 28 29 27 27 28 27 28 30 31 29 26 26 21 20 26 24 24 24 22 22 22 23 24 26 25 25 25 25 22 19 20 23 25 26 25 18 14 11 9 11 13 14 14

GFSNW_sfc_30mbdewp_015.txt.gz
Dewpoint
55 55 54 54 52 51 44 44 38 49 49 42 43 42 44 43 44 47 45 39 38 36 37 37 39 37 37 40 37 35 34 27 25 25 30 27 26 22 22 22 20 21 20 19
54 54 54 54 52 50 43 39 39 49 48 39 39 44 44 45 44 43 42 38 40 38 38 38 38 38 41 41 37 36 36 31 27 30 31 33 28 26 23 26 25 21 19 19
54 53 54 54 53 52 45 41 36 41 44 40 38 40 41 41 42 43 43 42 42 39 38 39 38 38 40 39 39 39 37 33 26 22 26 31 29 28 26 25 24 23 22 23
54 53 53 53 53 51 45 38 33 38 35 36 36 36 39 39 39 43 44 41 42 38 36 36 37 37 36 37 37 36 33 30 30 29 30 31 30 29 26 25 24 23 23 24
53 54 52 53 53 49 42 36 34 36 34 33 33 33 36 35 36 39 41 41 38 40 35 34 36 36 35 35 35 32 31 29 27 24 24 24 26 28 32 31 30 27 28 28
53 54 53 53 52 46 40 40 41 33 32 30 30 31 33 34 34 34 36 36 32 34 33 30 33 34 34 34 32 30 27 26 23 24 24 21 17 20 23 23 25 27 25 22
53 54 54 52 52 47 43 43 42 31 27 30 30 32 32 34 32 33 32 32 31 29 30 28 30 29 31 32 31 31 26 24 21 18 23 10 20 29 27 24 27 26 29 30
53 53 53 52 53 50 43 44 40 32 29 32 32 31 31 30 30 30 30 30 31 31 29 26 25 27 24 28 33 28 28 25 22 19 18 23 28 27 26 27 31 33 32 33
53 53 53 53 53 50 45 46 45 38 32 30 33 31 30 30 28 27 28 29 32 31 32 32 23 20 26 26 29 28 28 27 26 26 24 23 27 29 31 28 29 34 35 34
52 52 52 53 52 51 48 46 47 43 31 36 33 29 29 29 28 27 28 28 28 32 33 32 31 30 29 28 28 26 24 25 25 26 25 26 29 31 31 26 25 34 34 34
51 51 52 53 53 51 50 46 47 45 39 41 41 38 32 32 31 29 30 32 32 31 32 32 31 30 28 29 30 25 24 24 24 26 25 23 32 32 29 31 34 33 33 33
50 51 51 52 53 51 51 47 47 47 43 42 46 45 44 37 37 32 31 36 32 33 33 33 31 30 28 29 28 31 29 29 27 26 26 32 34 33 34 34 33 34 34 34
50 50 51 52 53 52 50 47 47 45 43 43 43 44 45 44 42 38 34 36 36 37 37 33 32 30 30 28 28 29 30 33 31 31 32 33 33 34 34 35 35 35 35 35
50 50 51 52 52 51 50 47 49 45 42 40 42 45 43 44 45 40 39 38 40 40 40 36 35 33 33 31 32 31 31 33 32 32 33 34 34 34 34 35 35 35 35 34
49 50 51 51 52 51 50 49 50 50 42 40 42 43 42 44 45 40 40 39 38 38 37 37 36 38 37 36 36 34 35 33 31 30 33 32 33 35 35 35 34 35 34 33
47 50 51 52 52 51 48 42 48 49 48 39 36 42 41 44 43 42 42 42 41 41 38 37 38 39 35 32 31 33 35 36 35 34 35 34 34 34 34 34 34 34 33 33
47 49 50 51 51 46 42 40 44 48 48 39 37 36 40 41 43 43 42 42 42 41 40 38 37 37 37 34 31 33 35 36 35 35 34 33 34 33 33 34 34 35 34 34
48 50 50 48 47 46 44 45 47 49 44 40 34 35 37 40 40 39 43 41 41 41 39 39 37 38 37 31 34 34 35 34 34 34 33 33 33 33 33 34 33 33 33 32
49 49 48 44 42 42 43 45 47 45 41 37 36 33 30 39 39 40 39 40 36 40 37 37 36 35 31 33 34 35 35 34 33 34 34 34 33 33 33 32 32 31 31 30
48 44 40 37 41 43 43 40 40 40 40 40 35 37 34 38 37 35 35 35 34 33 35 38 35 34 36 35 36 35 35 34 34 32 32 32 32 30 30 31 32 31 31 29
44 39 37 40 42 39 36 35 34 36 34 37 37 36 34 37 33 33 34 32 32 28 30 33 29 26 29 30 32 33 35 34 34 33 31 29 29 29 30 32 32 32 31 29
41 39 40 40 36 33 31 31 32 32 29 34 34 35 36 36 35 33 32 29 29 23 32 29 24 25 28 28 28 29 30 31 31 31 30 29 30 31 32 32 31 31 30 26
40 37 36 34 32 28 26 24 26 26 31 34 34 33 35 36 36 33 30 26 24 30 25 23 24 25 27 27 26 26 27 28 29 28 28 29 30 31 31 31 30 29 28 18
34 32 27 28 26 26 25 24 24 27 33 34 34 32 33 34 32 31 27 28 29 24 21 20 23 25 26 26 25 24 22 24 24 24 24 24 25 28 30 30 28 25 21 14
32 32 27 27 24 25 24 27 30 31 35 32 30 29 30 30 29 28 28 25 22 22 20 21 23 23 25 23 23 23 22 20 20 23 23 23 22 22 24 22 19 16 14 11
31 30 25 26 25 25 26 26 29 32 31 28 28 27 26 26 27 26 24 22 20 20 23 23 23 21 21 21 21 21 20 20 20 21 23 24 23 19 17 13 10 10 9 9
30 28 29 26 25 26 27 28 32 32 30 27 25 22 21 26 23 23 23 20 18 21 23 24 22 22 22 23 24 25 24 22 20 21 23 24 25 20 15 14 11 11 12 13

GFSNW_sfc_30mbdewp_018.txt.gz
Dewpoint
55 55 55 55 54 52 44 42 39 50 52 41 43 42 43 44 44 46 43 42 36 34 38 35 34 36 38 40 38 30 29 26 24 28 29 25 23 24 24 23 22 21 21 21
54 54 54 54 54 51 43 38 42 49 48 40 40 44 44 44 44 44 42 38 37 37 37 36 40 39 41 39 36 33 32 29 27 28 31 33 26 24 23 24 23 20 20 20
52 53 53 53 54 52 45 40 37 44 45 44 40 41 42 42 45 44 43 39 38 38 39 39 39 39 40 40 38 39 36 31 25 25 25 28 27 26 25 24 23 23 22 22
51 53 53 53 53 52 46 39 33 38 36 37 38 40 41 40 41 43 42 41 39 38 37 37 38 37 37 38 39 37 34 30 30 27 30 29 28 27 25 24 24 24 25 24
52 52 53 53 53 50 43 36 34 36 34 33 34 35 36 39 36 40 40 40 39 37 36 36 36 36 36 35 36 34 32 29 26 25 24 28 29 30 26 26 26 25 26 25
52 52 53 53 53 48 41 39 40 34 32 31 30 33 37 37 36 40 42 38 38 35 33 32 34 35 35 35 33 31 29 27 26 25 24 21 22 23 30 29 30 29 26 27
52 51 53 53 52 49 42 41 40 32 27 30 30 32 35 36 33 38 41 39 36 33 30 34 33 31 32 31 30 30 26 24 23 21 21 21 22 29 25 26 26 25 24 29
50 51 53 53 52 51 43 43 40 32 27 32 31 32 33 30 30 30 33 31 32 31 30 38 35 34 27 29 29 28 28 24 22 17 17 21 27 28 28 25 30 33 32 33
50 52 53 53 53 51 45 45 43 36 31 31 32 31 31 31 29 27 28 29 32 32 33 31 30 34 29 25 27 27 28 28 22 26 20 15 26 29 30 32 29 34 34 34
50 52 52 53 53 51 48 45 46 40 31 36 33 29 30 29 28 28 27 27 28 33 33 32 28 27 29 23 22 22 25 25 21 26 24 26 29 31 30 26 27 35 35 33
51 52 52 52 53 52 49 46 46 44 37 41 41 37 31 31 30 27 28 29 30 31 30 31 31 29 29 29 29 24 23 23 25 27 25 24 31 32 29 31 34 33 33 33
51 51 51 52 53 52 51 46 47 46 41 42 45 45 44 37 36 31 31 34 31 31 33 33 31 30 29 29 28 31 26 27 26 27 27 32 34 33 34 34 33 34 33 34
50 50 51 52 53 52 51 47 47 44 43 43 43 43 45 45 44 38 34 36 35 36 37 33 32 29 30 29 29 30 31 33 31 29 32 33 33 34 34 34 34 34 35 35
50 50 50 51 53 51 50 48 49 45 42 40 42 45 43 43 45 40 39 38 40 40 39 36 35 31 32 29 31 30 31 32 31 32 33 34 34 34 34 35 35 35 34 34
50 49 50 52 52 51 50 49 49 49 42 40 41 43 42 45 42 40 40 39 38 38 37 37 36 37 35 35 34 32 34 32 31 30 33 33 34 35 35 34 34 35 34 34
49 49 51 51 51 50 46 43 47 48 48 41 37 42 42 43 43 42 42 42 41 40 37 37 38 39 35 32 31 33 35 36 35 33 35 34 35 34 35 34 34 34 33 33
47 50 51 52 51 46 42 38 43 48 48 39 37 36 40 41 43 43 42 42 42 40 39 38 37 38 36 33 29 32 34 36 35 35 34 33 33 33 33 34 35 35 34 34
49 50 50 48 47 46 43 46 47 47 42 38 33 34 38 40 40 39 42 40 41 40 39 39 37 38 36 32 33 34 35 35 33 33 33 33 33 33 33 34 34 33 32 32
50 49 48 44 42 42 44 46 46 44 40 35 35 32 30 40 39 40 38 39 36 39 37 37 37 35 32 32 33 34 34 33 33 33 33 32 33 33 33 33 32 30 30 31
49 43 39 38 41 44 43 40 40 38 40 39 34 36 34 38 37 35 35 35 34 33 35 38 35 33 35 35 34 34 35 34 34 32 32 32 32 32 31 30 30 30 31 31
43 38 36 40 43 38 36 34 34 35 33 36 36 35 34 37 33 33 34 32 31 29 31 33 30 27 29 30 31 33 34 33 33 33 32 29 25 25 27 29 31 31 32 31
40 39 41 39 35 33 30 31 32 32 30 34 35 35 36 36 35 32 32 29 28 24 32 31 25 25 28 28 29 31 33 34 33 30 27 29 29 30 30 31 31 31 31 30
40 38 36 35 32 28 27 26 27 27 30 34 34 33 35 36 34 32 29 26 25 30 27 23 24 25 26 27 26 27 28 29 29 28 28 28 28 30 30 30 30 30 30 29
34 32 28 29 27 28 26 25 25 28 33 34 34 32 34 34 31 30 25 27 28 24 20 20 23 25 26 26 25 23 23 25 24 24 24 23 24 26 29 30 30 29 28 26
32 32 28 27 25 24 23 26 30 32 36 33 31 30 32 30 29 28 26 24 22 22 19 21 23 25 26 25 24 24 21 21 21 22 22 22 22 22 22 26 27 25 22 19
31 29 26 25 24 24 25 28 30 33 33 30 29 28 27 27 27 26 23 21 20 20 22 22 23 25 23 23 22 21 21 20 20 21 21 22 22 22 21 17 15 13 13 13
30 28 27 24 23 24 27 30 32 32 30 27 25 24 24 26 24 23 24 22 19 22 23 23 22 21 21 22 24 25 24 23 22 21 21 21 24 23 21 20 17 12 11 11

GFSNW_sfc_30mbdewp_021.txt.gz
Dewpoint
53 54 54 54 55 51 48 41 40 51 50 41 38 36 37 40 42 42 38 37 34 31 29 34 33 34 35 38 38 36 31 26 28 25 30 34 28 27 28 25 23 22 21 22
53 53 54 54 54 51 42 38 43 51 49 36 37 37 41 43 42 43 40 39 36 35 30 29 36 36 36 40 39 34 31 29 29 32 34 33 29 23 25 25 23 22 21 21
52 52 53 53 54 51 44 39 38 44 45 44 41 41 41 39 46 43 44 41 36 37 37 39 37 38 40 41 40 38 32 29 27 28 30 29 26 24 24 26 24 23 21 22
52 52 52 53 53 52 44 39 36 41 37 40 40 43 43 41 42 45 43 38 34 37 37 38 38 38 39 39 40 37 34 29 27 27 27 28 26 26 24 24 24 23 24 23
52 51 52 53 53 52 43 38 34 36 36 34 37 40 40 41 38 40 40 37 36 38 37 38 38 37 37 36 37 36 33 30 27 25 28 30 27 28 26 25 25 25 25 25
52 52 52 53 53 48 42 39 40 35 32 31 36 35 40 41 39 41 41 38 36 34 34 37 37 37 37 37 34 33 33 28 27 26 23 23 26 27 28 26 27 25 24 26
52 51 52 53 53 49 42 40 39 34 30 31 30 32 41 38 41 41 41 37 35 32 32 34 33 34 35 35 32 33 37 32 28 23 20 23 26 28 30 28 27 29 26 27
51 51 51 52 53 52 46 43 41 34 27 31 33 33 33 31 34 39 39 36 35 34 35 36 35 34 35 30 30 36 31 28 25 22 21 22 25 27 27 28 28 31 29 32
51 50 51 53 53 53 45 44 42 36 31 30 32 31 31 31 29 32 34 37 37 36 37 34 35 33 35 30 27 27 28 26 29 23 17 18 22 29 29 31 23 34 34 33
50 50 51 53 53 52 46 44 45 40 31 35 33 30 31 30 29 30 29 29 34 36 35 33 29 27 33 29 25 26 26 24 21 25 21 23 29 31 30 25 24 35 35 34
50 50 52 52 53 53 49 46 46 42 36 40 41 35 30 30 29 27 28 28 29 33 32 31 31 28 28 28 27 25 24 22 22 25 21 19 30 31 27 31 35 34 33 34
50 51 52 52 53 53 51 46 46 46 40 42 45 45 43 37 36 30 31 32 30 30 31 32 31 29 29 29 27 30 23 25 25 25 24 32 33 33 34 34 33 33 33 33
50 51 51 51 52 53 51 48 46 44 42 43 42 43 44 44 44 41 32 36 34 36 36 33 32 30 30 28 29 30 31 32 29 28 32 33 33 34 34 34 34 34 34 34
50 51 51 51 52 53 51 48 48 45 42 39 41 44 42 43 43 40 39 37 40 39 38 35 33 30 32 29 30 30 31 32 31 31 33 33 34 34 34 35 35 35 34 34
50 50 50 51 52 52 50 49 49 49 43 39 41 42 43 43 42 40 40 39 38 38 36 36 35 34 34 34 33 30 33 31 30 29 33 33 33 34 35 34 34 34 34 34
50 50 50 51 52 50 47 45 47 48 48 41 38 42 42 43 43 42 42 41 40 39 37 36 38 39 35 32 31 32 34 35 34 32 34 34 34 35 35 34 34 34 33 33
49 49 50 51 50 46 42 39 44 48 47 39 37 37 40 41 43 43 42 42 42 40 38 37 36 37 35 32 29 30 34 36 35 34 34 33 33 33 34 34 34 34 33 33
49 50 51 49 47 46 43 46 46 46 40 37 33 34 38 41 40 40 42 41 41 40 39 39 37 38 36 33 33 33 34 34 34 33 32 34 32 33 33 34 34 33 33 33
50 49 48 45 43 42 43 46 45 44 39 33 34 32 32 40 39 40 38 39 37 39 37 37 37 35 33 34 33 33 34 34 33 32 32 32 32 33 33 33 33 32 29 31
48 44 39 38 42 45 42 40 38 36 38 38 34 35 34 38 37 35 35 36 35 34 36 38 35 34 35 34 34 34 35 33 34 32 32 32 32 33 32 31 30 28 28 30
43 38 36 41 43 38 36 34 32 33 32 35 35 34 34 37 33 33 34 32 31 30 32 33 29 29 32 33 34 34 34 34 33 32 32 34 33 31 28 28 29 30 30 31
40 40 41 39 34 32 30 29 32 32 28 35 34 34 35 35 34 31 31 29 26 24 32 30 26 26 28 29 30 32 33 33 32 29 26 27 26 27 27 28 29 30 31 31
40 38 36 34 32 28 27 25 27 28 31 34 34 33 34 34 32 30 27 25 25 29 28 24 25 25 27 27 29 31 33 33 29 27 27 27 28 29 29 29 30 30 30 29
34 32 29 30 27 28 27 26 26 29 33 34 34 32 33 33 30 29 24 27 27 23 19 19 22 25 26 26 27 29 30 29 26 25 25 26 26 27 28 29 29 29 29 28
32 32 28 28 25 24 23 26 30 33 36 33 32 31 31 29 28 27 26 24 21 21 20 20 22 26 26 24 23 23 23 23 22 22 22 22 22 22 22 25 27 27 26 25
32 29 25 24 25 24 26 29 31 34 34 31 29 28 26 26 26 25 23 21 20 20 22 22 24 26 25 24 23 21 20 20 20 21 21 21 21 21 21 19 18 19 19 18
30 27 26 24 23 24 27 29 33 34 31 27 25 25 25 27 25 24 22 21 21 21 23 24 25 24 22 22 22 22 22 22 22 22 21 21 22 22 21 20 18 13 12 12

GFSNW_sfc_30mbdewp_027.txt.gz
Dewpoint
51 53 53 52 52 54 49 43 36 47 50 38 37 33 34 38 37 39 39 38 36 32 27 22 23 25 25 27 30 36 39 34 32 35 35 39 38 37 34 28 26 24 22 21
49 53 53 52 53 51 44 40 42 49 47 33 34 35 37 37 38 38 38 36 38 33 23 21 24 25 27 30 29 36 36 29 32 33 35 37 38 36 36 33 30 26 21 22
48 51 52 52 54 51 44 40 38 43 44 41 39 36 35 35 40 38 39 37 36 31 23 23 23 26 28 31 28 38 38 32 27 25 29 34 33 32 33 34 30 26 25 24
48 48 52 52 54 52 46 40 38 39 35 37 39 40 38 37 34 39 40 38 37 30 23 22 27 29 30 34 33 36 37 30 28 28 29 32 34 34 32 31 31 28 27 25
47 49 52 52 53 52 46 38 35 40 41 38 38 38 37 37 37 38 37 38 38 30 22 22 26 31 30 33 33 32 36 31 29 26 28 29 28 32 34 33 30 30 29 27
47 48 52 52 54 50 45 44 41 38 33 35 35 36 39 40 42 42 41 38 37 29 21 23 29 32 32 34 33 33 35 33 29 24 26 27 27 27 28 31 34 31 27 28
45 47 52 52 54 51 46 41 41 38 29 25 28 38 40 41 42 41 40 40 37 31 41 38 38 35 35 34 37 36 34 33 31 29 27 24 25 28 28 27 29 31 31 30
46 47 47 52 53 52 47 43 42 38 30 27 31 38 39 41 41 39 38 37 36 39 44 38 36 37 36 36 35 35 34 31 30 29 25 26 27 26 27 27 27 29 28 29
45 46 49 52 53 53 49 45 47 42 33 26 35 36 36 39 39 40 38 39 39 36 39 39 34 31 35 34 34 33 36 35 33 31 28 26 25 28 29 29 27 29 29 28
44 46 52 52 52 53 49 47 47 44 36 34 35 37 36 38 41 38 38 39 39 41 39 37 36 34 37 32 33 33 35 34 33 34 30 31 28 28 29 24 28 31 30 30
44 45 48 52 52 52 50 47 47 45 38 38 40 38 33 32 41 39 39 40 40 39 38 36 33 34 34 34 36 34 34 33 33 35 32 30 30 30 27 33 34 32 32 33
44 46 47 51 51 52 51 46 48 47 45 43 45 43 42 38 38 40 38 38 40 41 38 37 34 30 34 31 30 31 33 34 31 34 33 33 32 34 34 35 35 34 35 36
44 46 47 51 52 53 51 47 47 46 45 43 43 41 44 44 44 44 41 40 42 43 41 39 38 33 32 32 29 29 30 30 28 27 30 32 33 34 35 36 35 36 35 35
44 45 48 51 52 52 51 47 47 48 44 39 41 44 43 44 43 42 40 41 38 42 42 41 39 37 34 33 32 29 30 30 30 29 33 33 34 34 35 35 35 35 35 34
44 46 48 51 52 52 52 50 49 49 46 39 40 43 43 43 41 40 40 38 39 38 40 40 39 36 35 35 33 32 32 30 29 28 32 32 32 35 35 35 35 35 35 35
45 46 50 51 51 51 49 44 48 50 48 42 38 43 42 43 42 42 42 42 41 41 42 41 40 39 38 35 34 34 32 33 34 32 33 34 35 35 35 35 35 35 35 35
46 47 51 51 51 49 45 43 46 50 48 41 38 38 41 42 43 43 42 43 43 43 41 40 40 39 39 36 36 34 33 34 35 35 35 34 35 35 35 35 35 36 35 35
48 51 51 51 49 48 45 47 48 48 43 41 36 36 39 42 41 40 43 42 43 42 41 40 39 38 38 36 37 33 34 35 34 34 34 35 35 35 35 36 35 35 34 33
51 50 49 47 45 43 45 45 46 46 42 36 36 34 34 41 40 40 40 41 39 41 40 39 39 38 35 38 38 34 35 34 34 35 36 36 36 36 36 36 36 34 33 33
49 47 43 40 43 46 45 42 41 39 38 38 36 37 35 38 37 36 37 37 37 35 37 39 37 37 39 38 37 35 35 36 36 34 33 34 34 34 35 35 34 33 32 30
44 40 38 42 44 38 37 35 38 36 34 37 36 35 36 38 35 35 36 35 35 32 34 35 33 32 35 37 37 37 37 36 36 36 36 36 35 35 34 33 30 28 29 29
41 41 41 39 36 34 32 33 33 32 31 36 34 36 37 36 36 33 33 32 32 29 33 33 29 31 29 34 35 36 35 35 34 35 35 34 34 33 29 28 28 29 30 31
42 39 36 36 33 29 29 26 29 29 33 35 35 34 35 35 34 32 31 29 30 31 29 27 29 28 30 33 34 34 32 31 32 32 33 30 28 28 28 29 30 30 30 31
34 33 30 31 29 30 30 29 30 35 35 35 35 33 33 34 32 31 28 29 28 26 24 24 25 27 29 33 34 30 28 27 27 28 28 28 28 28 29 29 30 30 30 31
32 34 30 30 29 28 29 32 32 35 37 35 34 34 32 31 29 29 27 26 24 24 23 24 24 28 29 32 33 27 26 26 26 27 27 27 27 27 28 29 29 29 29 29
32 30 28 28 28 26 28 30 32 37 36 35 35 31 29 27 28 25 25 24 22 25 27 29 28 27 30 32 31 26 25 24 23 24 23 23 23 23 23 26 26 26 26 26
30 28 28 29 30 29 29 32 35 37 34 31 31 27 28 29 26 26 26 25 27 28 27 29 28 27 30 29 24 22 22 21 21 22 22 22 22 21 20 20 19 16 17 17

GFSNW_sfc_30mbdewp_030.txt.gz
Dewpoint
48 48 49 52 52 53 50 44 38 49 50 38 37 33 33 33 37 39 37 38 36 34 32 30 25 25 25 28 37 34 37 36 31 33 38 41 39 38 35 28 25 25 23 22
47 47 48 49 53 52 47 42 43 49 47 33 34 35 34 35 37 37 36 35 37 37 34 30 25 25 26 28 34 35 38 35 30 32 37 40 39 38 37 34 32 27 22 22
46 48 48 48 54 51 46 42 38 42 43 41 37 34 34 34 39 37 38 37 38 37 35 31 23 23 26 29 31 38 40 38 34 31 34 38 37 38 36 35 31 27 25 23
44 46 47 49 53 50 46 42 38 40 34 36 38 38 38 36 33 38 39 36 36 36 30 30 21 23 28 31 30 36 40 33 35 35 36 36 35 35 31 34 34 30 28 24
43 44 45 47 53 50 46 38 36 41 38 37 38 38 36 36 37 36 36 36 37 36 32 22 22 24 29 28 28 32 38 35 31 28 32 32 32 34 32 32 34 33 32 30
43 44 47 47 51 51 46 44 41 38 37 37 36 36 37 38 40 40 39 38 39 37 35 24 25 28 30 31 33 32 36 35 30 25 27 27 27 31 34 34 33 31 30 30
44 43 46 47 53 51 47 43 43 37 34 34 32 32 37 39 39 40 40 40 38 38 37 31 31 32 31 33 32 32 32 34 33 31 27 24 26 28 29 30 32 34 34 33
43 43 46 47 48 52 47 43 42 41 36 36 35 29 38 40 42 40 42 41 40 41 39 30 32 35 35 35 35 34 33 34 33 31 26 27 26 27 27 27 27 29 32 34
42 43 45 46 51 52 49 45 47 43 38 35 34 37 39 38 40 40 37 38 39 39 40 37 31 30 35 33 34 36 36 34 33 35 29 25 27 27 29 29 26 32 30 30
41 43 45 46 48 53 50 48 48 45 39 39 36 35 37 42 41 38 37 39 37 42 40 36 33 32 36 32 33 34 35 36 34 33 33 31 28 28 29 26 29 32 31 32
41 44 45 46 47 53 51 47 48 45 42 41 40 38 40 37 42 39 39 38 39 39 39 37 36 35 36 36 36 35 34 33 33 35 32 28 30 29 27 33 34 32 35 36
40 43 45 46 48 52 52 46 48 49 45 45 45 43 43 39 40 42 41 40 40 42 38 38 33 34 35 34 34 36 34 36 34 35 33 33 32 34 34 36 33 36 36 37
40 43 44 45 48 52 51 47 48 47 44 43 44 42 44 44 43 46 41 41 44 42 42 40 37 32 34 30 30 33 34 38 31 34 32 32 33 34 35 36 36 37 36 36
40 41 44 45 48 52 51 47 48 48 45 39 42 44 43 45 44 44 46 45 44 45 45 42 40 38 35 35 32 31 31 31 31 30 33 33 34 34 36 36 35 35 35 36
40 41 44 45 48 51 51 49 49 50 47 41 41 43 43 43 42 41 42 45 40 41 42 41 39 41 37 36 34 32 31 30 31 31 32 31 33 35 35 35 35 35 35 35
40 42 44 46 50 52 49 44 49 50 48 44 37 43 42 42 41 41 40 41 41 42 42 42 40 40 38 33 33 35 33 33 34 32 34 34 35 36 36 35 36 36 35 35
41 43 45 47 52 50 46 43 46 50 49 42 38 38 41 42 43 43 43 43 43 44 41 41 40 39 39 37 35 35 33 34 35 35 35 35 35 35 36 36 36 36 35 35
42 44 47 51 50 48 46 47 49 49 44 42 37 36 39 42 41 40 43 43 43 42 42 41 40 38 38 35 38 34 34 35 35 34 35 36 36 36 36 36 35 34 34 34
44 47 50 48 46 43 45 47 48 47 44 37 36 35 34 41 40 41 40 41 39 41 39 39 40 38 34 37 38 34 35 34 34 36 36 36 35 35 35 35 34 33 32 32
47 48 44 40 43 46 45 43 41 40 40 40 36 39 36 39 37 37 38 38 36 34 38 39 37 36 39 39 37 35 36 36 36 35 34 35 35 35 35 35 34 33 32 32
45 41 38 43 45 41 39 37 38 38 35 37 37 37 36 38 36 35 36 35 35 32 34 34 33 32 36 35 37 37 36 36 36 36 36 36 36 35 34 31 31 30 29 29
42 41 41 40 37 36 32 33 33 33 32 36 35 37 37 36 37 34 34 32 33 29 34 33 28 31 30 34 36 36 36 36 36 36 36 36 35 34 30 28 28 29 30 31
43 40 37 37 34 31 29 26 28 29 33 36 36 34 34 34 34 32 32 29 29 31 28 27 29 28 33 34 35 33 34 35 35 34 33 30 29 29 28 29 30 30 30 30
35 32 30 32 30 30 31 29 29 34 35 35 35 34 33 34 32 31 26 29 29 26 24 23 28 29 33 34 32 30 30 31 29 29 28 28 28 29 30 30 30 30 30 30
32 33 30 30 30 29 31 33 34 36 37 35 33 33 32 31 29 29 27 25 23 25 23 25 26 29 33 32 27 28 28 28 27 27 27 27 28 28 29 29 30 30 29 29
32 31 28 29 29 27 30 32 33 37 36 36 33 31 28 27 28 25 24 22 20 24 28 28 28 30 33 28 26 25 26 26 25 26 26 26 27 27 27 26 26 27 26 24
30 28 29 30 30 29 30 34 35 37 34 30 31 27 27 28 25 25 26 24 28 28 28 29 29 31 31 25 24 23 23 23 23 23 22 22 22 21 20 19 18 20 17 16

GFSNW_sfc_30mbdewp_033.txt.gz
Dewpoint
43 46 46 49 48 53 52 46 39 49 48 37 36 32 33 32 33 37 36 36 35 33 34 33 32 28 26 29 33 31 34 34 29 32 37 40 38 38 39 29 26 26 22 22
43 47 45 48 48 51 48 43 42 48 46 33 32 36 34 34 34 36 36 33 36 37 35 31 32 28 27 33 34 33 36 32 28 32 36 40 36 38 39 38 33 28 21 22
43 46 44 46 46 48 48 42 36 42 44 41 36 35 35 34 37 36 37 36 37 36 34 36 32 28 27 33 34 37 37 37 33 29 33 38 36 37 38 37 31 28 23 27
42 46 44 45 47 50 45 43 39 39 35 37 38 37 37 35 34 38 38 34 35 35 33 34 32 32 26 31 36 40 38 32 35 35 37 37 36 37 37 34 35 27 24 26
40 44 43 45 46 52 46 39 39 40 38 37 38 37 36 36 35 36 33 33 36 37 35 32 29 31 27 29 37 38 38 33 36 36 39 37 35 36 34 32 34 34 33 30
39 43 43 45 46 48 46 44 43 41 39 37 36 36 36 35 37 38 38 37 36 36 36 37 34 26 30 29 29 33 36 35 35 30 36 35 31 33 34 31 33 34 32 31
39 43 43 45 46 49 48 44 42 38 36 36 36 38 38 36 37 39 39 40 38 40 39 38 37 31 30 32 30 31 34 34 35 32 28 22 25 29 35 34 33 33 33 32
38 42 42 44 46 46 47 44 43 40 36 37 37 38 37 39 41 39 40 41 41 41 38 32 29 32 30 36 37 33 33 34 33 31 28 27 26 27 28 33 31 34 34 35
39 41 42 43 46 47 50 45 47 43 38 37 39 37 38 37 37 39 39 40 39 39 37 31 26 30 31 33 35 37 34 34 33 35 29 24 27 27 28 29 26 32 31 35
37 41 42 44 46 47 48 47 48 44 39 40 41 38 38 41 39 38 39 38 37 42 36 32 30 32 35 30 30 34 35 33 33 32 32 32 32 28 30 25 26 33 32 34
36 41 42 44 46 46 50 47 48 46 41 42 41 39 40 39 40 38 40 38 39 40 34 34 36 33 35 34 35 35 34 34 32 33 31 28 32 28 26 31 33 36 36 36
36 40 41 44 45 47 50 46 48 49 45 45 46 44 43 42 42 43 42 39 39 40 39 39 36 36 37 35 32 37 33 34 33 35 31 34 33 32 35 36 34 36 37 37
37 40 40 44 45 47 51 47 48 47 44 43 44 42 44 44 44 46 41 42 43 43 42 39 37 32 35 34 34 35 36 38 35 35 34 34 33 34 36 36 36 37 37 37
39 39 40 43 45 47 49 47 48 47 44 39 41 45 43 45 44 45 47 45 46 45 45 41 39 37 36 34 32 33 34 37 34 33 33 33 34 34 36 36 36 36 36 36
38 39 40 43 44 47 50 48 48 49 46 40 41 43 43 44 43 43 46 45 44 44 42 40 39 41 38 37 35 32 31 33 33 33 32 30 31 35 36 35 35 36 36 35
38 40 40 43 45 47 49 44 49 49 49 44 38 43 42 42 41 42 43 45 42 43 43 41 43 40 38 37 35 35 33 32 33 32 34 34 35 36 36 35 36 36 36 36
39 40 41 43 45 48 46 43 46 50 49 43 38 38 41 42 43 43 43 43 43 43 41 41 40 38 38 37 36 37 34 34 35 36 35 35 35 35 36 36 36 36 35 35
40 41 42 44 47 49 46 48 49 50 45 43 36 37 39 42 41 39 42 42 43 41 41 40 40 38 38 35 37 34 34 35 35 35 36 36 36 36 36 35 35 34 34 34
42 43 44 47 47 44 45 48 47 47 44 39 37 35 34 41 40 40 39 41 38 40 39 39 39 38 34 36 38 34 34 34 35 36 36 36 35 35 35 34 33 33 33 32
44 45 43 40 44 47 47 44 41 41 40 40 37 39 36 39 38 37 37 37 36 34 37 38 37 36 39 39 38 36 35 36 36 35 34 34 34 34 34 33 33 32 31 30
44 41 38 44 47 41 40 38 37 37 35 38 38 38 36 39 36 35 36 34 34 32 34 34 33 33 35 34 36 37 36 36 36 36 36 35 35 34 34 33 32 32 31 29
43 41 43 42 39 36 34 33 34 34 32 37 36 37 37 36 37 34 35 33 33 28 34 32 29 31 31 35 36 36 36 36 36 36 36 36 35 33 32 31 30 29 30 27
43 40 37 37 34 31 29 27 28 29 35 35 36 34 33 34 33 32 31 29 29 31 28 28 29 29 33 34 34 34 35 36 36 36 35 33 30 29 29 29 30 30 29 26
34 32 31 32 30 31 30 29 28 31 35 35 35 34 32 33 30 30 26 29 28 25 23 21 27 29 33 33 32 33 32 32 31 31 30 29 29 29 30 30 30 29 28 27
32 32 30 31 30 30 31 33 34 36 37 34 32 31 30 29 28 27 27 25 23 24 21 25 27 31 33 30 29 30 29 29 28 29 29 29 29 29 29 30 29 29 28 27
31 30 28 30 29 28 30 32 34 36 35 33 31 29 26 26 26 25 22 21 17 20 27 26 29 32 29 27 28 28 27 27 27 28 28 28 28 28 28 28 27 26 24 22
29 27 29 30 29 29 31 34 35 37 33 29 29 24 23 28 24 23 24 21 24 29 27 27 30 30 26 25 25 25 25 25 25 25 26 25 24 23 24 22 19 18 16 16

GFSNW_sfc_30mbdewp_036.txt.gz
Dewpoint
39 41 44 44 46 47 49 46 34 48 48 37 36 32 33 32 34 37 34 34 34 33 34 32 32 32 28 30 31 32 31 31 28 28 29 32 37 35 34 29 28 29 26 23
39 39 43 45 46 48 44 41 41 48 45 31 32 36 34 33 33 35 35 35 35 36 33 30 33 34 33 31 29 30 33 32 26 27 32 37 35 37 35 34 34 31 21 22
38 39 42 45 46 47 46 41 35 40 43 41 35 34 34 33 36 34 36 36 37 35 33 36 34 33 31 30 33 34 35 33 30 26 31 35 32 34 34 32 33 29 25 26
35 39 42 45 45 46 48 43 37 39 33 35 36 35 35 34 33 36 36 34 35 33 31 33 32 34 33 34 35 36 34 31 33 33 33 35 34 36 38 37 36 27 27 25
34 39 42 45 44 46 46 40 39 40 36 37 37 37 36 34 36 36 35 34 35 35 32 34 31 32 31 28 36 37 38 30 33 31 36 39 37 38 39 35 36 35 32 27
33 37 42 45 45 46 45 45 42 39 38 36 36 35 35 36 37 38 38 37 35 33 35 37 35 36 35 31 33 35 35 34 33 31 36 35 30 35 36 32 33 35 30 30
32 37 41 43 44 46 44 44 43 39 36 36 36 37 37 37 38 37 38 41 36 38 40 40 39 38 36 33 32 35 34 33 35 32 32 24 26 29 35 34 33 33 33 30
31 35 39 43 44 45 45 47 44 39 36 38 37 37 37 38 39 38 40 40 42 41 38 34 31 31 32 35 36 31 34 34 33 32 29 28 26 27 30 33 32 33 33 33
32 36 38 42 43 45 46 47 47 42 38 37 38 38 38 37 37 37 40 42 41 41 38 30 26 28 29 31 35 37 34 34 33 34 29 24 26 28 28 29 26 31 32 34
33 34 38 42 42 46 46 46 48 42 38 40 40 38 37 41 39 36 38 40 39 40 37 30 27 30 34 30 31 33 33 32 30 30 31 32 34 30 30 25 26 32 33 33
33 35 38 41 42 46 46 47 49 45 41 41 42 42 39 40 40 36 37 39 39 40 33 32 33 32 34 32 34 34 33 30 31 32 30 26 34 30 26 29 33 36 36 36
33 35 40 40 42 44 47 46 49 49 44 43 47 46 44 43 43 41 42 40 39 39 36 37 37 35 35 33 30 36 33 34 32 32 31 33 32 31 35 35 35 36 37 38
33 35 40 39 41 45 46 47 48 47 44 42 43 41 44 45 46 47 41 43 42 43 43 41 39 34 36 33 33 35 36 37 34 35 34 36 33 34 36 36 36 37 38 38
33 38 38 39 41 44 46 47 48 46 44 38 40 45 43 45 46 46 46 46 46 45 44 42 39 35 36 34 33 35 36 37 35 35 33 33 33 34 36 37 37 37 37 36
36 38 39 40 42 44 46 49 48 49 45 40 41 43 44 44 44 44 47 46 45 45 43 40 38 41 37 37 35 32 33 36 35 34 34 32 32 35 37 36 36 36 35 35
37 39 40 40 42 45 45 44 48 50 48 42 38 43 42 42 43 42 43 45 44 44 43 41 42 40 39 37 36 38 33 33 36 36 34 34 35 36 36 36 36 36 35 34
39 40 40 40 42 45 44 42 46 49 49 43 37 38 41 42 42 42 43 43 43 44 42 41 40 38 38 36 35 37 35 33 35 36 35 35 35 35 36 36 37 36 35 34
40 41 41 41 44 46 45 48 50 49 46 43 37 36 39 42 41 40 42 42 43 41 41 40 39 38 38 34 37 35 35 35 35 36 36 35 36 36 35 35 35 34 33 33
41 43 43 44 43 44 45 49 48 47 44 38 37 35 34 41 40 40 39 41 38 40 39 39 39 37 34 35 37 34 35 34 35 36 36 36 35 35 34 34 34 33 33 32
45 44 41 40 44 48 47 45 43 42 41 40 37 39 36 39 38 37 37 37 36 35 37 38 37 36 38 40 38 37 35 36 35 34 34 34 34 34 33 33 33 33 32 31
43 41 39 44 48 42 41 38 37 37 35 38 39 38 36 39 36 35 36 34 34 31 33 35 32 33 35 34 36 37 36 36 36 35 35 35 35 33 33 32 32 31 30 30
43 42 43 43 39 37 36 34 34 34 32 37 37 38 38 38 38 36 35 33 33 29 34 32 29 32 31 34 36 36 36 36 35 36 35 35 34 33 32 32 31 30 28 27
44 40 38 37 35 32 31 28 29 30 34 36 36 35 34 35 33 32 31 30 30 31 29 27 29 29 33 34 34 35 35 36 35 35 34 33 32 31 31 30 30 27 26 24
34 32 32 32 30 32 30 30 29 31 35 35 35 33 32 32 30 30 27 29 28 26 23 21 25 29 33 32 33 34 35 35 35 32 31 31 30 30 30 30 28 26 24 23
32 32 30 31 30 30 31 32 34 35 37 34 32 30 30 28 28 27 27 26 24 24 20 24 27 30 32 31 31 31 31 31 31 30 29 29 29 29 29 29 28 26 25 23
31 30 29 30 30 29 31 33 33 36 34 31 30 28 25 26 25 25 24 22 18 19 25 26 29 32 30 30 29 29 29 29 29 29 29 29 28 28 28 27 26 25 24 21
29 27 30 29 29 29 31 33 35 37 32 29 27 24 23 26 24 22 22 20 20 27 27 28 30 30 28 27 27 27 28 28 28 28 27 27 27 26 25 23 20 19 18 18

GFSNW_sfc_30mbdewp_039.txt.gz
Dewpoint
35 36 37 41 46 46 45 42 33 48 49 35 36 32 33 32 36 37 33 32 32 31 32 32 32 31 31 32 34 32 32 29 25 24 27 32 30 33 33 26 25 29 27 23
36 35 37 40 46 46 44 39 40 48 43 30 31 36 33 32 35 36 33 30 33 34 33 31 33 33 35 34 34 31 31 30 24 23 31 31 31 32 32 34 32 28 26 25
36 35 37 41 45 45 45 37 32 40 41 39 33 33 33 33 35 34 35 35 36 35 33 35 32 34 34 33 31 34 32 32 27 20 23 31 30 33 35 32 29 28 30 29
36 36 36 41 44 43 44 40 35 36 31 35 33 33 33 31 33 34 35 36 35 34 30 32 32 35 34 34 33 33 34 30 31 32 33 34 32 32 32 32 32 30 33 28
35 36 37 41 45 44 43 40 38 39 37 37 35 34 34 34 33 36 35 34 36 36 32 34 33 33 32 30 35 35 35 30 34 31 33 33 31 35 33 32 33 33 34 28
36 34 36 40 45 45 39 41 43 39 36 37 36 35 36 35 34 38 37 36 36 34 35 37 36 36 37 36 35 35 35 34 32 28 33 34 32 34 38 36 39 37 29 31
37 34 35 39 43 44 43 42 42 39 35 35 35 36 35 35 37 36 39 40 39 38 41 39 39 38 37 37 36 35 34 33 32 29 33 26 28 32 39 37 38 34 34 31
37 34 34 39 41 43 44 45 43 40 36 36 36 36 37 38 38 39 39 40 40 42 40 35 32 33 33 34 33 33 35 33 31 30 30 30 26 27 31 33 32 34 33 31
37 34 35 38 42 43 45 44 47 44 36 36 38 38 38 37 37 37 39 42 44 43 38 32 28 28 29 30 34 36 34 35 32 32 28 25 27 30 29 29 26 31 33 33
37 34 35 38 42 43 45 44 47 45 38 40 39 37 37 41 39 36 38 39 40 41 37 29 27 29 32 29 29 33 32 31 30 31 29 30 34 34 30 25 26 32 33 33
37 34 35 38 41 43 45 43 46 46 40 41 41 42 40 41 40 36 37 38 39 38 35 30 30 29 34 32 33 33 31 29 29 30 28 23 32 30 26 29 33 35 36 35
37 34 35 39 39 42 45 43 49 50 43 43 47 44 44 44 44 41 41 40 39 38 35 34 35 33 34 32 30 35 31 31 31 31 29 32 33 32 35 36 35 36 37 38
34 34 35 40 39 41 44 44 47 47 44 43 43 41 45 48 46 46 39 42 43 43 42 39 39 35 35 31 31 34 35 37 34 34 33 35 36 34 36 36 37 38 38 36
35 35 39 38 40 41 43 44 48 46 43 38 39 45 44 46 47 47 46 45 45 45 44 41 39 37 36 34 33 34 35 36 35 34 35 34 34 34 36 37 37 37 36 35
37 39 39 39 40 42 44 45 48 49 44 40 41 44 44 45 46 45 46 45 45 44 43 41 38 41 37 37 34 33 36 36 34 32 35 33 32 35 37 36 36 36 35 34
39 39 39 40 40 43 43 44 48 49 48 41 37 43 42 43 44 44 44 44 45 44 43 41 42 41 39 36 35 37 35 35 37 36 34 34 35 36 37 36 36 36 35 34
37 39 40 41 41 43 40 42 45 49 48 43 37 37 42 42 41 42 44 44 44 44 43 42 41 38 39 36 33 35 35 35 34 36 35 34 36 35 37 37 36 35 34 32
39 41 41 42 42 44 43 47 49 49 45 43 37 36 39 42 41 40 43 42 43 42 42 40 39 39 38 35 36 37 35 35 35 35 36 35 36 36 36 36 35 34 32 31
42 43 43 43 42 41 45 49 48 46 43 38 37 35 32 42 40 40 40 41 38 40 39 39 39 37 34 34 35 35 35 34 35 36 36 36 35 35 35 34 33 32 31 30
45 43 40 38 44 48 48 45 44 42 41 40 37 39 36 40 38 37 37 37 36 34 37 38 37 36 38 39 39 38 35 36 35 34 34 34 34 34 34 33 33 32 31 30
43 40 40 44 47 44 41 38 38 37 35 38 38 39 37 40 36 36 36 35 34 31 32 34 31 32 35 34 37 37 36 36 36 35 35 35 35 34 33 32 32 31 30 29
41 41 44 43 40 38 36 34 35 35 33 37 37 38 38 38 39 36 35 32 33 29 33 32 29 31 32 34 35 36 36 36 35 35 35 34 34 33 32 31 30 30 28 26
43 40 39 38 35 32 31 29 31 32 34 37 36 35 35 36 35 33 31 31 30 30 29 27 29 29 32 33 34 35 35 35 35 35 34 33 32 32 31 30 28 27 25 23
34 32 31 32 31 32 32 31 30 31 34 36 35 33 32 33 33 31 28 29 28 26 24 22 25 28 32 33 33 34 34 34 33 33 32 32 31 30 29 27 26 26 24 22
32 32 29 31 31 31 31 31 32 34 37 34 32 31 30 29 28 26 28 26 25 25 22 23 26 30 31 32 32 33 33 32 31 31 30 30 29 28 27 26 25 23 22 20
32 30 28 30 30 30 31 32 33 36 34 31 30 28 27 27 25 25 25 23 20 20 25 26 27 31 30 30 30 31 31 30 30 29 29 29 28 27 26 25 24 22 20 17
29 27 30 29 30 29 31 33 34 37 32 30 26 25 25 25 24 22 22 21 20 23 27 27 29 30 29 28 28 29 29 29 28 28 28 27 26 25 23 22 20 19 18 17

GFSNW_sfc_30mbdewp_042.txt.gz
Dewpoint
38 37 38 37 40 45 44 42 33 48 49 35 32 32 32 33 36 36 33 32 31 29 31 30 31 30 30 33 35 33 33 31 26 25 28 32 30 28 28 25 22 26 24 21
38 37 37 36 41 44 42 38 40 48 40 29 31 35 32 34 36 34 30 30 32 33 32 30 32 32 34 34 33 32 32 30 23 21 30 29 30 30 30 32 31 26 23 21
38 37 37 35 40 44 44 37 34 36 40 38 33 34 31 31 35 35 33 33 34 33 32 34 31 32 34 34 34 34 33 31 25 19 22 31 29 32 32 32 26 28 27 26
38 37 36 35 40 44 44 38 34 36 30 32 35 33 32 32 31 34 34 34 33 33 31 31 31 33 34 35 34 34 33 29 31 31 31 32 33 32 33 31 31 28 26 31
38 37 37 36 40 44 41 37 37 39 34 36 36 34 32 31 34 34 33 32 34 33 31 31 31 34 34 32 34 32 34 29 30 29 31 33 31 33 33 33 33 31 33 33
38 38 37 35 40 45 38 39 41 40 37 35 34 34 34 34 33 35 36 35 34 35 35 36 37 39 37 36 35 34 34 32 30 26 31 32 30 35 37 34 34 33 30 34
38 38 36 35 39 44 42 41 41 39 33 36 34 35 37 36 37 34 38 38 37 39 42 41 40 39 37 37 36 36 35 34 33 29 31 26 34 37 41 39 39 36 37 31
38 38 36 36 38 43 43 43 41 41 35 35 35 37 36 36 37 37 37 39 40 44 41 34 31 32 33 33 33 34 35 33 31 28 29 32 27 30 37 38 36 32 35 32
38 38 36 35 38 43 43 43 46 43 37 35 37 36 37 37 37 37 39 42 44 43 38 33 27 25 28 30 34 34 34 34 33 31 27 24 27 31 32 29 32 34 35 35
38 38 36 36 38 42 43 43 46 44 38 40 39 37 37 39 39 37 38 38 40 42 35 30 28 29 30 29 29 32 31 33 31 30 29 28 31 33 34 25 26 32 33 33
38 38 34 36 39 40 42 42 45 44 40 40 41 42 40 40 39 36 38 36 39 37 34 28 28 30 32 31 31 33 30 30 29 30 27 24 32 30 27 29 32 35 35 35
38 35 35 34 40 40 42 42 45 49 44 42 47 44 43 43 43 41 40 37 39 38 35 32 33 32 33 31 29 35 30 30 29 30 28 31 35 33 34 36 34 35 37 37
34 35 36 39 39 40 42 42 44 47 43 41 42 41 45 48 47 48 39 41 43 43 41 36 37 33 34 31 31 33 35 36 34 34 33 34 35 35 36 37 36 38 36 35
34 36 39 40 39 40 41 42 44 44 43 37 38 46 45 47 48 48 47 45 44 45 43 40 38 34 37 34 33 33 33 36 35 34 35 35 35 34 36 37 37 36 35 33
36 38 39 40 40 40 42 43 44 46 45 39 41 44 46 46 47 46 46 44 43 44 42 41 37 40 37 36 34 33 36 35 34 31 35 34 33 34 37 37 36 35 33 31
34 35 37 39 41 41 41 41 48 49 49 42 37 43 43 44 46 45 44 44 45 44 42 40 42 42 39 37 34 36 35 36 37 36 35 34 36 37 37 36 36 35 33 30
37 38 39 41 41 42 38 41 44 47 49 42 37 36 42 42 42 43 43 44 44 44 43 41 42 40 39 36 34 34 37 36 35 35 35 34 35 35 37 36 35 33 31 30
40 41 42 42 42 43 41 45 46 47 46 43 37 36 38 42 41 40 43 42 43 42 41 41 40 39 38 35 36 37 35 35 35 35 36 35 36 36 36 34 33 32 30 28
43 43 43 43 42 40 44 49 48 47 43 38 37 35 32 42 40 41 40 41 38 40 39 40 39 37 34 36 35 36 35 34 35 36 36 36 36 35 35 34 33 31 30 28
44 42 40 37 42 47 49 46 44 42 42 40 38 39 35 39 39 38 38 37 36 34 37 38 36 35 38 38 39 38 35 35 35 34 34 35 35 35 34 33 32 31 29 28
41 40 39 44 48 45 41 38 38 38 35 38 38 38 37 39 36 36 36 35 34 31 32 34 31 30 34 34 36 37 36 36 36 35 35 36 35 34 33 32 31 30 29 27
40 40 43 44 41 38 36 34 35 34 32 37 37 38 38 38 39 36 34 32 32 28 32 31 29 31 32 34 35 35 36 36 35 35 35 35 34 33 32 31 30 28 26 24
42 39 38 38 36 33 31 28 31 31 34 37 36 35 37 37 36 33 32 31 30 30 29 28 29 30 31 33 34 35 35 35 35 34 34 33 32 32 31 30 27 25 24 22
34 32 31 32 31 33 32 31 31 31 33 36 35 34 33 34 34 32 31 29 29 26 24 23 25 27 31 32 33 34 34 34 33 33 32 32 30 29 28 27 25 24 22 20
32 32 29 31 31 31 32 32 32 34 37 34 32 31 31 30 30 27 28 26 25 25 23 23 25 28 31 32 33 33 32 32 31 31 31 29 28 27 26 25 24 22 21 19
32 31 29 30 30 30 31 32 32 36 35 32 31 29 28 29 27 25 25 23 20 21 25 25 25 30 30 31 32 32 31 30 30 30 29 27 26 25 24 22 21 20 19 17
29 27 29 28 28 29 30 33 34 37 33 31 28 27 27 25 24 23 23 22 22 22 25 25 28 29 30 29 30 29 30 29 29 28 27 25 24 23 22 20 19 18 17 16

GFSNW_sfc_30mbdewp_045.txt.gz
Dewpoint
38 38 39 38 36 39 43 38 33 44 46 35 34 31 33 36 36 34 33 32 30 29 29 28 29 29 30 33 34 33 33 32 26 27 29 30 29 27 27 23 20 26 22 20
38 39 39 37 36 39 43 34 37 47 42 29 30 35 34 36 35 32 30 31 32 33 30 29 30 31 33 34 33 32 33 30 22 18 29 30 29 30 28 28 28 24 21 19
38 39 39 37 37 40 43 34 31 36 39 37 34 33 33 33 36 34 32 33 34 32 32 32 31 31 34 34 34 35 33 30 22 17 18 29 28 30 30 30 26 24 25 24
38 39 38 38 37 41 43 38 34 36 30 33 36 35 33 32 30 34 34 34 32 31 30 31 31 32 33 35 35 35 34 28 29 29 30 30 30 30 33 30 30 26 24 25
38 38 38 37 37 41 38 33 35 38 35 36 34 35 34 32 33 32 32 31 33 33 29 29 29 31 33 30 34 34 34 29 30 28 28 28 31 33 34 34 34 32 32 32
38 39 38 36 37 41 38 38 39 38 36 36 34 34 33 32 34 34 34 33 33 33 32 33 33 39 38 36 34 32 33 31 28 24 31 32 29 34 36 36 35 34 31 33
38 38 38 37 37 40 43 40 39 35 33 35 34 35 35 34 33 35 38 36 34 39 42 41 40 40 39 37 37 37 34 33 31 28 31 25 35 39 39 40 40 35 34 35
35 38 38 37 37 39 43 42 40 38 34 37 35 34 35 37 37 37 36 39 40 43 39 34 31 31 32 33 36 35 36 33 30 27 28 29 31 35 36 37 36 36 35 33
34 38 38 36 37 40 42 41 45 41 37 36 37 37 36 35 35 37 37 42 45 43 36 32 27 25 26 28 32 34 34 34 32 31 26 23 30 31 34 38 33 38 34 33
36 38 38 35 36 41 42 41 45 41 39 39 38 36 36 38 38 37 38 39 39 41 34 30 28 27 29 28 29 29 31 32 29 30 29 28 30 32 33 26 27 32 32 34
38 38 35 36 37 40 42 40 45 42 41 40 41 41 40 40 39 36 38 36 37 36 31 31 29 29 30 30 31 31 30 29 29 31 29 23 30 31 27 30 34 33 35 35
35 34 36 37 40 40 41 38 41 45 43 41 46 45 43 42 41 40 40 37 38 38 35 34 32 31 33 31 28 34 29 30 29 29 28 29 32 34 34 36 35 35 36 37
33 33 35 39 41 40 40 40 41 43 44 40 42 40 46 47 46 46 39 40 42 42 40 35 35 32 33 30 30 32 34 35 32 33 32 33 35 35 35 37 37 37 36 35
36 36 37 37 39 40 40 40 41 41 41 37 38 46 45 47 49 48 47 44 45 44 43 39 37 33 36 33 32 32 33 35 34 34 34 35 35 35 35 37 36 34 33 32
34 34 35 36 38 40 42 42 42 43 40 39 41 44 46 46 47 46 46 45 43 42 41 40 36 38 37 36 34 33 35 34 33 29 34 34 33 35 37 36 35 33 30 28
37 37 37 39 39 41 40 39 45 45 46 42 37 43 44 45 46 45 44 44 44 44 41 40 42 42 39 36 35 35 35 37 36 35 35 35 36 37 37 36 35 33 29 27
38 39 40 40 42 42 37 39 43 44 45 43 38 36 42 43 43 43 43 44 43 43 43 41 41 40 40 37 35 35 37 36 36 36 35 35 36 35 36 35 33 30 28 26
41 41 41 42 42 42 40 43 44 45 45 43 36 36 37 42 41 40 43 42 43 42 41 41 40 39 38 36 37 37 36 35 35 35 36 36 36 36 35 33 31 29 27 26
44 44 43 42 41 39 41 49 48 48 44 38 37 34 33 41 40 41 41 41 38 41 39 40 39 38 35 37 36 36 36 35 35 36 36 36 36 35 34 33 31 29 27 26
43 41 39 37 41 45 49 47 43 43 42 40 37 39 35 39 39 38 38 38 36 33 36 38 36 36 38 38 38 38 36 35 36 34 34 35 35 34 34 33 32 30 28 26
41 39 38 44 48 45 41 38 37 38 36 38 37 38 36 39 36 36 36 34 34 31 32 33 32 31 33 34 36 37 36 36 36 35 36 36 35 34 33 31 30 28 27 24
40 40 42 43 41 38 35 34 35 35 33 37 37 38 38 38 39 35 34 32 32 28 31 31 28 31 32 33 34 35 36 36 35 35 35 35 34 33 32 30 28 26 24 22
41 38 37 37 36 32 31 29 31 31 34 36 37 36 37 37 36 34 32 30 29 30 29 28 29 30 30 32 34 34 35 35 34 34 34 33 32 32 30 28 26 24 22 21
34 32 32 32 31 33 32 31 31 31 32 34 35 34 34 35 34 32 31 30 29 26 25 24 25 25 30 32 33 34 34 34 33 33 32 31 30 29 27 26 24 22 21 19
33 32 29 31 31 31 32 32 32 33 35 34 33 32 32 31 32 28 28 26 25 26 22 24 24 27 31 32 33 33 32 32 32 31 30 29 28 26 25 24 23 22 20 18
32 29 29 29 29 29 30 31 32 34 35 33 32 30 28 30 28 26 26 24 21 20 26 25 24 29 30 31 32 31 31 31 30 29 28 27 26 25 23 22 21 19 18 16
28 27 29 28 28 28 30 31 33 37 34 33 30 28 28 25 25 24 24 24 24 22 24 25 27 29 30 30 30 30 30 30 29 27 26 24 23 22 21 20 19 18 17 16

GFSNW_sfc_30mbdewp_048.txt.gz
Dewpoint
39 39 39 39 38 39 41 38 30 44 46 33 34 31 33 37 34 35 33 31 30 29 28 28 28 28 29 33 33 31 32 31 26 26 26 28 27 27 26 22 18 22 20 19
39 39 39 39 38 38 42 35 33 43 41 30 31 35 33 37 34 32 31 31 31 31 29 28 29 30 33 34 33 31 32 30 23 23 28 29 27 26 25 26 26 23 21 19
38 38 39 39 38 40 42 35 30 37 38 38 32 32 32 34 36 33 33 33 32 31 29 31 29 30 34 34 33 34 32 30 25 19 22 29 28 28 27 28 26 24 24 23
38 38 39 39 38 40 42 37 31 36 30 33 32 34 34 32 32 34 34 31 31 30 30 30 29 29 34 35 35 35 34 29 29 27 27 27 28 29 28 30 30 27 25 25
38 39 39 39 37 41 38 33 32 36 35 35 34 34 33 31 32 32 31 31 31 30 30 28 28 29 30 31 34 36 36 29 29 28 27 28 29 29 31 33 33 32 33 32
38 36 38 39 37 41 38 39 38 36 36 34 35 34 33 32 34 35 35 32 33 32 31 31 33 36 37 35 33 34 34 31 26 24 27 30 29 33 35 36 37 35 32 35
38 36 38 39 36 39 43 40 39 33 33 35 33 34 34 34 34 33 35 35 33 38 40 39 38 38 37 38 37 36 34 31 29 25 29 25 35 37 39 37 38 39 37 36
37 37 38 39 36 38 42 41 39 35 34 35 35 35 34 35 36 35 36 38 38 41 39 35 32 32 32 34 35 36 37 34 30 27 26 28 33 36 36 34 36 38 36 35
36 38 38 37 37 39 42 41 43 40 36 35 35 34 35 35 35 36 37 43 43 41 37 33 27 25 26 27 31 36 35 35 32 30 25 21 28 31 34 40 35 39 35 34
38 38 36 36 38 40 42 41 44 40 37 39 38 35 35 38 36 36 39 40 41 42 34 30 29 26 27 27 25 28 30 31 28 28 27 27 29 32 33 27 30 37 35 34
33 34 35 36 39 41 41 40 44 40 38 41 42 41 39 39 38 35 38 37 37 37 32 31 31 27 28 29 30 27 27 27 28 29 28 24 30 32 29 32 35 34 35 37
33 33 34 35 40 41 41 39 42 42 39 43 46 45 44 42 41 40 40 38 37 38 34 34 33 30 32 29 26 33 28 28 29 30 28 31 32 34 35 35 35 36 37 37
33 37 35 37 36 39 41 40 42 41 42 42 42 39 45 47 46 46 39 40 41 41 41 38 36 33 34 29 30 32 34 34 31 33 32 33 34 36 36 37 37 37 36 36
33 33 34 34 35 38 40 41 42 40 39 38 37 46 45 47 48 48 46 45 45 44 43 40 39 35 36 33 32 32 33 35 33 33 33 33 35 35 36 37 36 34 32 33
34 35 37 34 35 39 41 43 42 42 39 37 40 44 46 46 47 47 47 46 43 42 41 39 38 39 37 37 35 34 35 34 32 28 33 34 35 36 37 36 34 32 30 30
36 36 38 39 39 40 40 39 44 44 43 41 37 43 44 45 46 45 44 44 43 43 42 39 41 42 38 35 32 35 36 37 36 34 36 35 36 37 37 35 33 31 30 29
40 40 40 41 41 42 37 38 43 45 43 42 38 37 42 43 44 44 43 44 43 43 42 40 40 41 41 38 34 36 36 37 37 38 36 36 36 36 36 34 31 29 27 26
43 44 43 42 42 42 39 41 42 43 43 44 36 36 37 42 41 40 44 42 43 43 41 42 41 40 39 36 37 38 37 36 36 36 36 36 37 36 33 31 29 28 27 25
44 44 43 43 40 38 41 47 47 46 45 38 37 33 34 41 40 41 41 41 37 41 38 39 39 38 35 37 37 37 37 36 36 36 37 37 36 35 33 31 30 28 26 25
43 40 38 36 40 44 48 45 43 43 43 41 36 38 35 39 39 38 38 38 36 34 36 38 36 36 38 38 38 38 38 36 36 35 35 36 35 35 34 32 30 28 26 24
41 39 38 41 48 45 41 38 37 38 35 39 36 37 37 39 37 36 37 35 34 31 33 33 33 32 34 34 35 37 37 36 36 36 36 37 36 35 33 31 29 27 25 23
40 40 41 42 40 37 35 34 34 35 33 37 37 38 39 38 39 36 35 32 32 29 31 31 29 31 32 33 34 35 36 36 35 35 36 36 36 34 32 30 28 26 23 20
42 38 37 37 36 32 30 28 31 32 34 36 37 36 38 38 37 34 33 31 30 31 30 29 30 31 30 32 34 35 35 35 35 35 35 35 33 32 31 28 26 23 21 20
35 33 32 32 31 32 31 31 31 31 32 34 36 35 35 35 35 33 32 30 30 27 26 26 27 25 27 32 33 34 34 34 34 33 33 33 32 30 28 26 24 22 21 19
33 32 29 31 31 32 32 33 33 33 35 35 34 33 33 33 33 30 30 28 26 27 24 26 25 26 30 32 33 33 33 33 32 32 31 30 28 27 26 24 23 21 20 19
32 30 29 29 30 30 31 32 32 35 35 34 33 31 30 30 30 28 28 25 23 22 28 28 26 28 30 31 33 32 32 32 31 30 29 28 27 25 23 22 21 20 19 18
29 28 29 29 29 29 30 31 33 35 34 33 32 29 29 27 27 26 26 26 27 25 26 26 26 30 30 31 31 31 31 30 29 28 27 25 23 22 21 21 20 20 18 17

GFSNW_sfc_30mbdewp_051.txt.gz
Dewpoint
40 39 39 39 39 39 41 39 30 44 43 33 32 26 34 37 36 35 32 30 28 28 27 27 27 27 29 30 31 29 29 27 26 27 26 28 29 27 26 23 18 20 20 19
40 39 39 39 39 39 42 35 33 41 40 29 27 32 34 37 36 35 31 30 30 28 28 27 27 28 31 32 31 29 30 29 24 24 25 26 26 26 27 26 25 23 22 19
40 39 39 39 39 40 42 35 30 35 38 37 28 30 33 34 37 33 33 31 30 29 28 29 28 30 32 33 32 33 32 28 26 22 24 29 27 26 25 25 26 23 23 23
39 38 38 39 38 41 42 35 32 37 30 33 31 28 35 34 34 33 33 31 30 29 28 28 28 29 33 33 35 33 32 28 27 27 26 26 27 28 27 26 27 25 24 24
39 38 37 39 38 41 39 33 32 35 36 30 30 33 31 35 32 31 30 29 29 29 28 27 28 28 30 30 34 33 34 28 28 27 26 27 27 27 27 28 29 30 32 31
38 38 38 39 38 40 39 40 39 36 35 32 31 31 30 35 33 35 34 31 31 29 30 31 31 32 31 32 32 34 34 32 28 24 25 26 28 30 33 35 37 35 31 35
37 37 38 39 37 39 42 40 39 34 32 33 32 32 31 32 33 33 34 33 31 37 37 36 36 35 35 35 34 33 34 31 29 25 24 24 35 35 38 37 38 38 38 39
39 38 39 38 37 39 42 40 39 35 31 34 32 33 33 33 35 35 34 35 37 39 39 36 32 31 32 34 36 35 34 35 29 25 25 25 30 35 37 36 36 41 38 35
35 37 37 36 39 40 41 40 43 39 34 34 34 32 33 32 33 34 35 41 41 41 37 34 28 24 25 27 30 36 36 35 32 29 25 22 27 32 36 39 34 40 40 36
32 33 34 35 37 41 42 40 43 39 34 39 36 34 33 36 35 34 37 40 40 41 35 31 28 25 26 25 25 29 30 31 28 24 26 25 27 31 34 31 30 39 42 37
34 34 35 35 37 40 42 40 44 39 37 40 42 40 36 37 36 35 39 38 38 38 33 32 31 28 28 24 26 28 28 26 26 26 24 23 30 32 30 33 35 35 36 39
34 34 36 36 37 37 40 39 42 42 38 41 46 45 44 42 42 40 40 38 38 39 35 34 34 29 29 25 27 28 25 24 25 27 26 28 32 31 33 34 35 36 37 37
34 34 33 35 35 35 38 40 42 40 40 43 43 40 45 46 46 45 39 40 40 40 40 39 35 33 31 27 25 29 30 29 28 31 29 31 32 34 36 36 37 37 36 36
34 36 36 36 35 35 37 40 42 40 38 37 38 45 44 47 48 47 46 43 44 44 43 39 37 35 36 31 32 30 31 34 32 29 30 31 33 35 36 37 36 34 33 34
35 36 37 37 38 37 39 40 42 42 38 36 39 44 46 46 47 47 48 45 43 41 38 38 36 38 37 37 36 33 34 32 31 27 33 34 35 36 37 36 34 33 32 33
36 38 39 39 39 40 40 39 44 44 43 39 36 43 44 45 46 45 44 43 44 42 39 39 38 42 38 34 32 31 32 34 32 31 36 36 37 37 37 35 33 32 31 32
39 40 41 41 41 41 38 38 42 45 43 40 37 38 42 44 44 44 42 44 43 42 41 39 40 41 40 36 31 31 36 37 37 37 37 36 36 36 36 33 31 29 29 29
42 44 44 43 42 41 38 40 42 43 41 43 36 36 38 43 41 39 43 41 42 42 41 42 41 40 39 36 36 35 36 38 37 37 37 37 37 36 33 30 29 27 27 27
43 43 42 42 40 37 40 46 47 44 44 39 37 34 34 42 40 42 41 41 37 42 39 39 40 38 36 37 37 36 37 37 37 37 37 37 36 35 32 31 30 28 27 26
43 40 38 36 39 44 46 45 42 42 43 42 37 38 34 39 39 39 38 38 36 33 37 38 36 36 37 38 38 39 38 37 37 36 36 37 37 35 33 32 30 29 27 25
41 39 38 42 45 45 42 38 38 38 37 39 38 37 36 40 36 37 37 35 34 31 34 33 34 32 34 33 34 37 38 38 37 37 36 38 37 36 33 31 29 27 26 24
39 39 41 42 41 38 35 35 35 35 34 38 37 38 39 39 41 37 36 33 33 30 32 32 30 32 32 32 34 35 36 36 36 36 36 37 37 36 33 30 28 26 23 21
42 39 38 37 36 32 31 29 31 32 35 35 36 36 38 39 38 35 34 32 31 32 31 29 30 32 28 31 34 35 35 36 35 35 36 36 36 35 32 30 27 23 21 20
36 33 32 32 31 32 32 32 32 33 34 35 36 36 35 36 35 34 32 32 30 28 27 28 28 26 28 32 34 34 35 35 34 34 34 34 33 32 30 28 25 22 20 20
33 32 30 31 33 34 34 34 34 35 36 36 35 34 34 34 34 32 31 29 28 28 28 31 29 27 30 32 33 34 34 34 33 33 33 32 31 29 27 26 24 22 20 20
32 31 30 31 31 31 32 32 33 36 36 35 34 32 31 32 33 30 29 29 27 29 30 30 29 29 31 31 32 32 32 32 32 32 31 30 28 27 25 23 22 21 20 18
30 30 30 31 32 32 32 31 33 35 34 33 33 31 31 29 29 29 29 29 29 28 28 28 29 30 30 30 32 32 31 31 30 29 29 28 26 24 22 21 22 21 20 19

GFSNW_sfc_30mbdewp_054.txt.gz
Dewpoint
40 40 39 39 39 39 42 39 30 40 43 33 33 26 32 37 34 38 33 29 27 26 29 28 26 26 29 28 29 28 29 25 26 27 28 30 30 28 27 23 20 23 22 20
40 40 39 39 40 40 43 35 34 41 42 26 28 34 35 37 36 35 32 30 29 27 28 27 29 28 30 30 29 29 29 28 23 23 28 28 27 29 28 27 27 23 22 19
40 39 39 39 40 40 42 35 31 36 37 36 33 29 32 33 39 35 33 30 29 30 31 31 31 30 31 32 32 32 30 27 26 26 27 28 25 26 28 29 26 23 23 22
40 39 39 39 39 40 41 36 32 36 29 29 32 32 35 34 34 36 34 30 29 28 27 27 29 31 32 33 34 32 31 28 28 28 27 27 27 28 27 26 26 24 22 24
39 38 39 40 38 41 39 34 32 35 34 35 32 31 33 34 34 36 30 31 30 30 28 27 27 29 29 31 34 32 33 27 28 27 27 27 26 27 27 27 28 27 27 27
39 39 38 40 38 41 39 40 39 36 35 30 33 31 32 34 36 36 35 31 30 31 31 34 34 32 30 31 31 33 34 31 28 23 26 25 24 27 28 27 28 28 27 30
37 39 39 38 38 40 42 40 39 34 32 32 31 31 31 35 36 33 34 33 34 36 36 36 35 35 35 33 33 34 32 33 29 25 25 22 33 36 37 37 37 36 36 38
34 34 36 36 38 40 42 41 39 35 31 35 32 31 31 31 35 36 34 37 38 39 38 34 32 32 31 33 34 34 34 32 29 26 24 26 28 35 35 36 35 39 39 40
35 34 34 35 36 40 42 41 42 39 33 34 36 32 32 32 31 35 37 41 40 40 37 33 25 24 25 28 29 36 34 35 31 27 25 22 29 33 36 37 33 41 42 41
34 35 35 37 36 39 41 41 41 39 33 37 39 34 35 35 34 34 37 39 40 41 35 31 28 25 26 25 25 28 31 31 27 26 25 25 26 34 37 31 30 37 42 40
35 35 35 35 37 37 39 40 43 38 35 36 42 41 38 38 37 35 39 37 38 37 33 32 31 30 28 25 27 29 28 28 27 27 24 19 31 33 31 34 35 35 36 38
35 35 34 35 35 36 36 39 42 43 37 37 44 45 45 44 44 40 40 39 37 38 35 34 34 32 29 28 26 29 26 26 24 26 25 26 32 31 33 34 35 36 37 38
33 33 35 36 36 36 35 38 40 41 38 41 44 42 45 46 47 47 39 41 40 39 40 37 35 32 33 28 27 28 28 27 25 29 30 30 31 33 35 37 37 37 36 36
35 34 36 37 38 38 36 36 41 40 37 36 40 45 44 47 48 47 46 42 43 43 42 38 37 34 37 32 33 32 32 30 28 28 30 31 34 36 37 36 35 34 34 35
35 34 36 38 39 38 39 40 40 42 37 35 38 42 46 46 47 47 47 44 43 42 39 37 36 38 37 36 36 34 34 33 32 31 33 35 36 37 37 36 33 33 34 35
35 36 40 40 40 40 39 38 44 44 41 38 35 43 44 45 46 45 44 44 44 41 38 38 38 40 37 34 32 32 32 34 33 33 36 37 37 37 36 34 32 32 33 34
39 41 42 42 41 41 37 38 42 44 44 39 36 38 43 44 44 44 43 44 42 42 39 39 39 40 40 36 33 32 36 37 37 37 37 36 37 37 34 32 31 31 30 31
39 42 43 43 42 42 39 40 42 45 40 41 36 35 39 43 40 39 42 41 42 41 40 42 39 40 39 35 37 37 37 38 38 37 38 37 37 34 31 29 29 28 27 27
42 42 43 41 40 37 39 46 46 43 41 38 38 33 33 42 41 42 41 41 37 41 38 39 40 37 34 37 38 37 38 37 37 37 37 37 36 34 31 30 29 28 28 27
44 41 38 34 38 45 46 43 40 39 42 42 37 39 35 39 39 38 37 38 35 32 36 38 36 36 38 38 36 37 38 39 37 37 36 37 36 34 32 31 30 28 27 26
41 39 38 41 44 44 42 38 38 38 36 40 39 38 36 40 36 37 38 34 33 31 33 33 34 33 34 32 33 35 36 38 37 38 36 37 38 36 33 31 29 27 26 23
39 39 41 41 40 38 35 35 35 35 34 38 37 38 39 39 40 37 37 33 33 30 34 32 30 32 29 30 33 35 36 36 36 36 36 36 38 35 33 31 28 26 24 22
42 39 36 37 36 32 30 29 32 33 35 35 36 36 38 39 38 35 34 31 31 32 30 29 31 27 27 31 33 34 35 35 35 35 36 37 36 34 32 28 26 22 21 20
36 33 31 32 31 32 33 32 33 33 35 35 36 36 35 36 35 34 32 32 31 29 26 28 27 27 28 31 33 34 34 34 34 34 35 35 33 32 29 26 23 21 20 20
33 33 29 31 34 34 34 34 35 35 36 36 35 35 34 34 34 32 32 30 28 29 30 31 29 28 30 31 32 33 33 33 33 33 33 32 30 29 26 24 22 21 19 19
33 32 30 31 32 31 32 32 33 36 36 35 34 33 32 32 33 30 29 28 28 29 28 29 29 29 30 30 30 32 32 32 31 31 31 30 29 27 25 22 21 20 20 18
30 30 31 32 31 32 33 33 34 34 34 32 33 31 30 30 29 29 29 29 29 27 28 28 28 28 28 29 30 31 31 31 30 29 29 28 26 24 22 21 22 21 20 19

GFSNW_sfc_30mbdewp_057.txt.gz
Dewpoint
41 41 39 38 39 39 43 40 30 40 44 32 33 27 31 36 33 35 37 36 27 29 31 28 27 27 29 29 29 28 29 28 26 28 30 30 29 29 28 22 19 24 21 20
40 40 39 39 40 40 43 35 35 41 41 27 26 32 34 36 32 35 36 32 28 29 30 27 28 28 31 29 29 29 29 27 22 25 28 29 29 29 29 27 27 23 21 17
39 39 38 39 40 40 41 35 29 34 36 36 33 31 32 33 36 38 35 31 30 31 30 34 32 30 32 32 31 32 29 27 24 20 25 28 27 29 30 29 26 22 22 21
39 40 39 40 39 42 41 36 32 35 28 27 31 33 34 32 33 37 35 30 30 33 33 31 30 31 33 34 34 32 29 27 27 28 29 28 28 26 27 28 28 25 23 23
38 39 40 39 39 42 39 35 32 35 33 35 33 32 33 32 36 37 31 31 31 32 31 30 29 31 32 31 33 32 33 26 29 26 27 27 27 28 29 28 27 28 28 26
35 35 36 38 38 42 38 39 39 36 34 33 32 31 33 34 38 35 35 33 33 34 34 33 33 32 31 32 32 33 32 29 27 22 26 25 22 26 27 27 27 27 25 27
35 35 34 35 36 40 41 41 39 34 31 34 33 31 35 37 38 35 34 37 35 36 37 36 36 34 34 32 33 34 32 31 29 25 26 19 22 35 34 33 35 33 32 32
34 35 35 35 36 38 41 42 39 35 31 34 33 31 32 35 36 36 38 38 38 38 36 32 30 30 29 31 34 34 34 33 29 24 24 24 31 36 35 33 32 40 38 37
35 35 35 36 37 38 40 42 42 38 33 32 36 34 34 32 33 34 39 41 41 39 36 31 25 23 25 26 28 36 34 35 31 27 24 20 28 34 37 37 33 40 40 41
35 35 35 35 36 38 38 40 41 39 33 37 38 35 35 34 34 34 38 39 39 40 34 28 26 25 27 25 25 28 30 31 27 25 25 25 27 35 36 31 29 37 42 43
36 35 34 35 35 36 36 37 43 39 35 36 38 42 40 38 37 35 39 36 37 36 32 30 30 28 28 26 28 28 27 26 26 25 24 19 26 34 32 34 34 35 40 39
37 34 32 34 37 37 37 35 42 42 37 36 40 40 42 44 44 40 40 38 36 36 34 34 34 32 31 29 26 30 27 28 27 26 24 26 31 29 33 33 34 35 36 39
37 35 33 35 38 38 37 35 38 40 37 38 41 42 45 46 46 46 38 41 40 39 40 38 36 32 33 30 28 28 29 30 26 27 27 27 27 31 36 37 37 36 36 37
37 35 35 35 37 39 39 36 39 38 37 33 39 45 44 47 47 47 45 42 43 42 41 38 36 34 35 33 33 32 31 28 26 26 27 29 33 36 37 36 35 33 34 35
36 38 37 37 39 39 39 39 40 40 36 34 37 41 46 46 46 46 46 43 42 42 39 37 34 36 34 36 36 34 34 31 29 28 32 34 36 37 37 35 33 33 34 37
36 38 39 40 42 40 38 36 43 42 42 36 35 43 44 45 46 46 46 46 43 42 39 38 39 39 38 35 32 34 35 35 35 33 36 36 37 37 36 33 33 34 35 36
37 39 41 42 42 40 36 37 42 45 42 37 35 37 43 44 44 44 44 44 42 41 39 38 37 39 39 35 33 33 34 37 37 37 37 36 37 36 33 32 33 32 32 32
37 41 42 42 42 41 39 39 40 44 40 40 34 36 37 43 40 39 42 40 41 40 39 40 38 39 38 35 36 38 37 38 37 37 38 37 36 32 30 30 29 29 29 29
38 42 42 41 39 36 39 46 44 43 40 36 37 33 31 43 41 41 41 40 36 41 36 37 40 37 34 36 37 38 38 38 37 37 37 36 35 33 30 29 28 28 27 27
42 42 38 33 38 46 46 42 39 37 39 39 37 39 34 40 39 38 38 38 33 31 36 39 36 36 38 31 33 35 35 37 39 37 36 37 36 34 31 30 29 29 27 25
41 38 37 41 44 43 40 37 36 37 36 39 39 38 35 40 35 36 38 33 32 30 32 32 32 32 29 29 32 34 35 36 36 37 37 36 37 36 33 31 30 28 26 26
37 37 40 40 40 38 35 34 35 35 33 38 37 38 39 39 40 37 36 32 32 29 34 31 30 31 27 29 32 34 35 35 35 36 36 36 37 37 33 31 28 27 24 21
41 38 36 35 36 31 30 29 31 32 35 35 36 36 38 39 38 35 34 31 31 34 31 29 29 27 28 30 32 33 34 34 34 35 35 37 38 35 33 30 26 24 22 20
36 33 30 32 30 31 33 33 33 33 34 35 36 35 35 36 35 34 31 32 32 29 27 28 28 28 29 31 31 32 32 33 33 33 34 34 33 32 31 29 26 23 21 20
33 32 29 31 33 33 33 34 35 35 36 36 35 34 34 34 33 33 32 30 28 29 29 28 28 28 29 29 29 30 31 32 31 32 32 32 30 28 25 24 23 22 20 18
32 32 30 32 32 31 32 32 33 35 36 35 35 33 31 31 32 30 29 28 27 28 27 28 27 27 27 28 29 30 31 31 30 30 30 30 29 26 24 22 21 20 19 18
30 29 31 32 32 32 33 33 34 34 35 32 33 30 28 29 28 28 30 28 28 26 26 25 26 26 27 27 29 30 30 30 29 28 28 27 26 23 22 21 21 21 20 19

GFSNW_sfc_30mbdewp_060.txt.gz
Dewpoint
39 41 39 38 40 41 43 38 30 40 44 32 31 28 30 34 34 35 33 37 31 30 29 27 27 27 29 30 30 28 29 29 27 27 31 31 30 28 28 21 19 23 21 19
40 40 40 39 39 42 42 34 35 40 38 25 27 32 30 35 33 33 37 34 28 31 29 27 28 28 29 30 28 28 29 26 23 25 27 30 29 29 29 26 26 22 19 17
40 40 40 39 39 42 41 35 28 31 34 35 32 31 32 32 35 35 37 31 30 30 32 33 30 30 33 31 30 32 29 27 23 19 23 28 27 29 29 28 25 22 22 21
36 36 37 39 39 42 41 35 31 34 29 28 30 33 33 31 33 38 35 30 31 33 32 30 30 32 32 33 35 31 28 25 27 27 28 28 28 27 29 28 27 24 23 23
36 36 35 37 38 42 39 34 33 35 33 35 34 32 32 33 37 37 34 33 36 33 31 30 30 31 32 31 32 31 31 27 29 26 27 27 26 27 28 29 29 29 28 27
34 35 35 36 37 41 37 39 38 36 33 34 33 34 34 36 38 37 38 35 34 33 34 33 33 32 32 32 31 32 30 28 26 22 25 25 21 25 27 27 28 28 26 27
35 33 36 36 37 40 40 40 39 34 30 33 33 34 36 36 38 36 37 37 34 35 37 35 34 33 33 33 34 33 30 29 28 24 25 18 19 32 28 27 28 29 28 28
36 35 35 36 37 39 39 41 39 35 30 33 34 34 34 35 36 37 37 38 39 38 35 30 29 29 30 32 33 32 32 31 28 24 24 24 27 35 35 34 31 37 38 37
36 35 35 35 36 38 38 41 42 38 33 31 35 36 35 32 34 35 38 41 41 38 34 30 24 23 24 26 30 35 35 35 31 26 22 18 26 33 37 36 31 37 40 39
37 36 35 34 36 36 38 37 41 39 33 36 38 37 36 35 35 34 38 39 38 38 32 27 23 24 28 25 24 28 31 31 27 27 25 24 26 29 37 31 29 35 39 40
37 38 34 32 34 37 37 35 41 39 35 36 37 39 41 39 37 34 38 35 36 35 30 26 26 27 28 26 27 28 27 27 27 28 24 19 26 35 31 34 34 34 35 40
37 37 37 34 35 38 38 34 42 41 37 36 39 39 40 40 45 40 39 36 36 35 33 33 33 31 32 28 27 30 26 27 25 26 23 26 27 31 30 32 33 35 36 37
37 36 37 35 35 37 38 35 37 36 37 37 39 39 44 43 42 47 39 40 39 39 38 36 35 31 32 28 28 29 30 30 27 27 27 28 29 28 30 36 36 36 36 37
37 37 37 37 37 37 39 37 39 37 36 32 38 45 44 47 47 46 45 41 42 41 41 37 35 34 35 31 32 31 30 30 28 26 27 27 33 34 37 36 35 34 34 35
36 38 37 39 39 39 39 39 39 38 34 32 36 40 43 46 46 46 45 42 42 41 39 38 35 37 35 34 34 32 33 31 29 28 29 30 33 37 37 36 34 33 34 37
37 36 38 41 40 41 38 33 41 40 38 35 33 41 43 45 46 45 45 44 43 42 40 38 39 38 35 34 33 31 35 35 34 32 34 36 37 37 36 34 33 34 35 37
37 37 40 42 41 40 33 36 41 42 41 36 35 36 43 44 44 44 44 44 43 42 40 38 37 38 38 36 32 33 37 37 38 37 37 36 37 36 34 33 33 33 33 34
36 40 40 40 42 41 38 37 39 44 40 39 34 35 35 43 41 39 42 39 41 41 39 39 37 38 37 34 36 37 38 38 37 37 37 37 35 33 31 31 30 30 30 30
36 41 41 39 37 35 38 45 43 42 40 35 36 33 29 42 41 41 40 40 35 39 36 37 39 36 34 31 30 33 34 35 36 38 38 36 35 34 30 29 29 29 28 28
42 41 37 33 36 44 44 41 37 36 38 38 35 39 35 40 38 38 38 38 32 31 36 39 36 35 32 29 32 33 34 35 35 35 36 36 36 35 32 30 29 29 28 26
41 38 36 40 44 42 40 36 34 35 34 38 39 38 35 40 35 36 38 33 32 29 32 32 31 30 29 28 31 33 34 35 35 36 36 37 37 36 35 31 30 29 27 26
35 36 39 39 38 37 34 33 35 34 33 38 37 37 38 39 40 37 36 32 31 29 33 31 30 29 28 29 31 31 34 34 34 35 35 36 36 37 36 32 30 28 27 27
40 37 35 35 35 30 30 28 30 31 35 35 36 35 37 39 38 36 34 30 30 33 30 29 28 28 28 29 30 30 34 33 33 33 34 36 38 35 33 30 28 27 26 27
35 32 29 31 30 31 31 31 32 33 34 35 36 35 35 36 35 34 31 32 32 28 27 28 27 27 28 29 29 30 31 32 32 31 33 33 34 35 35 32 28 26 26 27
32 31 27 31 33 33 33 33 34 35 36 36 35 34 34 33 33 33 32 30 27 29 28 27 27 27 27 28 28 29 30 31 30 30 30 31 30 30 30 29 29 26 22 19
31 31 29 32 31 31 32 33 33 35 36 35 35 32 32 31 32 30 29 28 27 28 27 28 26 26 27 27 28 29 30 30 29 28 28 29 29 27 24 24 24 25 22 19
28 28 32 31 31 31 32 33 33 33 34 31 33 30 29 30 28 28 30 29 28 26 26 25 25 26 26 27 28 28 28 29 28 28 27 26 25 23 22 21 21 21 20 20

GFSNW_sfc_30mbdewp_063.txt.gz
Dewpoint
39 40 39 40 39 42 42 36 28 38 42 29 30 27 32 34 34 36 34 35 31 30 29 27 27 26 29 30 30 28 30 30 27 28 31 31 30 28 28 19 20 22 20 16
37 37 36 38 39 42 42 33 32 38 36 24 27 31 33 35 34 34 36 31 30 30 28 25 27 27 30 30 29 28 29 25 23 25 26 30 29 29 28 25 25 22 18 15
36 37 36 37 38 41 40 35 28 31 32 34 32 30 31 32 38 36 37 31 31 31 31 31 28 28 33 30 28 32 29 26 22 19 22 27 27 29 29 27 24 22 21 20
36 34 36 37 38 41 39 34 30 34 28 29 33 32 32 31 34 37 35 32 32 31 29 29 31 32 32 32 35 31 28 24 27 26 27 29 28 28 29 27 26 22 22 22
37 34 36 36 38 41 39 32 32 35 33 34 35 34 33 35 34 35 33 33 34 33 30 30 30 31 31 30 32 31 29 27 28 25 26 28 27 28 28 29 28 27 27 26
38 36 35 37 38 39 37 38 39 36 33 34 32 35 36 37 38 38 37 36 33 32 33 33 33 33 33 32 31 31 28 27 25 21 25 25 20 24 26 27 29 29 27 28
39 36 35 36 37 40 39 39 39 34 29 32 32 34 37 37 37 37 38 37 34 35 37 35 33 34 33 33 33 32 27 27 28 23 24 15 19 27 28 27 27 28 28 28
38 37 35 34 36 37 38 40 39 35 29 31 33 35 35 36 36 37 37 39 39 39 33 30 29 29 30 32 34 32 31 30 27 22 22 22 24 35 34 31 30 33 30 32
37 38 37 34 34 37 37 39 42 38 32 30 35 34 36 32 33 35 37 40 41 36 32 28 23 22 24 26 31 35 35 35 27 26 21 18 23 32 37 36 31 36 39 37
38 37 39 35 32 35 37 35 41 38 33 35 37 35 37 37 34 34 37 38 37 36 30 25 24 25 27 24 24 28 31 31 28 26 25 23 25 31 35 30 30 34 35 35
39 37 37 38 34 35 38 35 39 39 33 35 36 37 39 40 37 33 37 33 34 34 28 26 25 26 27 26 27 27 27 26 26 27 23 18 25 34 31 33 32 32 33 34
39 38 37 38 37 35 38 35 40 40 36 35 39 39 39 40 44 41 38 35 35 34 33 32 32 30 31 28 25 30 26 27 25 26 24 25 26 33 33 30 30 35 36 37
38 38 38 37 37 36 36 36 36 35 35 36 37 37 41 42 40 41 39 39 39 38 37 35 34 30 31 27 27 29 30 30 28 27 27 28 29 29 29 30 35 36 35 35
38 37 37 40 40 39 37 37 38 36 36 30 36 43 44 47 46 46 44 40 42 41 40 36 34 31 34 31 32 30 31 30 29 28 28 28 30 32 35 37 36 34 34 35
38 37 38 37 38 39 39 39 39 38 34 30 34 38 40 46 46 45 45 42 41 40 38 37 34 36 35 34 34 31 32 30 29 29 30 29 30 36 37 36 36 33 34 36
37 37 37 37 40 41 39 32 38 40 37 32 31 40 43 45 46 45 45 44 42 41 39 38 39 38 35 33 32 34 35 36 34 32 34 34 35 37 36 35 34 34 35 37
37 37 38 39 41 40 33 32 40 41 36 34 33 35 42 44 44 44 44 44 43 43 40 38 38 38 38 36 33 34 37 35 37 38 37 36 37 36 35 33 33 34 33 35
37 36 42 41 41 40 37 38 38 42 37 38 33 34 34 43 40 39 43 39 41 41 38 39 38 39 38 33 34 31 33 33 37 35 37 37 35 33 32 31 31 31 32 32
37 38 41 38 36 35 37 41 44 44 39 33 35 33 29 42 41 41 40 40 35 39 36 36 38 36 33 32 31 31 33 33 34 35 36 37 36 36 33 30 30 30 30 30
40 42 36 31 35 41 43 40 36 35 37 37 33 38 35 39 38 37 38 38 33 30 35 39 35 32 32 30 30 31 33 34 34 33 33 36 36 36 36 33 30 30 29 28
40 37 35 39 44 41 38 33 32 33 33 36 37 37 35 40 35 35 38 33 32 29 32 32 31 30 30 29 30 31 32 34 33 34 35 35 36 36 36 36 31 29 28 27
32 34 37 39 38 35 32 31 34 33 32 37 37 37 38 39 40 37 36 32 31 28 33 30 29 28 28 29 29 30 32 34 33 33 33 34 35 36 37 36 32 29 27 27
39 36 33 33 34 29 29 28 30 31 35 36 36 35 37 39 38 35 34 30 30 33 30 29 29 28 28 28 29 29 32 33 33 32 32 34 37 36 33 30 29 28 27 28
34 31 29 30 29 31 31 30 30 33 34 35 36 35 34 36 35 35 31 32 31 28 27 28 28 26 27 27 28 29 30 31 31 32 31 32 32 35 35 31 30 29 29 29
32 31 27 30 33 33 33 33 34 34 36 36 34 34 34 33 32 33 32 29 27 28 28 28 27 26 27 27 28 28 29 30 30 31 29 29 30 29 32 31 30 28 29 29
32 31 27 31 31 31 32 33 33 35 36 35 34 32 31 31 31 30 29 28 26 28 28 27 26 26 26 26 27 28 28 29 29 28 28 27 26 27 26 27 30 30 25 22
28 28 31 30 31 31 32 33 33 33 34 30 32 29 29 30 28 27 30 29 28 26 26 25 25 26 26 25 27 28 27 27 28 28 28 26 24 24 22 22 22 23 27 27

GFSNW_sfc_30mbdewp_066.txt.gz
Dewpoint
39 36 37 37 38 42 42 34 26 36 38 28 29 28 32 35 35 37 36 34 30 29 29 27 27 27 29 31 29 27 30 28 25 28 30 31 29 27 25 18 20 20 19 13
39 36 37 37 39 41 42 33 32 36 35 25 28 31 33 35 35 36 35 29 30 30 28 26 27 27 30 30 29 28 28 25 23 24 26 30 29 29 27 24 23 22 17 13
39 36 36 37 39 41 40 35 27 31 31 33 31 30 31 33 37 36 36 31 32 30 29 30 27 30 32 30 30 32 29 25 21 18 21 27 27 29 27 25 22 21 21 19
39 37 36 37 38 40 38 33 29 34 28 30 33 33 32 32 34 36 35 32 32 30 28 29 30 31 31 33 34 30 27 25 26 26 28 28 27 28 28 26 25 22 22 22
39 38 36 37 38 40 38 34 32 35 33 34 34 36 35 34 35 35 34 33 33 32 29 31 29 30 30 28 31 30 28 27 26 24 26 28 27 28 29 28 28 26 26 26
40 37 36 35 37 40 36 38 39 36 32 33 32 33 36 36 35 36 37 35 32 31 33 34 33 33 32 32 30 29 27 26 24 20 25 25 20 25 27 28 29 28 26 27
39 38 37 35 36 40 37 37 38 34 28 31 31 33 36 36 37 35 37 36 33 35 36 35 33 34 34 32 32 30 27 27 27 22 22 13 19 25 27 27 27 29 28 28
40 37 39 37 34 37 37 38 39 35 29 30 31 33 35 35 37 37 37 38 39 39 32 30 29 29 29 32 35 32 29 29 26 21 21 21 26 34 31 30 30 31 29 31
40 38 38 39 35 34 37 36 41 37 31 29 34 34 35 32 33 34 37 39 40 35 31 27 23 22 24 26 31 35 34 32 24 25 20 16 21 31 36 36 31 36 36 36
40 40 38 38 38 35 37 36 40 37 33 33 35 35 35 38 34 34 36 38 36 34 28 25 24 24 26 24 24 29 30 30 26 26 23 23 25 31 33 28 31 35 33 31
39 39 39 38 38 37 37 36 37 38 34 34 35 36 37 39 38 34 36 32 32 32 27 25 25 26 27 26 26 27 26 26 25 25 24 17 25 31 30 32 32 31 30 35
38 40 38 39 38 39 38 34 37 40 34 35 38 38 38 38 40 40 39 34 35 34 31 31 31 29 30 27 24 29 25 26 25 25 22 24 25 30 32 31 28 31 35 36
38 38 38 37 38 40 39 36 36 36 32 32 36 36 39 40 39 40 38 39 39 37 36 33 32 28 30 26 26 29 30 30 27 27 27 28 28 29 30 30 29 35 35 34
37 37 38 37 39 38 39 37 37 36 33 29 33 41 41 46 41 41 43 41 41 41 40 35 33 29 33 30 31 30 30 30 29 28 29 30 30 32 32 36 36 35 34 34
38 37 37 37 38 39 41 39 39 37 32 29 32 38 39 44 46 45 45 42 41 40 38 36 33 35 34 34 34 32 32 31 29 29 30 30 31 32 37 37 36 34 33 34
35 37 37 37 39 40 37 34 37 39 37 31 29 40 41 45 45 45 45 44 42 41 39 37 38 38 35 32 31 34 36 36 36 33 36 35 35 36 37 36 34 34 34 36
36 36 37 38 40 41 34 29 39 40 37 32 30 35 40 44 45 44 44 45 43 42 40 38 37 37 37 35 30 35 34 33 36 36 36 36 37 36 35 33 33 33 33 34
36 37 38 42 41 41 37 38 41 41 35 35 31 33 35 44 40 39 43 39 41 41 39 38 38 38 38 32 34 31 32 33 34 34 35 35 36 36 33 32 31 32 32 32
38 37 41 39 36 36 36 40 40 41 37 31 34 32 29 42 41 40 40 40 35 39 36 35 37 35 32 32 31 31 32 32 33 34 34 35 36 37 36 32 31 31 31 31
37 41 35 28 34 41 39 40 34 35 36 36 33 38 34 39 39 37 38 38 34 30 34 38 34 33 33 31 30 31 31 33 34 33 32 33 34 35 35 36 35 32 31 30
36 36 33 38 43 38 36 31 30 32 31 35 34 35 35 40 35 35 38 33 32 28 32 32 31 30 31 29 29 30 30 34 34 33 33 33 34 34 35 36 36 33 30 29
31 33 36 37 37 33 29 30 33 31 30 36 36 37 37 38 40 37 36 32 31 27 33 30 28 29 28 28 28 29 29 33 33 33 32 32 33 35 36 36 36 32 29 28
38 35 32 31 32 28 28 27 30 31 35 35 36 35 37 38 39 35 32 30 29 33 29 28 29 29 29 27 28 29 30 32 32 32 32 31 32 37 35 30 30 29 28 27
33 31 27 29 28 30 31 30 31 33 34 35 36 35 35 36 35 34 30 32 31 27 26 27 29 28 27 27 28 29 30 30 30 30 31 31 31 33 34 32 29 29 28 29
32 31 26 28 32 33 33 33 33 34 36 36 34 34 34 33 32 32 32 29 26 27 26 29 27 27 28 28 28 28 28 29 29 30 29 30 30 31 30 31 30 29 30 30
31 31 27 30 30 31 32 32 33 35 36 35 34 32 31 30 31 30 28 28 26 27 27 26 26 26 26 25 27 28 27 27 28 28 28 27 26 28 29 30 31 30 27 28
27 28 31 30 30 30 32 33 34 34 34 31 32 29 27 31 29 27 29 29 29 28 25 25 25 26 24 25 25 26 26 25 27 28 28 27 26 25 24 23 23 24 29 27

GFSNW_sfc_30mbdewp_069.txt.gz
Dewpoint
41 39 37 38 38 41 41 34 23 33 37 28 29 29 31 36 36 37 36 34 30 29 28 27 27 28 30 31 29 28 30 28 27 29 31 30 28 26 24 17 18 19 18 11
41 40 37 37 38 41 41 33 32 35 34 28 29 31 32 36 34 34 34 30 30 30 28 25 27 28 31 30 29 27 28 25 24 24 26 30 28 28 26 23 23 20 14 12
40 40 38 37 38 40 38 32 26 31 32 33 32 31 32 33 37 36 35 32 31 30 29 30 27 30 31 30 33 32 28 24 21 17 19 27 27 28 26 25 22 21 21 18
41 40 38 36 38 39 38 33 29 34 29 32 33 34 34 33 33 35 35 32 32 29 27 29 29 30 30 33 32 30 27 25 26 27 28 28 27 28 27 25 24 20 20 22
41 39 38 36 37 39 36 34 33 35 33 34 34 35 35 34 34 35 33 32 32 31 30 31 28 30 29 27 30 28 28 27 25 24 26 28 27 28 29 28 27 25 25 25
41 39 39 37 36 39 34 37 38 36 32 32 32 31 33 34 35 35 37 34 32 31 32 33 33 32 32 31 29 28 27 26 23 20 24 24 21 25 28 28 29 28 26 27
41 39 38 39 35 39 36 37 37 33 28 31 31 33 35 36 37 34 37 36 33 35 37 35 34 34 34 33 32 29 27 26 25 21 21 13 19 26 28 28 27 29 29 29
39 41 39 38 37 36 36 37 38 34 29 30 32 32 34 34 36 37 37 38 39 39 32 30 28 28 28 32 35 32 29 28 26 20 20 20 29 31 28 29 32 29 29 30
39 40 40 38 39 37 36 35 39 35 31 29 33 33 35 34 33 33 36 38 39 34 30 26 23 22 24 24 30 34 32 28 23 25 19 14 24 32 35 36 32 36 30 34
39 39 40 39 39 39 37 35 38 34 32 32 34 33 33 39 35 33 35 37 35 33 27 24 23 24 26 24 23 27 29 29 25 25 23 22 24 28 34 28 31 36 32 30
39 39 40 39 40 39 37 35 37 35 33 33 34 35 35 36 39 35 36 31 32 31 26 24 25 26 26 25 25 27 26 25 24 24 24 17 24 30 31 31 32 32 30 33
39 38 38 38 38 38 39 34 37 40 34 32 36 34 35 37 37 38 39 34 35 34 30 30 31 28 29 26 24 29 25 26 24 25 22 24 25 31 33 32 29 28 32 35
38 37 37 38 38 39 40 37 36 35 33 30 31 31 36 37 35 37 37 39 39 37 35 32 31 28 30 26 26 28 29 30 27 27 27 28 29 29 30 30 30 30 35 35
38 37 37 38 37 38 40 38 38 35 32 27 31 38 38 43 40 39 39 42 41 40 39 34 32 28 31 28 30 29 30 30 29 28 29 30 30 31 35 36 36 36 35 34
38 38 36 37 37 38 40 40 39 37 29 28 30 33 37 42 41 40 40 43 41 40 38 36 33 35 34 33 33 31 32 30 29 28 30 30 31 33 35 36 36 35 34 34
38 37 34 37 37 38 38 33 37 39 36 31 26 38 39 44 45 44 44 44 42 41 39 37 38 36 33 31 30 31 33 36 35 32 36 36 37 36 36 34 34 34 34 35
38 34 35 37 39 42 34 31 38 40 38 31 28 32 38 44 45 44 44 45 43 42 39 38 37 37 37 34 31 31 35 34 33 35 35 36 36 35 35 34 33 33 33 34
38 37 37 38 41 42 38 40 41 39 36 33 28 32 36 44 40 39 43 40 41 40 38 38 36 38 37 33 35 32 32 32 33 34 34 34 35 35 36 34 32 32 32 32
39 38 40 41 37 35 35 40 41 41 35 29 31 31 30 42 40 40 40 40 35 39 36 35 37 35 32 33 32 31 31 32 32 34 34 34 34 34 35 36 34 33 33 32
35 41 36 32 33 40 38 37 33 32 33 33 30 37 34 39 38 37 37 38 34 31 34 38 34 32 33 31 30 31 30 31 34 33 32 32 33 33 34 34 35 36 35 33
31 34 32 37 41 37 33 30 29 30 29 33 34 34 35 39 35 34 38 33 33 29 31 32 31 31 32 29 29 29 30 30 34 34 34 33 32 32 33 34 35 36 36 32
32 31 35 36 35 31 28 28 31 30 29 36 35 34 35 38 40 36 35 32 31 26 34 30 28 30 28 28 28 28 29 31 33 33 33 32 32 32 35 35 35 36 34 30
36 34 31 30 31 26 27 26 29 30 34 35 36 34 37 38 39 34 32 29 29 33 29 27 28 28 28 27 28 29 31 32 32 32 32 32 32 33 35 32 29 29 28 28
33 30 26 28 27 29 31 30 31 32 34 35 36 35 35 37 34 33 30 32 31 26 25 26 29 28 27 29 29 29 29 30 30 30 30 31 31 32 32 33 32 31 28 28
30 31 25 28 31 33 32 32 32 34 35 35 34 34 34 33 32 32 32 29 26 27 27 30 28 27 28 28 29 28 28 28 28 29 29 29 29 30 31 32 32 31 31 30
30 30 27 30 29 30 32 32 32 35 36 35 33 31 30 29 31 29 28 27 26 26 29 27 28 28 27 26 27 27 26 25 27 28 28 28 26 25 28 30 30 30 30 29
24 26 31 30 29 29 31 31 32 34 34 31 31 28 26 30 28 27 29 28 29 28 26 25 26 25 23 24 23 22 22 24 26 27 28 28 27 26 25 24 23 24 29 30

GFSNW_sfc_30mbdewp_072.txt.gz
Dewpoint
42 41 39 38 38 41 41 36 29 37 39 33 33 31 32 37 35 37 36 34 30 29 27 27 28 28 34 31 30 28 30 28 28 29 31 30 28 27 24 24 21 21 21 14
42 42 39 38 38 40 41 34 33 37 39 30 31 32 33 36 35 35 34 30 30 30 28 26 28 29 31 30 30 27 27 27 24 25 26 30 28 28 25 25 25 23 19 14
42 41 39 39 38 39 41 35 30 35 36 35 32 32 33 34 37 35 35 32 31 29 28 29 29 29 32 33 32 31 27 24 23 19 21 28 28 28 26 26 24 22 21 18
41 41 39 39 38 38 41 36 31 34 30 32 33 35 36 34 33 35 34 31 32 29 26 27 29 30 30 31 32 29 28 25 27 28 27 28 28 28 27 26 24 21 20 20
40 42 39 40 37 38 36 33 32 35 32 33 34 34 33 34 33 35 33 31 32 31 30 30 27 29 28 28 29 28 29 26 26 25 26 28 27 28 28 27 27 25 24 24
40 42 39 39 38 37 35 36 37 35 31 31 31 31 32 34 35 36 36 34 32 31 32 34 33 33 31 31 29 28 27 26 23 22 25 25 22 25 28 28 28 27 25 25
40 40 41 38 38 39 38 37 37 33 28 31 30 32 34 35 36 34 36 36 33 35 38 36 34 33 33 32 31 29 26 26 26 22 22 14 21 27 28 28 28 29 28 28
40 40 40 40 39 39 37 38 36 34 27 30 32 32 34 36 35 36 36 38 39 39 34 31 28 27 28 31 33 31 29 27 25 21 19 20 30 30 27 29 32 29 29 30
39 39 40 41 40 39 37 37 39 34 31 29 32 32 34 34 34 33 36 38 39 35 32 28 24 23 23 23 29 33 30 27 24 25 20 15 29 34 36 36 32 32 31 34
40 39 39 41 39 40 38 37 39 35 29 31 33 32 32 36 36 34 35 37 35 34 30 27 25 23 26 23 23 25 28 28 25 24 23 21 23 27 34 28 31 36 35 34
40 39 39 39 39 39 39 37 39 35 30 28 30 32 33 33 37 34 37 34 34 33 28 26 26 26 26 26 25 27 25 25 24 23 23 18 25 31 32 32 31 30 35 35
40 39 38 38 39 38 40 37 38 41 35 29 32 31 32 34 35 35 36 37 36 35 32 31 31 28 29 26 24 28 25 26 24 25 22 25 26 30 32 31 29 30 31 35
39 38 37 38 39 38 38 39 38 37 34 30 30 29 31 32 31 32 34 40 40 38 36 34 32 28 31 26 26 28 29 30 27 27 28 29 29 31 31 32 33 32 33 35
39 39 38 37 35 37 38 39 39 36 33 26 25 35 35 39 40 35 35 40 43 41 40 36 33 29 32 28 29 29 30 30 29 28 29 30 31 32 36 36 37 37 36 35
37 38 39 36 34 36 39 40 39 38 33 25 26 28 32 35 41 38 37 37 39 41 38 37 33 36 33 34 33 31 32 29 28 25 31 31 32 36 36 36 36 35 35 35
36 38 38 34 35 38 39 32 39 40 38 31 24 32 36 41 43 41 40 40 41 42 38 37 38 37 33 31 29 28 33 33 33 32 36 36 36 37 35 35 35 35 35 35
38 39 39 38 38 39 34 32 37 40 38 31 27 30 38 41 43 43 43 44 43 42 39 37 37 37 37 33 28 30 35 36 34 36 36 35 36 34 35 36 34 33 33 34
39 40 40 39 39 41 38 38 41 40 36 33 26 29 36 44 40 39 44 41 42 40 38 39 37 38 37 32 35 33 33 33 33 34 34 34 34 35 35 37 34 33 33 33
40 39 39 41 38 36 36 41 41 40 35 28 29 29 30 41 40 41 40 40 35 39 36 36 36 35 31 34 35 33 32 32 33 33 34 34 34 34 34 35 35 35 35 35
35 40 37 32 36 41 39 37 32 32 32 32 28 35 33 38 36 37 36 38 34 31 34 37 34 33 34 31 30 31 30 31 33 33 33 33 33 33 33 33 34 34 35 36
30 27 33 36 39 37 33 29 28 29 27 31 32 35 33 40 34 34 37 33 33 29 31 32 31 30 32 30 29 29 29 30 32 34 34 34 33 33 32 33 34 35 36 36
35 34 36 35 33 31 27 27 30 28 28 34 33 33 35 38 40 35 36 32 31 27 34 30 28 31 28 28 28 29 30 31 32 33 33 33 32 32 32 35 35 32 32 34
36 34 31 30 30 25 25 25 28 29 33 34 35 34 37 38 39 34 32 30 29 34 29 27 28 28 28 28 29 30 31 31 30 30 31 32 32 32 33 33 32 30 29 29
32 30 26 27 27 28 30 29 30 32 32 33 36 34 34 36 33 33 30 32 31 27 25 27 29 29 27 30 30 31 30 30 30 30 30 30 30 31 33 32 32 31 31 29
28 30 25 27 30 31 32 32 31 32 32 34 34 34 34 32 32 32 32 29 27 27 28 31 29 28 29 29 29 29 28 29 29 29 29 29 29 29 30 31 31 31 32 31
29 28 26 29 28 29 30 31 31 32 32 35 34 31 30 30 31 29 29 27 26 29 31 30 29 29 29 28 27 25 23 24 27 28 29 29 29 28 28 29 27 28 30 30
25 24 29 29 29 28 30 31 30 32 31 30 31 28 27 30 28 28 30 29 30 29 27 28 29 28 25 23 21 20 22 23 24 24 26 27 28 28 27 26 26 26 25 28

GFSNW_sfc_30mbdewp_075.txt.gz
Dewpoint
41 42 41 40 39 41 39 37 34 37 42 35 34 33 34 36 35 37 36 34 29 27 27 27 28 29 29 30 29 27 29 28 29 29 31 35 34 32 30 27 23 23 24 17
41 42 41 40 39 39 40 33 34 38 38 30 31 32 34 35 34 33 33 30 30 29 26 26 28 29 30 31 30 26 27 27 25 26 27 29 27 27 25 24 27 26 22 16
41 42 41 40 39 38 40 34 31 35 37 37 33 32 32 33 36 34 33 31 29 27 26 27 28 28 32 32 29 30 26 24 24 20 24 27 27 27 26 27 26 22 19 19
41 41 41 40 39 38 38 34 32 34 31 32 34 34 33 34 31 33 32 29 29 27 24 26 28 29 29 29 30 28 26 25 26 26 27 27 28 28 26 27 24 21 18 18
41 40 42 40 40 37 34 34 32 33 32 33 33 33 32 33 33 33 31 30 30 29 29 30 25 28 28 27 28 27 28 25 25 24 26 27 27 27 27 26 25 24 22 21
41 41 41 40 40 35 30 33 36 35 31 30 31 31 31 33 36 34 35 34 31 31 33 33 32 31 30 30 28 27 26 24 22 24 24 25 24 25 27 26 27 26 23 23
40 40 40 41 40 39 34 32 37 32 27 30 30 32 33 35 36 34 35 35 32 34 37 36 32 31 30 29 29 28 26 24 24 20 21 18 24 27 27 27 27 27 27 27
39 40 40 41 41 40 36 35 33 31 26 27 30 32 33 36 36 35 35 36 37 37 35 30 28 27 27 29 30 28 26 25 24 21 17 19 27 29 27 28 31 30 29 30
41 40 40 40 41 41 37 37 37 30 28 29 27 30 34 33 36 34 35 37 38 35 32 28 24 22 22 23 26 30 27 25 25 24 19 13 29 34 34 35 30 31 32 34
41 40 40 39 39 40 39 37 38 33 27 24 28 31 32 35 36 35 35 37 35 35 30 27 24 22 25 22 22 24 25 26 24 22 23 19 27 26 32 28 32 34 35 36
41 40 39 39 39 40 39 35 40 35 30 28 28 26 28 31 35 33 35 36 35 33 29 27 25 24 25 25 25 26 24 24 23 23 22 20 27 33 31 33 34 34 33 37
41 40 38 39 39 40 40 35 39 39 36 30 31 30 30 28 31 34 34 36 37 36 32 30 30 26 27 25 22 28 25 25 24 25 23 26 27 28 29 30 30 32 32 35
41 39 40 39 39 37 37 36 37 37 35 30 29 26 29 31 29 33 30 39 41 39 38 35 31 28 30 24 24 27 28 29 26 27 27 27 29 32 34 34 36 34 33 35
40 38 39 39 39 36 35 36 37 37 34 27 23 26 32 35 37 31 28 36 39 42 41 38 34 29 31 27 29 28 29 30 28 28 28 29 30 34 36 36 37 37 37 36
40 39 38 39 38 33 37 38 37 37 33 25 25 28 28 30 27 39 36 33 34 38 38 36 33 35 31 32 32 28 30 27 28 24 30 31 31 35 37 36 36 36 36 36
41 40 39 40 39 38 39 33 37 38 38 31 25 26 29 37 37 41 38 36 37 39 39 37 36 38 33 28 27 28 30 31 30 29 35 36 36 37 36 35 36 35 35 35
40 39 40 41 41 39 36 33 38 39 39 31 25 26 34 36 41 42 41 41 41 41 39 36 35 36 36 31 28 27 30 32 35 37 36 36 36 36 35 36 36 35 34 34
40 40 41 39 40 40 37 40 40 40 36 34 26 25 33 40 38 37 43 40 40 40 38 38 35 36 37 32 33 34 34 35 34 35 35 35 35 35 35 35 35 35 35 35
41 40 38 40 38 36 36 41 41 40 35 28 28 26 29 41 39 38 40 40 34 39 36 34 36 32 32 33 34 34 33 33 33 33 34 34 34 34 34 34 34 34 35 35
38 37 36 31 36 41 41 38 33 33 33 32 26 29 28 38 38 37 36 37 34 31 33 37 34 33 34 32 31 31 31 31 32 32 33 34 33 34 33 33 33 33 34 35
34 27 30 36 38 37 33 29 27 29 27 29 29 30 31 39 34 34 37 33 33 29 32 32 31 30 34 31 30 29 30 30 31 33 33 34 34 33 33 33 33 35 36 36
35 35 35 34 31 31 27 27 29 28 25 33 31 34 35 37 39 35 35 32 32 28 35 30 27 31 30 29 28 30 31 31 31 32 32 32 32 33 32 33 34 34 31 31
35 34 31 30 30 24 25 24 27 28 32 33 34 34 37 37 39 34 33 30 29 34 29 27 29 30 29 29 30 31 32 31 31 30 31 31 32 32 33 33 33 32 32 29
30 28 24 27 27 28 29 28 28 32 31 31 31 32 34 36 32 32 30 32 32 27 26 27 31 30 28 30 31 32 31 31 31 31 31 31 30 31 32 31 31 32 32 32
27 28 22 26 31 31 32 32 31 32 32 31 31 32 33 32 31 32 31 28 27 28 28 31 31 28 30 31 31 30 30 30 30 30 30 30 30 30 30 30 30 30 31 31
27 26 24 27 28 28 28 31 30 33 31 31 32 31 30 30 31 29 29 28 27 30 32 31 31 31 30 30 27 24 22 23 25 26 28 29 29 29 29 30 29 29 28 28
25 25 29 28 27 27 28 30 31 33 31 29 30 29 28 31 29 28 31 30 32 32 29 31 31 30 30 24 22 20 21 21 21 22 23 24 27 28 27 27 28 28 27 28

GFSNW_sfc_30mbdewp_078.txt.gz
Dewpoint
42 41 42 41 40 41 39 38 35 39 42 35 33 32 33 35 35 38 37 36 29 28 27 28 28 28 29 30 30 31 36 34 28 31 36 35 34 33 32 28 25 24 23 19
42 41 42 41 40 40 41 34 35 40 38 29 31 31 32 35 34 34 32 29 30 28 26 28 28 29 32 30 30 27 29 30 27 28 32 35 33 35 34 27 28 25 24 18
42 41 42 41 41 40 41 34 30 34 38 37 34 33 31 34 37 35 31 30 29 27 27 28 28 29 32 31 29 31 30 25 25 24 26 30 28 31 33 28 26 24 20 20
42 41 41 41 41 41 37 33 32 33 30 32 33 34 34 32 34 32 32 29 29 27 26 26 27 28 29 29 29 27 28 26 26 27 27 28 29 28 26 26 26 22 18 19
41 41 41 41 41 41 32 32 31 33 32 32 34 34 32 32 33 34 31 32 31 31 30 30 28 29 28 28 28 27 26 25 25 24 26 28 27 28 27 27 26 23 22 22
41 40 40 41 41 39 31 31 32 35 29 30 32 31 32 32 36 38 34 34 32 32 34 34 33 30 29 29 28 27 26 24 23 24 24 25 24 26 27 26 27 25 23 24
41 41 41 40 41 41 36 33 34 30 24 26 31 33 33 34 35 36 34 36 32 35 37 36 34 30 30 29 28 28 26 24 25 21 21 19 25 27 28 27 26 26 27 29
42 41 41 40 40 41 39 35 33 29 25 23 28 27 32 34 37 36 35 36 37 37 35 32 29 28 27 28 29 27 27 25 24 23 18 20 23 28 27 27 28 28 28 29
42 41 40 40 40 40 39 37 37 31 27 25 24 25 34 31 33 36 35 37 38 36 33 29 27 27 22 22 24 29 27 25 25 24 20 16 31 30 32 34 28 30 31 35
42 41 40 40 39 40 41 37 38 35 27 26 26 24 26 35 33 32 37 35 36 36 31 28 25 25 25 23 21 23 25 26 25 23 23 22 29 27 32 29 31 33 36 35
42 41 40 39 39 40 40 37 39 35 30 28 28 27 27 27 30 31 35 36 37 35 31 28 26 25 26 25 25 25 24 25 24 23 22 20 29 33 33 35 37 36 35 37
42 41 40 40 39 39 38 35 38 39 35 29 30 29 31 30 29 30 34 34 37 37 33 34 30 27 27 25 25 28 25 26 25 25 25 26 29 29 30 30 33 33 32 36
41 40 39 40 40 39 37 36 37 37 33 29 28 28 29 32 32 31 32 37 41 40 41 36 33 29 29 26 26 27 28 29 27 27 27 27 28 35 35 36 36 35 34 36
40 40 40 38 40 40 34 35 37 36 35 28 22 25 26 29 32 30 30 33 34 37 40 37 34 29 30 28 29 27 30 30 28 28 28 29 32 36 36 37 37 37 36 35
41 41 41 39 39 40 39 39 39 39 35 27 27 30 29 30 30 31 32 29 28 35 36 36 33 35 32 31 32 29 30 28 28 28 31 31 34 36 36 36 36 36 36 36
42 41 40 40 41 42 38 33 38 38 38 32 25 27 24 25 31 27 36 38 33 37 38 37 38 38 33 29 27 27 29 30 31 32 36 36 37 36 35 35 36 36 35 35
41 40 40 40 41 40 33 32 38 40 39 31 26 25 31 34 36 38 40 37 38 39 38 36 36 36 35 32 28 27 29 31 36 37 36 36 35 35 35 36 36 36 36 35
40 41 40 39 39 40 38 39 40 40 36 33 24 24 27 38 37 37 41 39 39 40 37 38 36 37 35 31 33 34 35 35 34 35 35 34 35 35 35 35 35 35 35 35
41 40 37 40 38 36 37 41 41 41 35 28 27 24 24 36 38 37 39 39 33 39 36 36 35 33 32 32 32 34 34 33 34 34 34 34 34 34 35 34 34 33 34 34
39 36 34 32 36 40 40 38 33 33 33 32 26 26 26 32 36 35 35 37 34 31 33 37 34 32 34 32 31 31 31 31 32 32 33 34 33 33 33 33 33 33 34 35
35 32 30 34 37 34 34 29 28 28 26 29 29 28 27 35 31 33 37 33 33 28 31 32 29 28 32 31 30 30 30 30 31 32 33 33 33 33 32 32 33 33 35 35
36 35 36 35 29 29 27 26 29 27 26 31 30 32 33 34 39 34 35 31 32 27 35 30 25 30 30 29 29 30 31 31 31 31 31 31 32 32 32 32 33 33 33 32
34 34 31 30 30 23 24 24 27 27 31 31 31 29 34 36 37 34 33 30 29 34 29 25 27 30 28 29 31 31 31 31 30 30 31 31 31 32 33 32 32 32 32 33
28 27 21 25 26 27 28 27 28 31 31 31 30 29 31 35 32 32 29 32 32 26 25 26 31 32 29 31 31 31 30 31 31 30 31 31 31 31 32 31 31 31 31 32
27 26 19 22 28 31 32 31 31 32 33 30 29 30 31 31 31 32 31 28 25 26 28 31 32 31 31 31 31 30 30 30 30 30 29 29 30 30 30 31 30 30 30 30
27 25 23 24 25 27 26 28 28 32 31 32 30 30 30 30 31 29 29 28 27 30 32 32 31 31 32 31 27 22 22 23 23 24 26 27 28 28 28 29 29 28 28 28
24 24 26 25 25 25 25 27 28 31 30 27 28 27 26 30 29 28 31 30 31 32 30 31 32 31 31 28 26 20 20 20 20 21 22 20 20 26 22 21 25 26 27 27

GFSNW_sfc_30mbdewp_081.txt.gz
Dewpoint
43 42 41 41 41 43 41 38 33 39 44 31 33 31 32 35 34 37 36 36 34 28 28 29 28 29 32 36 37 35 35 30 27 30 35 35 34 32 31 23 25 24 26 22
43 42 41 42 41 42 41 35 34 38 37 29 31 33 32 34 35 34 33 32 30 29 28 28 29 30 32 30 30 31 34 30 25 27 33 35 33 34 33 30 29 23 22 23
43 42 41 42 42 42 40 35 28 32 35 37 33 33 32 32 36 36 34 31 31 30 28 29 28 29 30 31 29 34 35 32 29 23 25 32 31 33 32 27 25 26 23 20
42 41 41 42 43 43 36 32 31 31 28 30 32 34 33 31 33 35 34 32 33 31 29 28 28 29 29 29 29 27 28 28 30 28 29 30 30 33 32 28 28 24 21 22
42 41 41 42 42 41 31 28 29 31 31 32 33 31 30 31 33 35 34 34 34 32 31 32 29 29 28 28 29 27 27 26 25 25 28 29 28 30 32 31 32 26 22 22
42 42 41 41 41 40 32 32 32 33 28 26 31 29 31 31 34 37 38 35 34 31 34 35 35 35 30 28 28 27 25 25 24 22 25 26 24 27 27 27 27 25 21 24
43 42 41 41 40 41 38 34 33 27 23 24 23 29 29 32 34 33 37 36 34 36 37 36 34 33 30 29 29 28 25 25 25 21 22 19 25 27 28 27 27 27 27 27
43 42 41 41 40 41 39 36 33 30 22 25 24 24 29 34 36 36 38 36 37 38 36 32 29 29 28 29 29 27 27 26 23 20 19 22 24 26 27 27 26 27 28 31
44 42 41 40 40 40 40 38 37 32 28 23 26 24 31 30 30 32 37 39 37 37 33 30 26 24 22 22 26 29 28 27 25 23 19 16 30 29 32 34 28 31 29 34
43 42 41 38 40 40 40 38 38 34 29 26 26 24 22 31 32 29 34 35 35 37 32 28 24 25 25 24 22 22 25 26 24 23 22 25 32 29 35 29 28 35 35 35
43 42 41 40 41 40 40 36 39 34 30 28 29 29 28 27 29 27 33 34 36 35 32 29 28 26 26 25 26 26 24 24 23 23 22 19 30 33 32 36 35 36 35 37
43 42 41 40 41 40 39 35 37 38 35 29 31 30 30 29 28 28 33 33 34 38 33 34 31 28 28 26 26 28 25 26 25 25 25 27 29 30 31 31 33 33 33 36
42 41 40 41 39 40 40 35 36 36 34 30 29 25 29 32 33 32 28 35 38 35 38 37 34 27 29 27 28 27 28 29 26 27 27 27 33 35 36 37 36 35 36 36
41 40 41 41 41 39 41 36 36 36 35 27 25 27 27 29 30 33 32 32 33 32 37 36 35 30 30 28 29 27 28 29 28 28 28 33 35 36 37 37 37 36 36 35
41 42 42 41 41 41 42 40 39 39 34 27 28 31 30 30 30 29 31 30 29 31 35 36 33 35 32 31 32 29 30 28 28 27 33 31 35 36 36 36 36 36 36 36
42 42 41 41 41 41 38 30 38 39 40 32 25 29 28 27 28 30 32 30 30 32 36 35 37 38 34 29 28 28 29 30 31 32 36 36 36 35 35 36 36 36 35 35
41 41 41 41 41 40 34 28 36 40 38 31 24 24 27 33 31 29 31 38 35 36 36 36 36 36 35 33 28 28 31 34 36 36 36 36 36 36 35 35 35 36 36 36
41 41 41 40 39 40 38 39 40 41 36 33 24 22 26 37 35 35 39 36 37 38 37 37 36 37 36 32 33 34 35 35 35 34 35 35 35 35 35 35 35 34 34 35
41 40 39 39 37 36 36 41 41 41 35 26 26 23 20 34 33 36 37 39 33 38 34 34 36 33 31 31 32 33 34 33 34 34 34 34 34 35 34 34 34 33 33 34
38 35 33 30 35 38 39 37 33 33 32 32 25 27 24 30 31 33 35 37 33 30 34 37 35 33 34 32 31 31 31 32 32 32 33 34 33 33 33 33 33 33 34 35
34 30 30 33 36 33 32 26 27 28 26 29 29 30 27 33 29 31 36 33 34 28 29 31 29 29 32 31 30 30 30 31 32 32 32 33 33 32 32 32 33 33 34 33
37 35 36 35 31 28 25 24 28 27 25 31 29 31 32 32 36 32 34 31 32 26 34 30 26 29 30 29 29 31 31 31 30 31 31 31 31 32 32 33 33 33 33 32
34 32 29 30 29 22 23 21 23 20 29 32 31 28 32 34 36 33 31 29 27 33 29 26 26 29 29 29 31 31 31 31 30 31 31 31 31 32 32 31 32 32 32 32
27 24 15 23 23 25 27 27 26 28 31 30 30 28 29 33 31 32 29 32 32 26 24 24 29 29 29 31 31 31 30 31 30 30 31 30 30 31 31 31 30 30 29 30
26 24 15 19 24 29 29 29 27 29 30 30 27 29 29 30 30 31 31 27 25 25 25 31 32 31 31 31 31 31 30 29 28 29 29 28 28 28 28 29 28 28 28 28
26 24 21 22 22 22 24 24 25 28 29 29 30 27 28 29 30 29 28 27 25 29 32 32 32 31 31 31 26 22 23 23 22 23 23 22 22 26 26 25 25 25 27 26
24 23 25 24 24 23 23 26 26 29 27 25 26 25 25 29 28 27 31 29 30 30 29 31 32 31 31 29 29 27 20 19 17 18 19 18 17 21 18 19 21 23 25 24

GFSNW_sfc_30mbdewp_084.txt.gz
Dewpoint
44 42 42 42 41 44 41 36 30 37 41 30 34 30 32 34 34 37 36 36 35 30 30 32 30 32 34 33 35 28 31 31 27 28 35 36 32 32 31 23 25 24 23 21
43 42 42 42 41 43 40 34 33 36 36 29 31 32 33 35 35 36 34 32 32 31 29 28 29 29 31 38 38 34 35 30 25 27 33 35 34 34 32 29 25 23 20 21
43 42 42 42 42 42 38 32 22 29 33 36 31 31 31 31 34 36 36 34 33 31 29 29 28 28 29 32 35 36 34 32 23 19 24 31 31 32 31 27 24 24 23 22
43 43 42 41 42 41 33 29 29 29 28 28 31 32 30 31 32 35 36 32 34 31 29 29 29 30 29 29 31 33 30 30 28 29 31 31 29 31 29 26 26 24 22 23
43 43 41 41 42 39 31 26 27 29 29 30 31 29 30 30 31 33 34 34 36 32 31 33 31 33 28 28 29 27 28 26 25 25 30 31 30 33 31 29 29 26 22 21
44 43 41 41 41 39 32 32 32 31 26 24 25 27 28 28 32 34 36 35 36 31 33 35 35 35 35 32 28 27 25 26 24 22 26 28 28 32 32 31 32 27 21 22
44 42 41 41 40 41 37 34 32 25 17 23 24 25 25 29 32 33 33 38 35 35 38 36 35 33 30 29 28 27 25 25 24 22 23 17 24 27 31 29 28 27 27 26
44 42 41 40 41 41 38 37 32 29 23 24 24 24 24 24 31 33 36 38 38 37 36 31 29 28 27 28 29 28 26 26 23 19 19 22 24 25 28 27 26 27 28 32
44 42 41 39 41 41 39 37 37 32 27 20 25 24 24 25 28 27 35 36 36 37 33 30 25 22 23 22 24 28 28 27 23 23 17 14 29 30 32 33 25 29 31 33
43 42 42 41 41 41 39 36 38 34 28 27 26 23 22 27 30 25 29 32 34 37 31 27 24 24 25 23 23 23 25 26 23 24 21 24 32 31 35 26 25 32 34 35
43 42 42 41 41 41 39 35 39 34 27 28 28 29 27 27 26 23 28 28 35 35 30 29 28 26 26 24 26 26 24 24 23 23 21 17 30 32 31 34 36 36 36 37
43 42 41 41 41 40 39 34 36 38 34 29 31 31 32 30 29 27 27 31 31 37 34 32 31 27 28 26 25 28 24 26 24 25 24 27 30 32 31 32 33 33 36 37
42 41 40 41 42 41 40 38 36 35 33 30 28 25 26 33 33 31 26 31 35 34 33 35 33 28 29 26 26 27 28 29 25 27 26 28 33 36 36 36 35 35 36 36
41 41 42 42 41 41 40 40 37 36 32 26 26 29 27 30 33 33 31 29 36 36 34 36 34 31 30 27 28 27 27 29 28 28 30 33 35 36 37 36 36 36 36 36
41 42 42 41 41 42 42 42 39 38 32 26 29 32 31 30 31 30 32 32 31 32 30 35 34 34 34 31 32 29 30 28 27 26 31 30 34 36 37 36 35 35 36 36
42 42 41 41 41 42 36 29 38 40 38 31 23 28 28 29 31 28 30 32 30 31 32 35 36 38 35 30 27 29 30 30 31 31 36 36 36 35 36 36 36 36 35 35
42 41 41 41 41 39 33 27 36 40 39 31 25 22 26 30 33 30 33 31 34 34 35 34 34 35 36 33 29 29 32 33 35 36 36 35 35 35 36 35 35 35 35 35
42 41 40 39 39 40 37 39 41 41 34 32 24 21 23 36 32 31 34 33 36 36 36 37 35 36 36 32 33 34 35 35 34 34 35 35 36 35 35 35 35 34 34 34
41 39 40 37 35 35 36 39 41 40 34 26 27 23 21 32 31 34 37 37 32 37 34 33 35 33 31 32 32 33 34 34 34 34 34 34 34 35 34 34 33 33 33 34
37 33 30 29 33 38 37 37 32 31 32 32 25 29 24 30 31 31 33 35 33 30 34 37 34 31 33 32 31 31 32 32 33 32 33 34 33 33 33 33 33 33 33 34
32 28 29 32 36 31 33 26 26 27 25 29 28 29 27 32 28 29 35 32 32 28 30 32 29 29 31 30 30 30 31 32 32 33 32 32 32 32 32 32 33 33 33 33
34 33 35 35 32 29 24 23 27 26 23 30 29 29 31 32 34 30 32 31 31 26 35 30 25 28 30 29 30 31 31 30 30 31 30 31 31 32 32 33 32 32 32 32
34 30 27 27 28 21 21 19 20 20 26 28 27 25 29 32 34 32 31 29 28 34 29 26 26 29 29 29 30 30 31 30 31 31 32 32 32 32 31 30 31 30 30 31
25 22 14 21 20 23 25 24 24 25 28 27 27 26 27 31 29 31 29 31 31 26 24 23 27 29 28 30 31 31 31 31 30 30 30 30 30 30 30 29 29 28 28 29
23 23 15 16 22 27 28 28 27 26 26 27 25 27 28 27 28 31 31 28 25 26 25 31 32 32 31 31 32 31 30 29 28 29 28 27 27 27 27 27 25 26 26 26
24 24 21 21 22 20 23 23 23 26 26 27 28 26 25 27 29 28 27 26 24 28 30 31 32 31 31 31 30 25 24 24 23 22 21 18 19 24 22 21 22 23 25 23
24 23 24 24 23 23 22 23 25 29 26 23 24 22 24 26 26 27 29 27 28 29 29 29 31 31 31 29 29 29 22 18 16 17 17 16 17 17 17 16 20 21 22 21

GFSNW_sfc_30mbdewp_087.txt.gz
Dewpoint
44 44 42 42 41 42 40 34 29 37 41 29 34 31 33 34 35 37 36 37 35 33 34 31 26 27 30 32 29 26 28 26 21 26 34 32 32 31 26 24 24 23 21 20
44 44 42 42 41 41 38 33 31 33 36 27 29 32 30 33 35 37 35 34 34 32 29 30 31 30 36 33 32 27 30 24 19 25 32 34 29 33 33 28 25 23 18 18
44 43 42 41 41 40 35 29 15 24 32 35 32 30 28 29 34 36 35 35 34 33 30 31 29 32 36 34 34 35 29 32 23 19 22 29 29 31 33 31 24 22 22 22
44 43 42 41 41 39 30 27 27 29 25 27 29 31 29 28 29 33 36 34 34 34 30 29 30 32 30 38 39 38 35 30 28 30 31 30 29 32 31 29 27 22 23 24
44 42 41 41 40 38 31 24 24 28 27 27 27 28 27 27 28 31 33 34 34 36 32 33 31 33 31 28 29 30 29 28 25 26 31 30 30 31 31 29 28 26 24 22
44 42 41 41 41 38 31 32 32 29 24 22 23 24 26 24 26 32 34 35 34 34 34 35 36 36 35 34 29 27 25 26 23 23 28 30 27 31 30 29 31 26 23 23
44 42 41 41 41 39 35 34 31 25 16 20 23 24 25 23 24 30 33 36 37 36 37 36 35 35 33 30 29 28 25 25 24 23 23 20 23 28 33 30 30 31 27 25
43 42 40 41 41 42 36 37 31 28 22 24 23 23 23 23 28 27 31 37 36 36 36 31 28 28 26 26 28 28 27 26 23 19 20 21 24 26 30 30 29 29 28 29
43 42 41 41 42 42 37 37 36 31 26 20 25 24 22 23 27 24 30 27 31 37 33 29 25 22 24 22 23 27 27 26 22 22 16 13 29 30 32 29 25 28 29 33
43 42 41 41 41 42 36 35 37 33 27 27 26 22 23 26 26 23 25 27 23 36 31 27 24 24 26 23 23 24 24 25 22 24 20 23 30 31 35 24 23 30 33 34
43 42 41 41 41 42 38 35 38 31 27 27 28 28 27 27 26 24 25 25 32 34 30 29 27 25 26 24 25 26 24 23 23 23 20 16 29 32 28 31 36 35 35 36
43 42 41 42 42 41 38 34 36 38 32 28 30 30 30 29 29 27 28 28 28 32 31 31 30 27 27 25 23 28 24 26 25 24 24 27 30 31 33 33 33 33 37 37
43 41 41 42 42 41 40 37 37 36 33 30 27 23 26 33 33 31 27 29 34 32 34 31 32 30 28 25 25 27 27 29 26 26 26 30 34 36 37 36 34 36 36 35
41 41 42 41 41 41 41 38 38 37 33 26 24 30 28 30 33 33 30 30 35 35 34 32 34 31 30 27 28 27 26 29 28 28 30 33 35 36 36 36 36 36 36 36
41 42 41 41 41 42 41 40 38 38 32 26 27 29 30 30 31 31 32 31 30 32 30 32 33 34 34 32 31 29 30 27 27 25 30 30 33 36 36 35 35 35 35 35
42 42 41 41 41 42 34 28 38 40 37 31 23 27 27 27 32 30 30 31 31 32 31 32 36 37 35 31 27 29 30 30 30 30 35 35 36 35 36 36 36 36 35 35
42 42 41 40 40 37 31 26 35 40 39 31 24 21 25 27 36 30 32 32 32 31 32 34 34 33 36 33 29 29 33 34 35 36 36 35 35 35 36 35 35 35 35 35
42 41 40 39 40 38 36 39 40 40 35 32 23 21 22 33 31 32 33 31 33 35 34 36 35 36 36 31 32 33 35 35 34 34 35 35 35 35 35 35 34 34 34 34
40 39 41 36 34 32 34 39 40 39 34 26 26 22 20 31 30 32 34 34 30 35 33 33 35 33 30 33 33 32 34 34 34 34 34 34 35 34 34 33 33 33 33 34
37 33 30 29 32 37 37 36 31 31 32 31 25 27 24 29 30 29 31 34 31 29 31 35 32 30 33 32 31 31 32 32 33 33 33 33 33 33 33 32 33 33 33 33
31 27 27 31 36 31 32 26 25 27 24 27 27 28 26 29 26 27 33 31 32 27 29 32 29 28 31 30 30 30 32 32 32 33 32 32 32 32 32 32 33 33 32 32
31 31 34 34 31 27 23 22 26 25 23 26 28 28 28 30 34 29 29 30 31 26 34 31 26 29 30 29 30 30 30 31 30 31 31 31 32 32 33 32 31 31 31 32
32 29 26 24 26 20 20 16 18 17 25 26 25 24 25 29 32 30 30 28 27 35 29 26 26 29 29 29 30 30 31 31 31 31 32 32 32 32 31 30 30 30 30 30
24 19 14 16 18 23 23 22 21 23 25 25 25 26 24 28 28 29 27 31 32 26 24 23 28 30 28 30 30 31 31 30 29 29 29 29 30 29 29 28 27 27 26 26
23 21 13 16 20 25 27 28 27 26 26 25 24 25 26 25 26 29 30 28 24 26 25 30 31 33 30 30 31 31 30 29 28 28 27 27 27 27 26 24 24 26 24 24
23 23 19 20 21 20 21 24 24 24 26 26 26 24 24 23 27 27 26 26 23 26 28 29 30 31 32 32 31 31 28 26 25 23 20 17 21 23 20 20 21 21 22 19
24 22 24 22 23 22 22 21 24 27 25 21 21 19 21 24 23 26 27 24 26 28 29 29 30 30 31 31 29 30 27 19 18 17 17 14 17 16 15 14 18 21 21 21

GFSNW_sfc_30mbdewp_090.txt.gz
Dewpoint
45 44 42 42 42 41 39 33 28 36 41 29 34 31 33 35 34 38 37 37 35 33 33 28 26 25 28 31 27 24 26 24 21 23 31 29 29 28 26 20 24 23 20 21
45 44 42 42 41 40 37 30 29 30 34 26 29 30 30 30 35 36 32 35 34 34 32 29 31 33 33 33 27 24 25 18 19 23 27 32 27 31 26 25 25 23 18 18
45 43 42 42 41 39 33 25 11 22 30 33 31 30 30 28 30 35 34 36 33 33 30 34 31 33 33 34 29 28 25 22 20 16 18 26 26 30 29 24 19 20 22 22
45 43 42 42 40 39 28 26 25 28 18 22 26 29 25 26 26 30 34 35 34 33 29 29 30 33 34 32 33 33 30 27 26 29 30 26 25 29 31 26 24 20 22 23
44 42 42 42 40 37 30 21 20 27 25 25 26 25 23 24 25 26 31 32 33 35 32 32 30 33 32 31 34 31 32 30 28 28 31 30 27 31 31 31 29 28 24 23
44 42 42 41 40 35 29 31 31 26 22 21 22 23 23 21 24 25 34 34 32 34 34 35 35 35 35 35 33 31 30 29 22 25 30 30 27 30 31 30 29 28 25 25
43 42 41 41 40 37 33 33 29 21 16 19 21 22 24 21 21 24 27 31 35 37 34 35 35 35 35 33 29 29 25 25 24 24 25 21 23 27 33 30 30 29 26 25
43 42 41 41 41 40 35 35 30 26 16 23 23 22 22 21 25 24 25 34 32 30 34 31 28 28 25 25 26 28 27 26 21 22 22 20 23 29 32 30 30 31 31 28
43 42 41 42 42 40 36 36 34 29 18 19 25 24 22 22 24 22 24 26 28 34 33 30 25 22 24 23 24 26 27 26 23 21 16 12 29 29 32 29 27 29 30 30
43 42 41 41 42 41 35 35 37 31 24 25 26 19 21 26 25 24 24 26 26 36 31 28 24 25 26 23 23 24 23 25 21 24 20 22 28 31 34 24 23 30 31 33
43 42 41 41 41 42 36 35 37 29 26 26 27 28 26 26 25 23 24 26 29 30 29 28 28 26 26 23 25 26 24 23 23 23 20 17 29 32 27 30 35 34 35 35
43 42 41 42 41 42 37 33 37 38 31 27 29 30 30 29 27 26 27 26 28 31 27 30 30 27 27 25 22 27 23 26 25 24 24 27 30 31 34 33 33 35 37 37
43 41 41 42 41 41 39 36 37 36 32 27 25 23 27 33 32 31 26 28 34 32 33 29 31 29 29 24 25 27 27 29 26 26 27 30 35 36 37 35 35 35 36 36
43 41 42 41 41 42 41 38 38 36 31 23 21 29 29 31 32 32 30 31 35 34 34 30 32 30 31 29 28 27 26 29 27 27 29 33 35 36 36 36 36 36 36 36
41 42 41 41 41 42 39 38 38 37 29 22 26 29 28 30 30 31 32 30 29 30 27 29 32 35 34 33 30 29 29 27 27 25 29 29 32 36 36 35 35 35 35 35
42 42 41 41 41 39 33 30 37 39 37 30 23 27 28 27 29 31 30 31 30 30 28 29 34 37 35 31 28 28 30 30 30 30 35 35 35 35 36 36 36 35 35 35
42 42 41 41 41 36 29 25 34 40 37 30 22 21 24 26 34 31 31 32 31 30 29 30 33 33 36 32 28 30 33 35 35 36 36 34 35 35 35 35 35 35 35 35
42 41 40 40 39 38 35 37 39 39 33 29 22 21 22 31 29 30 32 29 31 32 31 35 33 34 36 31 30 32 34 34 34 34 35 35 35 35 34 34 34 33 33 33
40 41 40 36 33 31 33 39 40 38 30 23 24 21 19 28 27 31 34 32 29 33 31 32 34 30 29 31 32 32 34 34 34 34 34 35 35 34 33 33 33 32 33 33
41 34 31 28 30 36 37 35 28 29 31 30 24 26 22 27 27 27 31 34 30 28 29 33 31 30 32 31 31 31 32 33 33 33 33 33 33 33 32 32 33 33 33 33
30 27 27 31 35 32 30 25 24 25 23 26 26 27 26 28 25 26 30 29 31 27 29 30 30 28 30 30 30 31 31 31 32 32 32 32 32 32 31 32 32 32 31 31
30 31 33 33 29 25 22 22 25 23 22 24 26 26 26 28 32 29 30 27 30 24 34 30 25 28 30 29 30 30 31 31 30 31 31 31 32 33 32 31 30 30 30 30
31 28 26 23 24 21 18 15 17 14 24 24 24 22 25 26 31 29 29 26 26 34 29 26 26 28 29 29 30 30 31 31 31 30 30 31 31 31 30 28 28 28 27 27
23 18 13 12 16 20 21 15 16 21 24 25 24 23 23 26 26 27 25 30 32 25 23 23 29 31 30 29 30 31 31 29 29 28 28 29 28 28 28 24 25 26 25 25
23 18 6 14 19 25 25 26 26 26 25 24 23 23 25 23 24 26 28 27 24 25 24 27 29 30 32 31 31 31 31 28 27 27 26 25 26 26 25 22 23 24 22 21
23 20 17 20 20 21 23 25 24 25 25 25 24 22 22 21 24 24 25 25 20 22 25 29 29 29 31 31 32 32 31 28 26 23 21 17 21 22 19 20 20 21 22 19
24 22 23 21 21 20 20 21 22 27 24 20 20 17 17 21 21 23 25 21 23 24 22 26 29 29 30 32 31 30 29 23 19 17 16 14 17 15 14 13 17 20 20 20

GFSNW_sfc_30mbdewp_093.txt.gz
Dewpoint
46 45 43 43 42 42 37 33 25 36 41 28 31 28 33 30 33 36 36 36 33 33 33 28 26 25 28 31 26 21 24 25 19 20 29 28 30 27 25 20 23 22 19 21
46 44 43 42 42 41 35 28 27 28 33 24 28 28 30 30 30 34 33 34 34 33 33 29 32 32 32 32 25 22 23 17 18 20 22 29 27 29 26 25 24 23 17 20
45 43 43 43 41 39 31 22 11 22 30 29 29 28 25 24 29 35 32 35 34 32 29 33 31 32 31 32 26 28 24 19 19 11 12 25 24 28 26 23 18 19 20 21
45 43 42 42 41 38 26 25 23 27 11 20 26 28 23 21 20 25 32 34 31 32 30 31 31 34 30 32 33 33 27 19 22 23 27 28 24 27 27 22 20 15 17 20
44 42 42 42 40 36 28 19 20 26 22 24 25 23 21 21 20 24 29 31 30 33 32 32 29 31 33 31 30 30 31 26 28 25 31 29 24 28 29 25 24 24 23 23
43 42 42 41 40 33 28 30 31 22 20 22 20 20 20 18 22 23 27 30 28 31 34 32 31 33 34 35 32 29 29 28 26 25 30 30 25 29 30 29 29 26 24 26
43 41 41 41 40 36 32 32 28 19 12 19 19 22 23 21 21 22 24 27 33 34 30 31 34 34 33 34 33 34 29 29 25 25 28 21 23 28 32 30 30 30 28 26
43 41 41 42 40 38 34 34 29 22 12 21 22 22 22 21 24 24 25 29 27 28 31 31 27 26 24 25 26 29 28 26 21 23 23 20 23 30 32 31 30 31 28 27
43 42 41 42 42 40 35 35 33 27 16 16 24 22 22 22 22 21 22 25 28 33 32 30 25 24 24 23 24 27 26 26 23 20 17 13 29 30 32 31 26 30 32 30
43 42 41 41 42 39 35 34 35 29 21 24 25 19 21 25 24 22 23 25 28 32 30 27 25 25 26 23 23 24 24 24 21 24 19 22 27 30 33 24 24 33 30 32
43 42 41 42 41 41 35 34 37 30 27 26 26 27 25 25 25 21 23 25 25 28 28 28 27 26 26 24 24 26 24 23 23 22 19 17 28 32 26 32 34 34 34 35
43 42 41 42 41 41 36 32 37 38 31 27 30 29 29 29 27 26 26 26 28 31 26 26 31 26 27 25 23 26 24 26 25 24 24 27 29 31 35 34 34 36 36 37
43 42 41 42 42 42 38 36 37 35 30 25 24 23 28 32 32 30 25 27 34 32 33 29 28 28 29 25 24 26 26 28 27 26 26 29 34 36 36 36 35 35 36 36
43 41 42 41 41 43 40 35 38 33 29 17 19 29 29 31 31 32 31 32 34 33 32 29 29 30 31 29 28 28 28 28 27 27 28 32 34 36 36 36 36 36 36 36
42 42 42 41 43 42 39 37 37 36 27 17 22 27 28 29 29 31 32 30 29 29 25 28 30 35 34 33 30 29 29 26 26 25 29 29 31 36 36 35 35 35 35 35
42 42 41 41 41 37 32 30 36 39 37 27 15 27 27 26 29 30 30 31 30 30 26 27 31 36 35 31 26 29 29 31 30 29 35 34 35 36 36 35 35 35 35 34
42 41 41 41 41 34 27 26 34 39 37 27 19 20 24 26 33 32 30 31 30 29 29 28 29 32 35 30 27 29 32 34 35 36 35 34 35 35 35 35 35 35 34 34
42 42 41 41 39 38 33 36 40 36 32 27 18 18 21 29 27 28 32 29 30 31 27 31 33 34 34 31 32 31 34 34 34 34 35 35 35 34 34 34 33 33 33 33
41 41 40 35 33 31 32 40 39 38 28 23 23 18 14 27 26 29 33 30 27 30 29 31 32 31 28 31 32 32 34 34 34 34 34 35 34 34 33 33 32 32 32 33
41 35 30 27 30 36 38 32 27 27 28 28 24 25 22 26 24 25 28 33 30 27 29 33 31 28 31 31 31 31 32 33 33 33 33 33 33 33 32 32 33 33 33 32
30 28 27 32 36 32 27 25 23 25 23 25 25 25 24 26 22 24 28 27 30 26 28 29 29 28 29 29 30 30 31 31 32 33 32 32 32 32 32 32 32 31 31 31
30 30 34 33 28 23 21 22 24 22 21 25 25 25 25 25 31 28 28 25 29 23 32 29 25 27 29 29 30 30 31 31 31 31 31 32 32 32 31 30 29 29 29 29
30 28 25 23 23 20 18 16 17 15 22 24 23 19 23 25 29 26 27 25 24 33 28 26 26 30 31 30 31 31 31 31 30 30 30 31 31 30 28 27 26 26 26 26
22 18 12 13 15 19 18 12 13 19 23 24 24 22 23 25 23 24 22 25 30 25 22 23 26 28 29 31 32 32 31 30 29 28 28 28 27 28 24 22 25 24 22 24
20 16 2 13 20 24 22 23 24 24 24 23 22 21 23 22 22 23 24 24 24 23 20 24 24 28 29 30 31 31 32 29 27 26 26 25 25 25 23 20 21 22 19 18
22 18 16 20 22 22 24 25 25 26 25 24 23 20 20 19 21 21 21 22 19 22 24 24 23 25 28 29 31 32 32 30 27 24 22 17 20 21 19 19 19 20 21 18
22 21 22 20 19 20 21 24 24 25 22 18 19 16 15 20 18 19 24 21 22 25 26 27 25 26 27 29 31 31 29 27 23 17 16 14 16 15 13 12 16 19 19 19

GFSNW_sfc_30mbdewp_096.txt.gz
Dewpoint
46 45 44 43 43 40 37 35 30 36 42 32 33 28 30 30 30 33 34 36 33 30 30 30 28 26 29 31 25 22 26 25 17 19 23 28 33 25 25 26 25 24 23 20
46 44 43 43 42 40 36 30 29 31 35 27 28 27 28 29 29 31 32 34 34 34 31 29 32 31 33 31 23 19 21 22 15 18 17 27 29 27 24 26 26 25 22 20
45 43 43 43 41 39 31 24 18 25 29 29 28 28 21 18 25 32 30 35 33 31 30 31 31 30 32 30 24 26 20 18 18 8 13 20 21 23 25 23 21 20 21 20
44 42 43 42 40 37 28 26 25 27 22 23 26 28 20 18 18 23 30 31 29 30 29 30 30 32 30 33 34 30 22 16 17 18 21 25 24 21 23 22 19 18 19 18
43 42 42 41 39 35 29 23 26 27 23 24 24 21 17 18 18 23 28 27 27 31 31 31 29 30 32 29 32 30 31 24 30 22 25 26 28 23 20 19 19 19 23 21
42 41 42 40 38 32 28 31 31 25 20 22 19 18 18 17 21 20 26 25 26 30 33 28 29 30 33 34 31 29 29 26 25 25 31 28 24 24 24 19 19 19 18 21
42 41 42 40 38 35 32 32 30 20 14 17 17 20 22 20 20 20 23 27 30 31 28 33 35 33 33 34 34 33 29 30 26 25 29 21 24 30 28 24 23 25 25 28
42 41 42 41 38 37 35 33 28 22 15 19 21 21 21 21 22 23 23 26 25 27 32 32 26 26 27 27 30 34 34 30 23 24 23 22 24 29 31 29 26 29 28 27
42 41 42 42 40 38 36 36 33 24 18 16 22 21 21 22 21 21 22 25 28 32 33 30 25 24 25 23 25 27 27 28 25 22 19 15 28 31 33 33 26 30 31 30
42 41 42 42 40 38 35 35 35 29 18 23 24 21 21 26 24 22 23 24 27 31 30 27 26 25 26 22 23 25 25 25 23 23 21 24 27 30 33 26 27 35 31 32
43 41 42 42 41 38 36 35 37 32 26 25 27 27 25 25 25 21 23 26 26 28 28 27 27 25 27 24 24 26 25 24 23 23 20 19 27 32 28 33 35 34 34 34
43 41 42 42 42 40 36 34 37 37 31 27 30 29 29 29 28 26 26 27 29 29 25 26 29 26 27 26 22 27 25 26 26 25 24 28 30 32 36 35 35 37 37 37
43 41 42 42 42 41 38 37 38 35 30 25 24 24 28 32 31 30 25 28 31 31 32 28 29 28 30 25 25 27 27 28 27 26 27 29 35 36 36 36 36 36 37 37
43 41 42 41 41 42 39 36 38 34 29 20 20 29 29 31 31 32 31 33 32 32 32 28 29 29 32 29 28 28 28 28 27 27 28 30 35 36 36 36 36 36 37 37
42 42 42 41 43 42 39 38 38 35 29 20 21 27 28 29 30 31 32 30 29 30 26 27 28 34 34 33 31 29 30 27 26 25 30 30 32 36 36 35 35 36 35 35
43 42 41 42 41 39 34 32 37 39 36 27 21 27 27 26 31 31 32 31 31 30 26 25 29 33 34 31 27 29 29 30 31 29 35 33 36 36 36 36 36 36 35 35
44 41 41 41 39 35 29 27 35 37 37 27 22 21 25 26 33 33 31 32 30 29 29 28 28 29 35 32 26 29 31 34 35 36 36 35 35 35 35 35 36 35 35 35
42 41 42 40 39 37 33 38 39 36 31 27 18 20 23 28 27 27 33 30 30 31 27 28 30 32 34 29 31 33 33 34 35 35 35 35 35 35 34 34 34 33 33 34
42 41 40 36 33 32 34 40 38 36 29 23 22 15 13 28 27 28 32 32 26 30 27 28 31 29 28 30 32 32 33 33 34 34 35 35 35 34 34 33 33 33 33 33
42 36 31 28 31 38 39 32 28 29 29 28 23 25 21 27 24 25 26 31 28 27 28 33 30 27 31 31 30 30 31 32 33 33 33 34 34 33 33 32 33 33 32 32
31 29 28 33 37 32 28 25 24 25 23 25 25 25 22 27 23 23 28 26 29 26 29 29 28 28 29 31 31 31 31 31 31 32 32 32 32 32 32 32 31 31 30 30
31 31 34 33 28 24 22 23 24 22 20 26 25 26 26 26 31 28 29 24 26 22 32 29 26 27 29 31 31 32 31 31 31 31 31 32 31 32 31 30 29 29 28 28
31 28 27 25 25 20 18 14 18 18 23 26 26 21 24 25 29 26 26 24 23 30 28 26 25 27 27 28 31 32 33 32 31 30 31 31 30 29 28 27 26 26 25 26
22 18 9 14 15 19 20 18 15 20 24 25 24 23 23 26 23 23 22 23 28 25 22 22 25 21 22 28 29 31 32 32 31 30 28 28 28 27 23 23 24 22 21 22
18 15 2 12 22 23 22 23 25 25 26 25 23 23 23 23 21 23 23 22 22 22 20 25 26 23 23 25 29 30 31 31 29 28 27 26 26 26 23 21 22 21 19 18
22 19 17 23 24 24 26 26 26 26 25 25 23 20 19 19 21 20 20 21 19 22 25 27 27 27 23 25 28 30 32 31 30 27 25 20 22 23 21 20 20 21 21 18
23 20 23 23 24 23 25 25 26 25 23 19 20 15 14 20 18 18 22 23 23 26 27 27 27 26 23 23 28 30 31 29 28 25 21 16 22 19 14 13 17 20 19 19

GFSNW_sfc_30mbdewp_099.txt.gz
Dewpoint
46 45 44 44 43 40 39 37 32 35 43 32 32 28 28 29 29 31 33 34 32 29 28 31 30 28 29 29 23 20 21 24 16 19 25 28 32 31 27 27 24 25 25 21
46 44 43 43 42 39 35 27 28 33 37 30 28 27 26 28 28 30 30 32 31 32 30 29 32 30 34 28 22 18 22 21 15 14 19 28 27 27 26 25 26 27 25 19
45 43 43 42 41 38 33 26 28 26 28 30 29 27 20 18 24 31 30 33 30 30 29 30 30 30 31 28 22 25 23 17 17 12 16 21 23 24 25 24 25 24 20 20
45 43 43 41 39 38 32 25 28 28 28 23 22 26 17 16 19 24 29 33 28 28 29 27 30 30 30 31 31 26 22 17 14 17 23 23 22 21 24 24 23 27 19 20
44 43 42 39 38 36 28 22 25 25 21 23 22 18 15 15 16 23 27 26 27 29 31 31 29 31 30 30 31 30 28 22 27 24 16 18 20 23 19 22 22 20 19 20
43 42 41 38 38 37 27 30 29 26 19 18 17 17 17 16 19 19 24 23 26 28 31 28 29 31 33 33 31 28 28 22 28 26 31 27 24 24 21 19 17 19 17 20
42 42 40 38 38 35 30 30 27 19 12 14 16 18 19 18 19 19 20 25 29 28 30 33 35 33 32 32 33 33 27 27 27 28 28 22 25 29 28 22 19 16 21 27
42 42 40 38 38 36 33 31 25 18 12 14 17 18 19 19 20 22 22 23 26 29 33 32 28 28 30 29 33 32 34 32 29 26 22 22 24 28 29 27 24 22 21 22
42 42 41 39 38 37 35 34 31 21 14 13 19 19 20 21 19 20 21 25 29 31 33 29 25 22 23 23 25 31 33 32 27 23 19 15 27 30 32 32 26 31 30 27
42 42 42 41 39 37 36 35 36 25 17 22 23 20 20 24 23 20 21 24 28 31 28 26 24 22 26 22 23 25 25 25 23 25 21 24 28 33 33 27 29 34 32 31
42 42 42 40 39 37 36 35 37 32 20 25 26 26 23 24 23 21 22 28 28 28 27 26 25 24 25 25 25 25 24 24 22 22 20 20 30 32 30 34 34 34 34 32
42 42 42 41 39 38 36 32 36 36 29 27 29 28 29 28 27 26 26 27 29 28 27 26 28 24 25 25 25 27 26 27 26 26 26 29 32 34 36 35 36 37 36 35
43 42 42 42 41 38 37 34 36 34 26 25 25 24 28 31 31 30 25 28 30 29 31 28 28 27 28 22 25 26 27 28 27 27 27 29 34 36 35 36 36 37 37 37
42 43 42 42 41 40 38 34 36 34 28 21 23 28 28 31 31 31 31 31 30 30 30 28 28 28 32 26 29 27 26 29 26 25 29 29 34 36 36 38 36 37 37 37
42 43 42 42 42 40 39 37 37 35 32 21 22 26 28 29 29 30 32 30 29 29 26 27 27 32 34 30 30 27 29 28 26 29 32 30 33 36 37 36 36 36 36 36
44 43 42 42 41 38 36 33 35 37 36 29 23 27 26 26 33 31 32 32 29 27 26 25 28 31 31 29 27 28 29 30 32 30 31 34 36 36 36 36 36 36 35 36
44 43 43 42 38 37 32 32 36 37 37 29 23 21 25 28 33 33 31 32 28 28 27 27 26 28 34 32 26 29 31 32 34 35 35 34 35 35 36 36 36 35 35 35
43 42 41 38 39 37 34 39 37 36 31 28 26 22 24 28 26 27 33 29 29 30 27 27 27 28 29 27 30 32 33 34 34 34 35 35 35 35 35 35 35 34 33 34
43 41 39 36 35 33 34 40 38 37 33 28 25 22 22 28 26 28 32 32 26 30 26 26 29 25 26 30 30 31 31 32 33 34 35 35 35 35 34 34 34 33 33 33
41 35 31 29 34 40 39 34 30 31 30 29 23 25 23 26 24 26 26 31 29 27 28 30 29 26 32 31 32 33 32 32 32 33 34 34 34 34 34 33 33 33 32 32
33 31 30 36 38 35 30 28 27 27 25 25 25 24 23 27 24 24 27 27 28 25 29 29 27 28 28 29 30 33 32 31 32 32 32 32 32 32 33 32 32 31 31 30
33 33 36 34 29 27 25 24 25 24 22 25 25 26 25 26 29 26 27 24 26 21 32 29 25 26 28 28 29 31 32 33 31 31 31 32 31 31 31 31 30 29 29 28
34 31 30 28 26 20 16 14 21 20 25 28 26 24 24 26 27 23 26 24 22 27 28 24 25 27 25 27 29 29 31 33 33 33 31 31 31 29 29 28 26 25 24 24
24 19 13 21 16 20 24 26 23 26 29 27 26 24 24 25 23 23 21 23 26 24 23 23 24 24 20 20 26 29 30 32 32 31 31 30 29 28 24 22 23 22 19 20
18 24 14 17 25 26 25 26 26 27 28 26 25 24 24 23 22 22 22 21 20 22 21 25 27 26 26 24 23 26 29 31 31 31 29 28 27 27 26 21 21 21 19 17
24 22 19 25 24 24 26 27 26 28 27 25 25 22 20 20 21 20 20 21 20 24 28 30 30 29 28 26 24 23 29 30 32 31 29 26 24 25 24 22 20 21 22 20
24 22 25 27 27 26 27 27 27 27 25 22 22 15 16 21 20 19 22 23 26 28 27 28 29 27 26 26 25 25 30 29 30 29 27 20 23 24 24 22 16 20 21 20

GFSNW_sfc_30mbdewp_102.txt.gz
Dewpoint
47 46 45 44 43 41 41 39 34 37 44 35 31 28 27 29 27 30 33 33 29 29 28 31 29 27 30 30 22 19 21 25 18 24 26 32 32 31 28 27 25 27 27 22
47 46 44 44 42 40 38 34 34 36 39 31 29 27 26 27 27 29 29 31 28 29 31 30 29 29 32 27 22 21 22 23 17 17 21 28 28 28 30 31 27 26 25 21
47 45 44 43 41 40 39 29 26 29 32 30 28 26 20 18 25 30 32 33 28 28 29 32 30 29 31 30 24 28 24 19 19 19 20 24 23 24 26 26 25 28 27 22
46 44 43 42 40 39 36 28 33 31 29 24 22 25 18 17 20 25 28 33 26 27 29 30 30 31 29 30 30 27 25 19 18 20 20 23 22 22 24 24 29 27 22 23
45 44 43 40 39 38 33 24 24 24 22 23 19 20 17 15 16 23 26 26 25 27 30 30 29 30 31 30 30 28 29 20 19 24 24 18 20 21 22 24 30 27 21 24
44 43 42 39 39 38 30 30 29 29 20 17 17 19 18 17 18 19 23 22 27 26 29 29 29 31 34 34 30 27 27 23 25 25 29 25 24 23 23 20 22 24 19 24
44 43 40 39 38 39 32 31 25 20 14 14 17 16 18 18 18 19 19 23 27 27 30 32 33 33 32 34 33 34 25 26 26 27 27 21 27 30 29 23 20 19 21 27
44 42 39 39 37 37 33 32 28 20 12 14 16 17 18 19 20 22 22 24 25 29 32 33 32 30 31 31 33 33 33 29 28 25 25 23 25 28 30 26 25 25 20 21
44 42 39 39 37 36 36 35 35 25 15 16 18 18 19 21 20 21 22 25 29 30 32 29 26 22 23 27 29 35 33 33 30 25 23 22 27 31 32 31 27 34 33 28
44 42 39 39 38 38 37 36 37 31 20 23 23 22 22 24 24 21 22 24 29 31 29 24 23 23 25 23 24 27 29 28 26 25 25 27 29 34 34 26 31 34 33 31
44 43 41 39 38 38 38 36 38 35 24 26 25 26 24 24 24 23 24 28 29 29 25 24 23 22 24 25 25 25 25 24 27 24 21 23 31 32 31 34 35 36 35 33
44 43 41 39 38 38 37 34 35 35 30 27 28 30 30 29 28 27 29 28 28 28 28 26 27 24 23 23 26 27 27 27 26 26 27 29 34 35 36 36 37 37 37 37
44 42 40 39 38 38 37 36 36 33 27 27 27 26 29 31 30 31 27 29 30 28 31 28 28 26 27 21 26 26 27 29 27 27 28 30 35 35 37 37 36 37 37 38
43 42 41 40 39 39 38 36 38 34 30 23 24 29 29 30 31 31 31 31 30 30 29 28 27 27 33 27 28 27 27 28 27 29 32 30 36 36 36 39 37 37 37 38
44 43 42 41 40 39 39 38 37 36 34 23 24 27 29 28 29 31 32 30 29 27 27 27 27 31 33 31 29 28 29 29 28 29 30 32 35 37 41 37 38 36 36 36
44 44 43 40 39 38 37 27 36 37 37 28 23 27 26 29 32 32 31 31 28 27 26 27 28 30 30 27 27 31 31 33 33 32 34 33 35 36 36 36 36 36 36 36
44 44 42 40 38 39 33 32 37 38 38 30 23 22 25 29 31 31 30 30 28 27 26 26 27 28 32 29 24 33 33 33 34 35 35 35 35 35 36 36 35 35 35 35
44 44 41 38 38 37 34 39 37 38 32 31 26 24 25 29 29 30 31 30 29 30 26 27 26 26 28 25 32 31 31 32 34 33 35 35 35 35 35 35 35 34 34 34
43 40 37 36 35 33 35 39 37 38 34 26 27 21 25 28 27 28 31 33 26 30 26 26 27 25 26 30 30 30 31 31 31 32 34 35 35 35 34 34 34 33 33 33
40 34 32 30 35 39 37 33 32 32 31 30 25 25 24 28 26 25 25 31 28 26 28 29 30 26 31 30 31 31 33 32 32 31 32 33 33 33 34 33 33 33 32 32
34 31 30 37 39 34 31 28 28 28 25 27 25 25 24 27 25 24 26 25 28 24 29 28 27 27 29 29 29 31 31 32 31 31 31 32 32 32 32 32 32 31 31 30
34 34 37 35 31 28 26 25 25 25 24 25 26 25 27 27 28 24 26 23 24 20 32 28 23 27 28 28 28 30 30 32 32 32 31 31 32 31 31 31 30 29 29 27
36 32 29 29 27 21 15 13 21 23 26 28 25 24 26 28 27 23 24 21 21 26 26 23 25 27 24 24 27 29 30 30 32 32 32 32 32 31 29 29 26 25 24 23
24 22 16 21 17 22 22 24 25 29 30 29 27 24 25 25 23 23 20 23 25 23 20 21 26 24 20 20 22 24 26 29 30 32 32 31 31 30 26 22 23 22 19 19
20 24 15 20 26 26 27 28 28 29 29 26 24 24 24 23 22 22 22 20 17 18 21 26 27 26 26 25 24 23 23 26 28 30 31 30 29 27 27 22 21 21 20 18
25 24 21 25 23 24 27 27 27 29 27 26 25 22 20 20 21 19 18 18 17 24 28 30 28 27 27 26 25 25 24 25 28 30 31 30 28 26 26 23 21 21 21 20
25 24 27 28 26 25 28 26 27 29 26 19 22 12 15 22 19 19 22 21 27 28 28 28 28 26 25 25 25 24 24 26 27 28 29 28 22 22 22 23 24 23 22 20

GFSNW_sfc_30mbdewp_105.txt.gz
Dewpoint
51 49 47 45 45 42 43 40 34 38 44 32 30 27 27 28 27 31 32 33 31 29 29 28 26 26 29 30 27 19 20 24 18 22 26 32 31 30 30 24 24 27 24 21
51 49 46 44 44 43 39 35 35 37 41 30 28 28 26 28 26 27 27 32 28 27 32 29 29 26 30 31 26 23 24 21 17 16 21 28 27 29 31 31 30 26 23 21
50 48 46 44 43 42 39 30 24 32 35 31 28 26 18 23 26 28 31 31 27 27 29 30 29 27 29 31 30 28 24 20 19 17 22 24 23 24 28 28 26 27 26 24
50 48 45 44 42 42 37 32 30 28 24 26 24 25 18 17 23 26 28 30 25 26 29 31 30 31 28 29 31 28 28 19 20 23 25 23 23 23 25 25 30 26 26 25
49 47 45 44 40 41 34 24 22 26 23 21 20 24 17 16 17 21 26 25 25 26 30 29 28 30 31 30 29 27 29 12 17 22 24 23 21 21 22 27 32 30 27 25
48 46 45 42 41 36 31 30 30 22 22 19 19 18 17 18 18 20 23 22 27 25 29 28 29 30 33 34 29 25 26 25 25 25 28 21 20 26 21 29 33 28 27 27
47 45 43 41 40 39 32 29 26 21 16 17 19 18 18 18 19 19 20 21 26 27 30 32 33 32 33 34 33 32 25 25 25 26 27 20 29 30 28 24 31 30 28 28
46 44 43 40 40 41 33 32 26 21 13 16 18 17 19 18 21 20 19 23 25 29 31 33 30 29 30 29 31 31 32 29 27 25 25 25 27 30 30 26 31 33 25 24
46 43 41 39 39 39 35 35 35 25 15 18 19 18 19 21 20 21 22 27 28 29 32 30 27 20 25 27 30 32 32 32 28 25 24 22 28 32 33 31 28 34 33 32
45 42 40 40 40 39 35 34 37 24 22 25 24 21 21 25 23 21 23 24 29 31 29 24 22 22 24 23 24 27 28 28 25 25 26 27 29 32 34 26 30 36 35 34
44 42 41 40 40 39 36 36 37 27 25 26 27 27 24 24 25 22 24 28 28 28 25 23 22 21 23 24 25 25 25 24 26 25 22 22 32 33 30 34 35 37 36 35
44 42 40 40 40 39 36 32 35 34 26 27 30 30 30 29 28 27 29 28 28 28 28 27 26 22 23 22 26 27 27 26 25 26 26 29 35 35 36 37 36 37 37 37
44 42 40 40 39 39 37 34 35 29 27 27 26 26 29 31 31 31 27 29 30 29 31 28 28 26 28 20 26 26 27 29 27 27 30 31 35 37 39 38 37 38 38 39
43 41 40 40 40 38 37 34 37 32 28 22 24 30 29 31 32 32 31 31 30 30 30 28 28 26 32 26 27 26 27 28 28 31 32 34 36 36 37 38 38 37 38 38
42 41 40 40 41 40 37 36 37 36 27 22 24 28 29 29 30 33 31 30 28 27 27 26 26 30 32 31 29 29 30 29 28 29 32 31 34 37 41 39 38 37 36 37
44 43 41 41 40 37 31 20 34 36 36 23 22 27 26 32 32 31 30 28 27 27 26 26 27 29 30 26 28 35 33 33 34 33 35 35 35 36 36 37 36 36 36 36
44 42 41 40 40 39 33 28 35 38 38 24 21 22 26 31 30 30 30 29 28 27 26 25 26 27 31 26 24 32 31 32 34 34 35 35 35 35 36 36 35 36 35 35
43 41 39 39 38 37 32 37 38 38 31 31 23 24 24 30 29 27 31 28 29 28 26 26 26 27 29 25 31 31 31 31 33 32 33 34 36 35 35 35 35 34 34 34
43 40 38 35 35 30 34 38 37 37 33 23 23 15 22 28 27 27 30 31 26 30 26 25 27 25 25 27 29 30 31 31 31 32 32 34 35 35 35 35 34 33 33 33
41 35 32 29 36 39 37 32 28 30 29 30 24 26 21 26 26 24 25 31 27 24 26 28 28 26 31 30 30 31 31 31 32 30 30 31 32 32 32 33 33 33 32 32
35 31 31 37 39 33 31 27 25 26 22 27 25 24 24 27 24 22 25 23 27 22 27 25 26 22 29 29 28 30 31 32 31 32 31 31 31 32 31 32 32 32 31 30
33 34 37 36 31 28 24 24 25 25 20 26 22 25 24 28 27 23 25 21 22 18 31 25 20 25 27 28 28 29 30 30 30 32 32 32 31 32 32 31 31 30 29 28
36 32 30 28 27 21 16 15 19 21 25 27 25 23 25 27 26 23 23 20 19 27 24 20 24 26 26 25 26 26 28 29 29 29 30 32 32 32 31 30 30 28 28 25
26 22 19 22 17 20 20 19 20 28 28 25 24 24 24 25 23 23 19 22 24 19 18 19 24 25 21 20 22 22 21 23 26 27 29 31 32 32 32 27 25 26 22 20
23 26 12 21 25 27 28 29 29 30 28 25 23 23 23 22 21 22 21 19 17 18 18 24 24 23 24 24 24 23 23 22 22 25 27 29 31 30 28 25 21 20 21 19
26 23 22 25 24 25 26 28 28 28 26 25 22 21 17 18 19 19 17 15 15 18 27 27 26 25 26 25 24 22 23 23 23 25 27 29 30 28 27 25 22 20 21 21
23 24 26 26 24 24 27 27 27 28 22 13 19 8 10 21 18 17 18 18 21 28 28 28 27 25 24 24 23 20 22 23 23 25 26 28 27 23 23 22 22 24 25 24

GFSNW_sfc_30mbdewp_108.txt.gz
Dewpoint
54 53 51 48 46 45 44 40 34 38 43 34 30 26 26 28 27 32 32 34 31 28 31 27 23 21 27 31 30 21 22 24 19 22 29 32 31 29 30 20 22 25 24 20
53 52 50 47 45 44 40 36 32 38 40 27 27 28 25 28 26 28 27 31 28 27 31 27 24 25 28 31 27 24 23 20 17 15 20 26 26 29 31 31 28 25 23 22
52 51 49 47 44 44 38 31 26 32 37 33 28 26 21 25 28 27 29 29 27 27 30 29 28 24 28 30 31 30 25 19 18 15 20 24 22 24 28 29 25 26 26 27
52 51 48 47 45 45 33 33 24 27 26 27 26 22 18 23 24 27 27 29 25 26 29 29 30 29 29 29 30 28 26 15 20 20 21 23 22 23 24 26 30 25 26 27
51 49 47 46 45 45 33 28 26 27 26 25 24 23 17 16 18 25 26 24 25 25 28 28 28 30 30 29 28 26 27 8 21 22 25 23 20 19 24 30 32 30 28 26
51 49 47 46 44 39 30 31 31 22 23 20 18 20 16 17 17 21 24 24 27 25 29 28 29 30 32 35 31 24 25 24 24 24 27 22 21 28 24 32 33 32 28 32
50 48 46 44 43 40 30 29 28 19 16 17 19 19 17 18 19 20 20 22 25 27 29 31 32 32 35 35 33 30 26 24 25 24 26 18 30 31 27 31 33 33 32 31
49 47 45 42 42 42 31 33 24 19 15 18 18 17 18 19 22 17 19 23 25 29 31 32 29 28 29 29 30 30 32 31 25 24 24 28 28 30 30 28 32 35 34 33
48 47 44 42 41 42 33 34 32 21 17 16 20 18 19 19 21 21 22 27 29 29 31 30 26 21 27 26 29 32 32 31 26 25 23 20 27 31 34 32 28 35 35 33
48 46 43 40 42 41 32 34 36 24 21 25 22 18 21 24 22 21 23 25 29 31 28 23 22 21 25 23 24 26 27 27 25 25 25 26 29 32 33 24 28 36 36 35
47 44 42 42 42 39 32 35 37 25 25 27 28 27 23 25 24 19 24 27 28 28 24 22 22 21 23 24 26 25 25 24 25 25 22 22 33 33 31 34 35 37 37 36
45 43 43 41 42 39 36 31 34 32 27 28 30 30 30 28 28 28 28 27 27 28 26 26 24 22 23 22 25 27 26 26 25 25 26 30 35 35 36 37 36 37 38 37
44 43 41 42 41 39 35 31 32 29 27 25 25 27 30 31 31 31 27 28 30 29 30 28 27 24 28 21 25 26 27 28 27 27 31 33 35 37 40 38 39 38 39 40
44 42 41 41 40 40 36 32 36 29 26 21 25 30 29 31 33 31 31 30 31 30 30 28 27 26 31 26 26 25 26 28 27 31 31 35 36 36 38 40 39 38 39 39
44 42 41 41 41 39 36 36 36 36 23 22 25 28 29 30 33 31 30 29 28 27 27 27 26 29 31 30 28 28 31 30 28 29 32 32 32 36 39 39 37 38 37 39
44 43 42 42 39 36 27 20 32 37 30 24 23 27 28 32 31 29 28 28 27 26 26 26 26 29 29 25 27 34 32 33 34 32 34 34 35 36 36 36 36 37 38 37
44 43 42 40 39 37 29 25 33 39 35 23 22 23 29 30 29 30 30 30 27 26 25 24 26 26 31 26 24 34 31 32 33 32 34 35 35 35 35 36 35 36 35 36
44 42 40 40 39 36 31 36 37 37 32 27 21 23 25 30 28 26 31 28 29 27 26 26 25 27 30 26 29 31 31 30 32 31 32 32 33 36 35 35 35 34 34 34
42 39 37 34 34 28 32 38 38 36 26 23 19 17 17 28 27 26 28 31 25 30 25 24 26 25 24 25 29 30 30 31 31 31 31 33 33 33 33 35 35 34 33 34
38 35 30 29 35 38 38 31 23 25 28 29 24 25 22 26 26 23 24 30 25 23 25 28 25 26 29 30 29 30 31 31 31 30 30 30 31 31 32 32 32 33 32 32
36 32 31 37 39 33 31 25 20 24 19 25 24 24 25 27 22 22 25 23 25 20 24 24 24 23 28 29 29 30 31 31 32 32 31 31 31 31 31 31 31 32 32 31
33 34 37 35 31 28 20 19 25 23 15 25 23 23 26 27 27 23 25 21 22 18 30 24 19 22 27 28 28 29 30 30 29 29 29 30 32 32 31 32 32 32 31 30
36 32 30 28 27 18 16 13 19 20 25 25 26 22 25 27 25 23 22 19 19 25 23 19 21 26 27 27 27 27 27 29 28 28 28 29 30 32 32 32 31 29 29 29
26 25 17 21 16 20 18 19 20 26 26 24 24 24 23 24 22 22 18 20 23 19 17 18 22 26 25 22 21 21 20 21 22 23 26 27 26 29 32 32 30 27 26 26
25 26 10 19 22 27 28 30 29 28 26 24 22 22 22 21 21 22 20 19 18 19 17 20 24 25 21 22 23 22 21 21 21 22 22 24 26 28 30 29 28 24 21 20
27 23 21 25 25 25 27 28 27 27 24 23 21 18 13 17 18 17 15 13 10 15 20 24 23 23 24 25 24 23 22 21 22 22 23 25 26 27 28 27 26 24 21 20
24 23 25 25 25 25 27 28 27 27 19 8 15 1 6 19 16 14 16 15 17 24 27 25 24 23 23 23 22 20 20 21 23 24 24 24 26 26 25 24 24 23 22 22

GFSNW_sfc_30mbdewp_111.txt.gz
Dewpoint
47 51 53 51 47 46 43 39 33 39 43 33 28 25 26 28 26 32 33 34 31 28 31 24 21 21 24 30 30 23 24 24 19 22 27 32 30 29 29 19 21 24 21 22
49 53 52 49 46 45 41 34 34 40 41 26 27 28 26 27 25 25 29 31 27 29 30 26 24 24 28 31 28 29 28 19 15 15 18 24 25 27 31 29 25 25 20 24
53 53 51 49 47 44 38 32 25 34 38 34 28 26 23 25 29 26 27 28 27 27 29 28 26 24 28 30 30 30 25 18 17 16 19 24 22 25 27 28 23 25 25 28
53 51 50 48 46 44 34 30 24 30 28 30 27 22 22 24 26 27 27 26 25 25 29 28 29 28 28 28 30 27 25 14 19 19 20 23 22 23 25 28 28 24 29 29
52 50 49 48 46 44 31 28 26 27 26 26 25 20 18 23 21 26 26 25 25 24 26 28 28 30 29 29 28 25 25 11 24 25 23 22 19 23 29 31 30 29 29 31
51 50 49 47 46 40 31 31 29 24 23 21 20 20 17 18 20 22 26 25 26 26 28 28 29 30 33 34 30 23 24 23 23 23 26 21 24 29 28 31 31 31 28 31
50 49 48 47 46 37 30 30 26 19 19 18 18 19 18 18 20 21 21 26 27 27 29 32 32 33 35 34 30 29 27 25 25 24 27 18 30 31 31 31 32 34 32 31
49 47 48 46 45 40 32 32 24 19 16 18 19 18 18 21 20 19 20 24 26 28 32 30 27 26 29 29 31 29 31 30 25 23 22 28 28 32 31 29 31 34 34 34
48 47 46 45 43 43 34 35 30 21 18 17 20 18 19 18 19 19 22 26 29 30 31 32 26 21 26 24 28 32 31 31 27 24 21 18 28 30 32 32 26 35 36 35
48 46 46 43 42 43 33 35 35 24 22 25 21 17 19 22 21 20 23 26 29 31 29 24 22 21 24 22 24 24 25 26 24 24 23 26 28 33 34 23 25 36 36 36
47 46 44 43 43 40 32 34 36 25 26 27 28 27 24 24 23 19 23 28 28 28 24 22 22 21 23 24 25 24 24 24 24 25 22 21 33 33 31 34 35 37 37 37
47 45 44 43 43 39 35 28 33 32 27 28 30 30 30 29 27 27 28 26 27 28 25 25 24 22 22 23 23 26 24 25 24 24 25 30 35 35 37 37 37 37 38 38
46 43 43 43 42 39 34 30 32 29 25 25 25 27 30 32 32 31 27 29 29 29 30 27 26 23 24 21 24 26 27 28 27 28 31 34 35 38 39 38 38 38 39 39
44 42 43 43 42 41 33 30 35 28 25 19 25 29 29 31 32 31 31 30 30 30 30 28 26 26 30 25 26 25 25 28 28 30 31 35 36 36 38 40 40 38 39 39
45 44 44 42 42 40 36 36 36 35 24 23 26 28 28 33 31 29 29 29 28 27 27 27 26 29 30 29 27 25 31 28 27 27 31 32 31 34 37 39 37 38 37 39
46 45 44 43 42 37 28 23 32 37 31 25 22 27 31 31 29 28 27 27 26 26 26 26 26 28 28 25 25 31 32 33 33 31 34 34 34 35 36 36 36 37 38 37
46 45 44 42 40 36 27 25 32 39 32 23 22 24 29 29 28 29 29 29 27 26 25 23 26 26 30 26 24 32 31 33 33 32 33 34 35 34 35 35 35 36 35 36
45 43 42 41 38 36 29 35 38 36 29 25 20 22 26 28 26 25 31 27 28 26 25 26 25 27 29 25 26 32 31 30 31 31 32 32 32 34 35 35 35 34 34 34
44 41 38 34 32 29 30 37 37 35 26 20 20 17 18 29 25 26 27 29 24 29 25 24 25 24 23 24 26 30 30 29 30 31 31 32 33 33 33 33 33 33 34 34
40 35 31 28 34 38 37 30 21 23 27 27 19 25 24 26 26 24 24 28 24 22 24 27 25 24 26 29 28 30 30 31 31 30 29 30 30 30 30 31 31 32 32 32
37 32 31 37 39 34 31 23 18 22 18 23 25 24 24 27 21 22 24 22 24 20 23 24 22 23 26 29 29 30 30 31 31 31 31 32 31 31 31 31 31 31 31 31
35 35 37 35 32 30 22 17 24 20 13 24 22 23 26 26 26 22 24 21 20 18 26 23 20 21 27 28 28 29 29 30 29 29 29 29 29 30 30 31 31 32 32 31
36 33 30 30 28 21 11 8 18 19 24 25 25 23 25 26 24 22 22 18 17 24 24 19 20 24 27 27 27 28 28 28 28 26 27 27 27 27 26 29 31 32 30 29
28 27 24 27 25 19 14 15 19 24 24 24 23 23 22 24 21 21 18 19 22 19 17 17 20 25 27 26 25 21 19 20 21 21 22 22 22 25 26 28 31 31 29 28
28 27 11 19 22 25 27 29 27 27 25 23 20 21 21 20 21 21 21 20 18 18 16 18 22 26 25 21 21 21 21 19 17 20 20 21 21 23 24 26 29 28 27 25
27 23 21 25 25 26 27 27 25 26 23 22 18 15 13 16 18 17 15 12 5 12 19 23 23 22 21 22 23 23 21 19 20 22 22 23 24 24 25 27 27 26 25 24
25 23 25 24 24 26 27 27 26 26 14 5 13 -4 1 18 15 11 14 10 14 18 25 22 22 21 23 23 22 21 19 20 21 23 23 23 24 24 24 24 25 25 25 23

GFSNW_sfc_30mbdewp_114.txt.gz
Dewpoint
48 50 50 50 48 46 42 40 32 40 43 32 28 25 26 26 26 32 33 32 29 28 29 21 20 20 22 29 30 25 25 24 18 22 24 29 30 29 30 18 21 23 20 24
50 51 51 48 46 45 41 34 35 41 41 27 27 28 27 26 25 27 31 28 27 30 29 24 23 24 27 30 29 29 28 19 14 15 17 24 24 26 29 27 24 23 19 25
52 51 48 46 47 46 36 30 28 34 38 33 28 25 26 25 28 25 28 26 27 28 27 27 23 25 28 30 29 30 24 18 17 16 19 23 22 24 28 26 22 24 25 28
52 50 48 47 48 46 35 28 26 32 28 30 29 24 25 25 25 27 27 25 25 27 27 27 29 25 27 27 29 26 22 15 21 21 20 21 21 26 29 27 27 24 28 30
52 49 48 47 48 44 30 27 25 27 27 29 25 21 22 25 24 26 25 25 24 27 26 28 27 29 28 27 27 23 24 16 24 24 22 22 28 29 29 30 31 30 31 30
49 47 46 47 47 38 30 31 28 24 24 24 23 20 19 22 23 23 26 25 25 27 28 28 29 31 34 33 28 22 24 23 23 22 25 21 22 29 29 30 31 31 28 30
47 47 46 45 47 35 30 30 25 21 20 21 19 19 18 20 21 23 22 27 26 28 30 32 32 35 34 30 28 30 27 27 26 24 23 17 30 32 31 31 31 34 32 32
47 47 48 46 43 38 32 32 24 19 18 19 19 18 19 21 20 20 22 24 27 29 33 28 26 26 29 30 30 29 31 30 24 22 21 27 29 32 31 29 31 34 35 35
48 46 46 47 46 43 34 35 31 21 17 17 20 18 19 17 18 19 23 27 29 31 32 29 25 20 25 24 27 32 31 31 26 24 20 16 28 30 32 33 25 35 35 35
47 48 47 44 42 43 34 35 34 24 21 25 21 17 17 21 19 18 23 26 29 31 28 25 22 21 25 22 23 22 23 25 22 24 22 25 28 33 34 23 25 35 36 36
45 46 44 44 42 42 33 32 34 25 26 27 28 27 23 23 22 18 23 28 29 28 24 22 22 21 23 24 25 25 24 24 23 24 21 19 33 32 30 33 36 37 37 37
46 45 44 44 43 41 35 27 33 32 27 28 30 30 31 29 26 26 28 26 27 28 24 24 24 22 22 22 22 26 23 24 24 24 23 30 35 35 37 37 37 38 38 39
47 45 44 43 44 41 34 29 31 28 25 25 26 27 29 32 32 32 27 28 29 29 29 26 26 22 23 21 23 25 27 28 27 28 30 34 34 38 39 40 38 38 38 40
47 45 43 44 42 40 33 28 34 26 24 18 25 29 29 31 32 31 31 30 30 30 30 27 26 25 29 23 25 25 25 28 27 28 32 35 35 36 36 39 39 39 38 39
45 44 42 43 43 40 36 36 36 34 24 23 25 28 30 31 29 29 29 29 28 27 27 26 25 28 29 29 26 25 29 27 26 26 30 31 31 34 36 37 38 39 39 37
46 45 44 45 43 39 29 25 33 36 31 24 21 27 30 29 29 28 27 27 26 26 26 26 26 27 28 24 24 27 31 32 31 30 34 34 34 35 35 36 36 36 36 38
47 46 45 45 42 36 27 24 31 38 31 24 23 25 28 30 29 29 28 28 27 25 25 24 26 26 29 25 22 27 32 33 32 32 33 34 35 34 34 35 35 35 35 35
47 45 45 43 40 36 29 35 38 35 27 24 19 22 25 28 25 25 30 26 27 26 25 26 25 27 28 23 25 31 31 32 31 32 32 32 32 33 35 35 35 35 35 34
46 44 41 38 34 29 29 37 36 34 27 19 19 16 18 29 25 26 28 27 22 29 24 24 25 24 22 24 25 30 30 29 29 31 30 32 33 32 31 31 32 31 32 32
41 38 35 31 34 38 37 30 23 23 26 25 18 25 23 26 24 24 24 27 24 20 23 27 25 23 25 25 26 28 30 31 31 29 29 30 30 30 30 30 31 31 31 31
36 32 31 37 39 35 31 21 18 19 18 24 24 24 23 27 21 22 24 22 23 20 22 23 22 21 24 27 28 29 30 31 31 31 31 31 31 30 30 30 30 30 30 31
35 36 37 36 33 30 24 19 22 20 12 23 22 24 25 26 26 22 24 21 20 16 24 23 19 21 25 28 28 29 30 30 30 30 29 28 28 28 28 28 29 30 31 32
37 33 31 30 29 22 17 13 17 18 23 24 25 24 25 26 24 23 21 18 17 24 23 19 20 22 27 27 28 28 28 28 28 26 24 24 24 24 25 25 26 28 30 30
31 29 25 26 24 23 18 13 15 22 25 25 24 23 22 24 21 21 17 19 22 20 18 15 19 24 27 27 27 26 23 22 20 20 20 20 21 21 22 24 25 26 29 28
30 29 25 25 26 24 23 26 25 26 26 23 20 20 21 20 20 20 21 19 17 18 14 17 20 25 26 25 22 20 20 19 17 19 20 21 22 22 23 24 25 27 27 27
30 27 22 24 23 25 27 26 25 26 23 21 18 15 13 15 18 18 16 13 5 9 19 20 23 25 23 21 22 21 20 18 20 21 22 23 23 23 23 23 24 25 26 25
26 24 24 24 23 24 27 26 26 24 16 5 10 -2 -2 17 15 11 14 9 7 15 21 23 22 21 21 22 22 21 19 20 22 23 23 22 23 22 22 22 23 24 25 25

GFSNW_sfc_30mbdewp_117.txt.gz
Dewpoint
51 51 50 45 46 44 42 39 32 42 43 32 29 25 25 26 28 32 33 30 28 27 25 21 19 19 22 28 30 26 27 24 19 20 23 25 30 28 29 20 21 22 22 24
51 50 47 45 45 45 40 35 36 42 42 26 27 27 27 25 25 29 30 27 28 30 27 22 23 23 27 30 28 29 28 18 14 13 18 24 24 26 29 26 23 23 20 26
48 47 46 47 45 42 36 33 30 36 38 32 27 25 26 24 27 24 28 27 27 28 25 26 23 24 27 29 29 30 23 18 17 17 20 22 23 28 29 25 23 25 26 29
48 47 48 47 46 41 33 28 30 31 29 30 29 24 25 25 25 27 27 24 26 28 25 27 27 25 26 26 29 25 19 22 23 23 22 21 28 28 29 28 28 26 28 29
47 47 47 48 46 43 30 27 26 27 27 29 27 21 24 26 25 26 25 24 26 27 26 28 26 29 27 25 26 22 24 21 24 23 24 25 26 29 29 29 31 31 29 29
47 47 47 48 45 35 31 30 27 25 24 26 23 20 22 24 24 24 26 25 27 26 27 29 31 33 33 29 26 23 24 23 22 18 26 22 21 28 29 30 31 31 27 31
47 46 46 47 43 36 32 30 24 21 20 24 21 19 19 22 22 24 25 27 26 28 31 32 35 34 30 28 29 30 28 27 26 22 18 16 29 32 32 30 31 33 33 34
47 47 45 46 43 38 33 32 23 20 19 20 19 18 21 21 21 21 24 25 27 29 32 27 24 26 29 27 30 30 31 28 24 21 20 26 26 31 30 30 31 35 34 35
48 47 46 44 45 40 34 35 28 21 18 18 21 19 20 18 19 20 24 28 29 32 32 27 23 20 23 23 24 31 31 31 24 22 18 16 28 30 34 32 25 35 35 35
48 46 47 44 44 41 34 35 31 24 21 25 21 17 17 20 18 19 23 27 29 31 28 25 22 20 25 22 22 21 22 24 21 21 21 23 28 33 34 23 25 35 36 36
48 48 46 43 43 42 34 31 33 26 25 27 28 27 22 22 21 17 22 28 29 29 25 23 22 21 23 24 24 25 23 23 23 23 21 18 33 33 29 33 36 37 38 37
47 46 44 44 44 41 33 27 32 31 27 28 30 30 31 29 25 25 27 26 28 29 25 24 23 22 22 22 20 26 23 24 23 23 22 30 36 35 37 37 38 37 38 39
43 47 44 45 44 41 33 29 30 28 25 25 26 26 29 31 32 32 28 28 29 29 28 26 25 21 23 21 22 24 27 28 26 27 30 33 34 38 39 39 39 38 38 40
45 46 46 44 44 40 33 28 32 25 23 18 24 29 29 31 31 31 30 30 30 30 29 27 25 24 27 22 24 25 26 27 26 27 31 34 36 35 36 39 39 38 38 39
47 47 45 45 44 41 36 35 33 32 21 20 25 28 30 30 29 30 30 29 28 28 27 25 24 28 28 28 26 24 26 26 26 24 30 30 32 34 36 36 37 38 38 37
44 47 47 46 45 39 31 25 34 35 30 24 20 27 30 29 29 28 27 27 26 26 26 26 26 27 28 24 23 25 28 29 29 30 32 33 33 34 35 35 36 36 36 37
43 47 45 46 44 35 28 24 30 35 30 23 24 25 28 30 29 29 27 27 26 25 24 24 25 26 30 26 22 23 31 32 32 33 33 34 35 34 33 35 35 35 35 35
42 47 46 46 41 38 32 36 40 33 26 24 19 22 26 28 25 24 29 26 26 26 24 26 25 26 28 23 25 27 31 32 31 31 32 32 32 33 33 34 34 35 34 34
41 47 43 40 36 31 30 39 37 34 27 19 20 14 15 28 25 26 28 27 21 28 23 23 25 24 21 21 23 28 30 32 32 31 31 31 33 32 31 31 31 30 31 31
44 39 36 31 35 38 39 32 26 24 26 24 18 24 22 26 24 24 24 26 23 18 22 27 25 22 23 24 26 28 30 29 30 29 29 30 30 30 30 30 30 30 30 30
37 32 32 37 40 36 32 24 20 20 19 24 23 24 22 26 21 23 24 22 22 18 20 22 21 20 23 25 26 28 30 31 30 30 30 30 30 29 29 27 29 29 29 30
35 36 37 37 33 31 27 21 21 18 12 23 22 23 25 25 26 23 24 21 20 15 24 23 18 20 23 26 28 29 30 30 30 30 28 27 27 27 27 26 25 25 27 28
37 33 31 30 29 24 22 16 15 16 22 23 25 23 25 26 24 23 20 19 16 24 22 19 18 21 26 27 28 28 28 27 27 26 24 22 21 22 22 21 23 25 25 26
33 29 24 26 23 24 21 17 15 20 23 24 25 24 21 24 21 21 16 18 23 20 18 13 18 22 27 27 27 27 26 25 21 19 19 19 20 21 21 23 24 24 24 26
30 30 25 25 26 24 22 23 24 26 26 23 21 20 21 20 19 20 20 18 17 19 12 16 18 24 27 26 26 24 21 19 17 18 20 21 22 22 22 22 23 23 24 26
31 29 26 24 24 25 25 25 24 27 24 21 18 15 12 12 17 17 14 10 3 7 18 19 21 26 25 25 20 19 19 17 19 20 21 22 22 22 22 23 22 23 24 24
28 26 25 23 22 25 26 25 25 26 20 9 10 -2 -3 17 14 12 16 10 6 11 18 20 24 25 24 21 20 19 18 19 21 22 22 22 22 22 20 20 21 22 23 24

GFSNW_sfc_30mbdewp_120.txt.gz
Dewpoint
49 48 47 46 46 46 43 40 33 43 43 31 30 28 26 28 30 33 32 29 28 25 23 24 22 22 24 27 30 26 26 25 20 20 22 25 31 29 28 25 23 24 26 25
48 47 47 46 45 44 41 36 37 43 43 28 28 28 27 26 26 29 29 26 28 29 25 22 23 24 26 29 27 27 26 20 18 18 20 24 28 29 28 26 27 26 24 26
46 46 46 45 42 40 38 35 31 36 38 32 28 26 25 23 28 26 27 27 27 24 24 23 21 21 27 29 29 29 23 21 19 19 22 25 27 28 29 27 26 26 27 29
47 47 46 46 46 39 33 31 31 32 28 28 29 26 26 24 23 27 27 24 26 26 22 25 24 24 26 26 28 25 21 22 22 23 23 25 28 29 30 29 30 26 28 29
47 47 48 46 41 37 32 27 30 29 28 30 29 22 26 25 26 26 25 24 27 27 25 26 24 28 26 25 28 24 27 23 23 20 24 24 26 28 28 29 31 29 28 28
48 47 49 45 39 36 30 30 28 27 27 28 25 22 26 26 26 25 27 27 27 26 28 30 31 31 28 28 27 26 27 24 22 20 24 22 21 29 30 31 33 32 28 33
48 47 48 46 42 35 32 30 26 23 23 27 24 20 21 24 24 25 26 28 27 29 31 34 34 31 29 28 28 30 28 27 25 23 20 17 26 33 33 33 34 35 34 34
48 47 47 45 42 36 33 32 25 23 24 22 19 19 23 23 23 23 26 26 28 31 33 27 23 23 27 25 27 28 30 27 23 21 20 24 27 29 30 29 32 35 34 34
48 47 46 44 44 38 35 34 30 24 21 19 20 20 21 22 22 23 26 29 30 33 32 28 23 20 22 22 23 28 30 29 25 22 19 16 26 31 34 33 26 35 35 34
49 48 47 46 45 42 36 33 32 26 21 24 21 18 20 21 22 22 25 28 28 32 30 27 23 20 25 21 21 21 22 24 22 20 21 22 27 33 34 23 26 36 36 36
46 47 46 46 43 43 35 32 34 28 25 27 28 26 21 22 22 21 25 28 29 30 28 25 23 21 24 24 24 25 23 23 23 24 21 18 34 33 28 33 36 37 38 38
44 48 47 46 45 45 35 29 32 32 28 28 31 31 31 29 25 24 28 28 30 31 28 25 24 21 23 23 19 26 23 24 23 24 22 31 36 35 37 38 38 37 38 39
45 44 48 46 45 46 37 30 33 29 27 26 27 27 29 32 32 32 28 29 30 30 30 27 25 22 23 20 22 24 27 28 26 26 29 33 35 37 39 39 38 38 38 39
45 44 46 47 45 45 36 30 33 27 24 20 24 29 29 32 31 32 31 30 31 31 30 29 27 24 26 23 23 25 26 28 27 27 29 33 35 35 36 38 38 38 38 38
45 45 47 47 45 42 36 35 33 32 25 19 25 29 31 30 30 31 31 31 30 30 28 27 26 29 29 28 27 25 27 27 25 22 28 30 32 35 36 36 37 37 37 37
44 47 47 46 45 39 31 27 35 36 32 26 20 28 30 29 29 28 28 29 28 28 28 27 27 29 29 26 24 25 27 29 29 28 32 32 34 35 36 35 36 36 36 36
44 46 47 47 43 37 29 27 34 37 33 25 23 25 29 29 29 30 28 28 27 27 26 26 26 27 30 27 23 23 26 30 31 33 34 33 34 34 34 34 35 35 35 35
44 44 47 47 42 38 34 35 38 34 27 26 22 23 26 29 26 25 30 27 27 26 24 26 25 27 29 25 25 25 30 32 32 33 33 33 34 33 34 35 35 35 34 33
44 42 46 41 37 34 33 39 39 35 30 23 23 17 17 28 26 27 29 28 21 28 23 23 25 23 23 22 23 26 32 32 32 32 31 32 32 33 32 32 31 31 31 31
44 41 37 33 36 38 39 33 30 29 29 27 21 23 23 26 25 25 26 27 24 21 23 26 24 21 23 24 25 26 32 33 32 31 30 31 31 31 31 31 31 30 29 29
39 35 33 38 40 36 33 29 25 25 22 25 23 24 23 27 23 24 25 23 24 18 21 23 22 21 23 25 25 28 32 31 32 30 30 31 30 30 29 28 27 27 26 25
37 37 38 38 33 30 28 26 24 21 18 24 23 24 25 26 27 24 24 22 22 15 25 23 19 21 23 25 26 29 31 30 30 30 30 29 27 26 25 25 24 23 24 25
38 34 31 30 30 24 23 21 19 18 23 24 25 23 25 26 26 24 22 20 17 24 23 19 17 21 24 27 28 30 30 30 29 27 26 25 23 22 21 20 21 23 24 25
33 29 24 25 24 25 25 23 19 20 24 24 25 24 24 25 23 22 18 20 23 20 17 13 19 22 26 28 29 29 29 28 26 22 20 19 19 20 22 23 23 24 23 23
30 30 25 25 26 25 25 23 23 26 26 25 22 23 24 22 20 20 20 18 17 18 12 17 20 25 27 28 28 28 26 23 20 19 19 21 22 22 23 23 23 23 24 25
31 30 27 26 26 25 25 24 24 28 26 24 25 21 17 14 18 18 14 11 4 8 19 22 24 27 28 28 27 26 23 19 18 20 22 22 23 23 23 23 22 22 23 24
29 27 27 27 26 27 27 26 26 28 22 16 16 8 5 17 15 12 17 9 10 16 20 22 27 28 28 26 24 21 19 19 20 22 23 23 23 22 21 21 22 23 24 24

GFSNW_sfc_30mbdewp_123.txt.gz
Dewpoint
51 50 48 48 45 46 44 40 32 42 44 31 30 26 26 27 27 31 28 26 25 21 20 24 23 25 27 26 26 23 24 24 21 22 25 28 32 30 27 25 25 28 27 24
47 47 48 49 48 46 41 36 37 41 42 28 26 27 25 25 25 27 25 25 26 25 22 22 19 21 23 26 25 24 24 21 21 22 22 25 30 31 30 31 31 26 23 24
47 48 48 46 45 42 38 34 31 34 35 30 26 24 23 23 27 26 26 25 25 22 21 21 19 19 26 27 28 29 25 22 21 20 23 29 29 31 30 30 27 26 26 28
47 48 49 45 44 40 35 32 31 31 29 26 27 27 24 23 23 25 26 24 24 24 22 21 20 22 24 26 28 23 23 21 22 23 26 31 28 30 29 30 31 27 29 30
48 48 49 49 46 41 32 28 29 29 27 27 27 25 25 24 25 25 24 24 25 25 24 24 23 24 23 24 27 28 28 21 22 20 23 24 25 29 30 32 31 29 29 32
49 48 49 48 45 37 30 30 30 26 28 27 24 21 25 25 26 27 27 26 25 25 28 28 28 27 27 28 27 27 27 25 22 22 21 21 21 28 30 31 32 32 29 32
49 48 49 47 44 37 32 30 27 23 23 25 24 23 25 26 26 26 27 27 26 30 31 33 31 29 28 27 26 29 27 26 24 24 20 18 25 30 32 32 32 32 32 31
48 48 47 44 42 40 34 30 28 23 21 24 21 21 23 25 25 26 26 27 29 32 32 26 24 23 24 24 25 25 28 26 23 21 20 22 26 28 29 28 30 32 32 32
48 47 46 46 45 43 36 35 32 27 22 21 22 21 23 22 22 25 27 29 31 33 30 26 23 20 21 21 22 25 27 26 24 22 19 16 24 31 33 32 25 33 34 34
48 47 47 45 44 41 37 35 34 29 20 22 21 19 21 23 24 24 26 28 29 33 28 26 23 19 24 20 19 20 22 23 22 20 20 20 27 32 33 25 29 34 36 36
45 46 47 46 44 44 38 34 34 30 24 25 26 25 21 21 23 21 27 27 29 29 27 24 23 20 21 23 22 22 21 21 21 22 19 18 32 32 28 33 36 37 38 37
45 45 48 47 45 45 37 32 32 32 29 29 31 30 31 29 27 23 29 30 31 30 28 26 24 20 21 21 16 26 22 23 22 22 23 32 35 34 36 36 36 37 38 38
43 46 46 48 46 46 37 33 34 30 27 26 27 27 30 32 32 32 27 29 31 31 31 28 25 22 22 17 19 22 25 27 24 25 25 30 34 35 36 36 36 37 38 39
43 45 45 44 47 44 37 33 34 28 24 20 23 29 29 32 32 32 32 31 31 32 31 29 27 24 25 20 22 23 24 27 25 25 28 31 33 34 35 37 37 37 37 38
43 45 45 48 47 45 37 36 34 30 21 22 22 28 30 30 30 31 32 31 31 31 29 28 27 28 28 27 27 23 25 24 24 19 25 28 29 33 35 36 36 37 36 36
43 45 48 47 46 40 34 30 36 33 31 28 23 28 29 29 30 30 30 31 30 30 29 27 27 30 29 25 22 22 23 24 25 25 28 30 33 35 36 35 35 36 35 36
42 44 48 47 43 36 32 31 35 35 33 26 25 24 28 29 29 29 29 29 29 28 28 27 26 28 30 27 22 18 24 26 28 31 33 33 34 34 35 35 35 36 35 35
42 43 46 46 42 39 36 38 39 35 28 26 26 24 25 29 25 25 29 27 27 27 26 25 24 27 28 25 22 21 24 27 30 32 33 33 34 35 34 35 35 34 34 34
43 45 45 42 38 34 35 40 37 37 31 27 25 22 21 28 26 27 28 28 23 27 23 22 24 20 23 22 18 22 26 29 31 33 33 34 33 34 34 34 33 33 32 32
43 43 39 34 37 39 39 35 33 30 31 30 26 23 24 26 25 24 25 27 25 24 24 26 22 20 22 22 23 22 27 31 33 32 31 32 32 32 32 31 31 31 30 27
40 37 35 38 41 37 35 31 29 28 26 27 26 23 24 27 24 24 25 26 26 21 23 23 23 21 23 22 22 24 29 33 33 32 32 31 31 31 31 31 29 25 23 21
38 37 39 38 34 31 28 27 27 26 23 25 25 24 26 27 28 26 26 24 23 18 25 23 20 21 25 24 23 26 31 33 32 32 31 30 30 30 27 22 22 21 21 22
38 35 31 30 30 25 24 22 25 23 25 26 26 23 26 27 29 26 24 22 20 23 23 20 18 22 24 25 26 29 32 32 31 30 29 25 24 22 21 19 20 21 22 23
33 29 25 26 25 26 26 26 26 26 28 27 26 25 25 28 25 26 21 22 23 20 19 16 17 24 25 27 29 31 31 30 29 26 23 21 19 19 20 22 23 23 23 23
31 30 25 27 28 30 31 30 26 27 29 27 25 25 26 25 25 24 23 19 17 18 14 15 24 25 27 29 31 31 31 29 26 23 21 21 22 22 23 24 23 23 23 24
32 30 29 29 29 28 27 28 29 29 28 27 28 23 22 18 22 20 18 16 13 14 21 27 27 28 29 30 31 30 28 25 22 21 21 21 22 23 24 24 24 23 23 24
30 29 32 29 30 30 29 29 28 29 26 22 23 17 13 22 18 18 20 17 14 22 23 25 28 29 30 30 29 26 23 20 20 21 22 23 23 22 21 21 22 24 25 24